[[{"header":{"parameterUnit":"m.s-1","parameterCategory":1,"la1":30.6,"la2":29.2853,"lo1":-89.7004,"lo2":-87.6739,"dy":0.0162,"dx":0.0183,"nx":112,"ny":82,"refTime":"2025-05-24T06:00:00:Z","depth":0,"parameterNumber":2,"parameterNumberName":"U-component_of_WINDS"},"data":[0.0,0.0,0.0,0.0,0.0,0.0,0.0,0.0,0.0,0.0,0.0,0.0,0.0,0.0,0.0,0.0,0.0,0.0,0.0,0.0,0.0,0.0,0.0,0.0,0.0,0.0,0.0,0.0,0.0,0.0,0.0,0.0,0.0,0.0,0.0,0.0,0.0,0.0,0.0,0.0,0.0,0.0,0.0,0.0,0.0,0.0,0.0,0.0,0.0,0.0,0.0,0.0,0.0,0.0,0.0,0.0,0.0,0.0,0.0,0.0,0.0,0.0,0.0,0.0,0.0,0.0,0.0,0.0,0.0,0.0,0.0,0.0,0.0,0.0,0.0,0.0,0.0,0.0,0.0,0.0,0.0,0.0,0.0,0.0,0.0,0.0,0.0,0.0,0.0,0.0,-2.7826,-3.0225,-3.3748,-3.5882,-3.5825,-3.4722,-3.2386,-2.8522,0.0,0.0,0.0,0.0,0.0,0.0,0.0,0.0,0.0,0.0,0.0,0.0,0.0,0.0,0.0,0.0,0.0,0.0,0.0,0.0,0.0,0.0,0.0,0.0,0.0,0.0,0.0,0.0,0.0,0.0,0.0,0.0,0.0,0.0,0.0,0.0,0.0,0.0,0.0,0.0,0.0,0.0,0.0,0.0,0.0,0.0,0.0,0.0,0.0,0.0,0.0,0.0,0.0,0.0,0.0,0.0,0.0,0.0,0.0,0.0,0.0,0.0,0.0,0.0,0.0,0.0,0.0,0.0,0.0,0.0,0.0,0.0,0.0,0.0,0.0,0.0,0.0,0.0,0.0,0.0,0.0,0.0,0.0,0.0,0.0,0.0,0.0,0.0,0.0,0.0,0.0,0.0,0.0,0.0,0.0,0.0,0.0,0.0,0.0,0.0,0.0,0.0,0.0,0.0,-2.9037,-3.4353,-3.6107,-3.6855,-3.6789,-3.4623,-3.2339,-3.0163,0.0,0.0,0.0,0.0,0.0,0.0,0.0,0.0,0.0,0.0,0.0,0.0,0.0,0.0,0.0,0.0,0.0,0.0,0.0,0.0,0.0,0.0,0.0,0.0,0.0,0.0,0.0,0.0,0.0,0.0,0.0,0.0,0.0,0.0,0.0,0.0,0.0,0.0,0.0,0.0,0.0,0.0,0.0,0.0,0.0,0.0,0.0,0.0,0.0,0.0,0.0,0.0,0.0,0.0,0.0,0.0,0.0,0.0,0.0,0.0,0.0,0.0,0.0,0.0,0.0,0.0,0.0,0.0,0.0,0.0,0.0,0.0,0.0,0.0,0.0,0.0,0.0,0.0,0.0,0.0,0.0,0.0,0.0,0.0,0.0,0.0,0.0,0.0,0.0,0.0,0.0,0.0,0.0,0.0,0.0,0.0,0.0,0.0,0.0,0.0,0.0,0.0,0.0,-2.8806,-3.1736,-3.6776,-3.764,-3.782,-3.7716,-3.5317,-3.2848,-3.0593,-2.6366,0.0,0.0,0.0,0.0,0.0,0.0,0.0,0.0,0.0,0.0,0.0,0.0,0.0,0.0,0.0,0.0,0.0,0.0,0.0,0.0,0.0,0.0,0.0,0.0,0.0,0.0,0.0,0.0,0.0,0.0,0.0,0.0,0.0,0.0,0.0,0.0,0.0,0.0,0.0,0.0,0.0,0.0,0.0,0.0,0.0,0.0,0.0,0.0,0.0,0.0,0.0,0.0,0.0,0.0,0.0,0.0,0.0,0.0,0.0,0.0,0.0,0.0,0.0,0.0,0.0,0.0,0.0,0.0,0.0,0.0,0.0,0.0,0.0,0.0,0.0,0.0,0.0,0.0,0.0,0.0,0.0,0.0,0.0,0.0,0.0,0.0,0.0,0.0,0.0,0.0,0.0,0.0,0.0,0.0,0.0,0.0,0.0,0.0,0.0,0.0,0.0,0.0,-3.2439,-3.4491,-3.8131,-3.8717,-3.8704,-3.8375,-3.5759,-3.3117,-3.068,-2.5492,0.0,0.0,0.0,0.0,0.0,0.0,0.0,0.0,0.0,0.0,0.0,0.0,0.0,0.0,0.0,0.0,0.0,0.0,0.0,0.0,0.0,0.0,0.0,0.0,0.0,0.0,0.0,0.0,0.0,0.0,0.0,0.0,0.0,0.0,0.0,0.0,0.0,0.0,0.0,0.0,0.0,0.0,0.0,0.0,0.0,0.0,0.0,0.0,0.0,0.0,0.0,0.0,0.0,0.0,0.0,0.0,0.0,0.0,0.0,0.0,0.0,0.0,0.0,0.0,0.0,0.0,0.0,0.0,0.0,0.0,0.0,0.0,0.0,0.0,0.0,0.0,0.0,0.0,0.0,0.0,0.0,0.0,0.0,0.0,0.0,0.0,0.0,0.0,0.0,0.0,0.0,0.0,0.0,0.0,0.0,0.0,0.0,0.0,0.0,0.0,0.0,0.0,-3.3262,-3.6465,-3.8398,-3.9316,-3.9431,-3.8551,-3.5341,-3.2576,-3.0706,-2.4998,0.0,0.0,0.0,0.0,0.0,0.0,0.0,0.0,0.0,0.0,0.0,0.0,0.0,0.0,0.0,0.0,0.0,0.0,0.0,0.0,0.0,0.0,0.0,0.0,0.0,0.0,0.0,0.0,0.0,0.0,0.0,0.0,0.0,0.0,0.0,0.0,0.0,0.0,0.0,0.0,0.0,0.0,0.0,0.0,0.0,0.0,0.0,0.0,0.0,0.0,0.0,0.0,0.0,0.0,0.0,0.0,0.0,0.0,0.0,0.0,0.0,0.0,0.0,0.0,0.0,0.0,0.0,0.0,0.0,0.0,0.0,0.0,0.0,0.0,0.0,0.0,0.0,0.0,0.0,0.0,0.0,0.0,0.0,0.0,0.0,0.0,0.0,0.0,0.0,0.0,0.0,0.0,0.0,0.0,0.0,0.0,0.0,0.0,0.0,0.0,0.0,0.0,-3.4023,-3.6875,0.0,-4.0195,-4.0136,-3.8689,-3.6317,-3.3695,-3.0842,0.0,0.0,0.0,0.0,0.0,0.0,0.0,0.0,0.0,0.0,0.0,0.0,0.0,0.0,0.0,0.0,0.0,0.0,0.0,0.0,0.0,0.0,0.0,0.0,0.0,0.0,0.0,0.0,0.0,0.0,0.0,0.0,0.0,0.0,0.0,0.0,0.0,0.0,0.0,0.0,0.0,0.0,0.0,0.0,0.0,0.0,0.0,0.0,0.0,0.0,0.0,0.0,0.0,0.0,0.0,0.0,0.0,0.0,0.0,0.0,0.0,0.0,0.0,0.0,0.0,0.0,0.0,0.0,0.0,0.0,0.0,0.0,0.0,0.0,0.0,0.0,0.0,0.0,0.0,0.0,0.0,0.0,0.0,0.0,0.0,0.0,0.0,0.0,0.0,0.0,0.0,0.0,0.0,0.0,0.0,0.0,0.0,0.0,0.0,0.0,0.0,0.0,-3.168,-3.4668,-3.7305,0.0,-4.0684,-4.0488,-3.875,-3.6716,-3.4028,-3.0544,0.0,0.0,0.0,0.0,0.0,0.0,0.0,0.0,0.0,0.0,0.0,0.0,0.0,0.0,0.0,0.0,0.0,0.0,0.0,0.0,0.0,0.0,0.0,0.0,0.0,0.0,0.0,0.0,0.0,0.0,0.0,0.0,0.0,0.0,0.0,0.0,0.0,0.0,0.0,0.0,0.0,0.0,0.0,0.0,0.0,0.0,0.0,0.0,0.0,0.0,0.0,0.0,0.0,0.0,0.0,0.0,0.0,0.0,0.0,0.0,0.0,0.0,0.0,0.0,0.0,0.0,0.0,0.0,0.0,0.0,0.0,0.0,0.0,0.0,0.0,0.0,0.0,0.0,0.0,0.0,0.0,0.0,0.0,0.0,0.0,0.0,0.0,0.0,0.0,0.0,0.0,0.0,0.0,0.0,0.0,0.0,0.0,0.0,0.0,0.0,0.0,0.0,-3.1777,-3.5195,-3.7988,-3.9726,-4.0684,-4.0488,-3.875,-3.6211,-3.3222,0.0,0.0,0.0,0.0,0.0,0.0,0.0,0.0,0.0,0.0,0.0,0.0,0.0,0.0,0.0,0.0,0.0,0.0,0.0,0.0,0.0,0.0,0.0,0.0,0.0,0.0,0.0,0.0,0.0,0.0,0.0,0.0,0.0,0.0,0.0,0.0,0.0,0.0,0.0,0.0,0.0,0.0,0.0,0.0,0.0,0.0,0.0,0.0,0.0,0.0,0.0,0.0,0.0,0.0,0.0,0.0,0.0,0.0,0.0,0.0,0.0,0.0,0.0,0.0,0.0,0.0,0.0,0.0,0.0,0.0,0.0,0.0,0.0,0.0,0.0,0.0,0.0,0.0,0.0,0.0,0.0,0.0,0.0,0.0,0.0,0.0,0.0,0.0,0.0,0.0,0.0,0.0,0.0,0.0,0.0,0.0,0.0,0.0,0.0,0.0,0.0,0.0,0.0,-3.2598,-3.6074,-3.8887,-4.0625,-4.1055,-4.0488,-3.875,-3.6777,-3.414,-3.0632,0.0,0.0,0.0,0.0,0.0,0.0,0.0,0.0,0.0,0.0,0.0,0.0,0.0,0.0,0.0,0.0,0.0,0.0,0.0,0.0,0.0,0.0,0.0,0.0,0.0,0.0,0.0,0.0,0.0,0.0,0.0,0.0,0.0,0.0,0.0,0.0,0.0,0.0,0.0,0.0,0.0,0.0,0.0,0.0,0.0,0.0,0.0,0.0,0.0,0.0,0.0,0.0,0.0,0.0,0.0,0.0,0.0,0.0,0.0,0.0,0.0,0.0,0.0,0.0,0.0,0.0,0.0,0.0,0.0,0.0,0.0,0.0,0.0,0.0,0.0,0.0,0.0,0.0,0.0,0.0,0.0,0.0,0.0,0.0,0.0,0.0,0.0,0.0,0.0,0.0,0.0,0.0,0.0,0.0,0.0,0.0,0.0,0.0,0.0,0.0,0.0,0.0,-3.2969,-3.6445,-3.9277,-4.1016,-4.1191,-4.0488,-3.875,-3.7324,-3.4746,-3.0581,0.0,0.0,0.0,0.0,0.0,0.0,0.0,0.0,0.0,0.0,0.0,0.0,0.0,0.0,0.0,0.0,0.0,0.0,0.0,0.0,0.0,0.0,0.0,0.0,0.0,0.0,0.0,0.0,0.0,0.0,0.0,0.0,0.0,0.0,0.0,0.0,0.0,0.0,0.0,0.0,0.0,0.0,0.0,0.0,0.0,0.0,0.0,0.0,0.0,0.0,0.0,0.0,0.0,0.0,0.0,0.0,0.0,0.0,0.0,0.0,0.0,0.0,0.0,0.0,0.0,0.0,0.0,0.0,0.0,0.0,0.0,0.0,0.0,0.0,0.0,0.0,0.0,0.0,0.0,0.0,0.0,0.0,0.0,0.0,0.0,0.0,0.0,0.0,0.0,0.0,0.0,0.0,0.0,0.0,0.0,0.0,0.0,0.0,0.0,0.0,0.0,0.0,-3.2969,-3.6445,-3.9277,-4.1016,-4.1191,-4.0527,-3.8867,-3.7851,-3.5195,-3.0254,0.0,0.0,0.0,0.0,0.0,0.0,0.0,0.0,0.0,0.0,0.0,0.0,0.0,0.0,0.0,0.0,0.0,0.0,0.0,0.0,0.0,0.0,0.0,0.0,0.0,0.0,0.0,0.0,0.0,0.0,0.0,0.0,0.0,0.0,0.0,0.0,0.0,0.0,0.0,0.0,0.0,0.0,0.0,0.0,0.0,0.0,0.0,0.0,0.0,0.0,0.0,0.0,0.0,0.0,0.0,0.0,0.0,0.0,0.0,0.0,-3.1719,-2.9609,0.0,0.0,0.0,0.0,0.0,0.0,0.0,0.0,0.0,0.0,0.0,0.0,0.0,0.0,0.0,0.0,0.0,0.0,0.0,0.0,0.0,0.0,0.0,0.0,0.0,0.0,0.0,0.0,0.0,0.0,0.0,0.0,0.0,0.0,0.0,0.0,0.0,0.0,0.0,0.0,-3.2969,-3.6445,-3.9277,-4.1016,-4.1191,-4.0762,-3.9707,-3.8203,-3.5957,-3.2793,-2.8904,0.0,0.0,0.0,0.0,0.0,0.0,0.0,0.0,0.0,0.0,0.0,0.0,0.0,0.0,0.0,0.0,0.0,0.0,0.0,0.0,0.0,0.0,0.0,0.0,0.0,0.0,0.0,0.0,0.0,0.0,0.0,0.0,0.0,0.0,0.0,0.0,0.0,0.0,0.0,0.0,0.0,0.0,0.0,0.0,0.0,0.0,0.0,0.0,0.0,0.0,0.0,0.0,0.0,0.0,0.0,0.0,0.0,0.0,0.0,-3.5059,-3.332,0.0,0.0,0.0,0.0,0.0,0.0,0.0,0.0,0.0,0.0,0.0,0.0,0.0,0.0,0.0,0.0,0.0,0.0,0.0,0.0,0.0,0.0,0.0,0.0,0.0,0.0,0.0,0.0,0.0,0.0,0.0,0.0,0.0,0.0,0.0,0.0,0.0,0.0,0.0,0.0,-3.3008,-3.6445,-3.9277,-4.1016,-4.1191,-4.0859,-3.9961,-3.8691,-3.6816,-3.4199,-3.0781,0.0,0.0,0.0,0.0,0.0,0.0,0.0,0.0,0.0,0.0,0.0,0.0,0.0,0.0,0.0,0.0,0.0,0.0,0.0,0.0,0.0,0.0,0.0,0.0,0.0,0.0,0.0,0.0,0.0,0.0,0.0,0.0,0.0,0.0,0.0,0.0,0.0,0.0,0.0,0.0,0.0,0.0,0.0,0.0,0.0,0.0,0.0,0.0,0.0,0.0,0.0,0.0,0.0,-3.8965,-3.9629,-4.0176,-4.0332,-4.0781,-4.1348,-3.9199,-3.8066,-3.7519,-3.4531,0.0,0.0,0.0,0.0,0.0,0.0,0.0,0.0,0.0,0.0,0.0,0.0,0.0,0.0,0.0,0.0,0.0,0.0,0.0,0.0,0.0,0.0,-3.3184,-3.5137,-3.5723,-3.4824,-3.1113,0.0,0.0,0.0,0.0,0.0,0.0,0.0,0.0,0.0,0.0,0.0,-3.3516,-3.6758,-3.9434,-4.1035,-4.1191,-4.0918,-4.0195,-3.9199,-3.7617,-3.5293,-3.2754,-2.9902,0.0,0.0,0.0,0.0,0.0,0.0,0.0,0.0,0.0,0.0,0.0,0.0,0.0,0.0,0.0,0.0,0.0,0.0,0.0,0.0,0.0,0.0,0.0,0.0,0.0,0.0,0.0,0.0,0.0,0.0,0.0,0.0,-2.6561,-2.7655,0.0,0.0,0.0,0.0,0.0,0.0,0.0,0.0,0.0,0.0,0.0,0.0,0.0,-3.7109,-3.8086,-4.1133,-4.2363,-4.1777,-4.5566,-4.7031,-4.6445,-4.7207,-4.7598,-4.7695,-4.7344,0.0,-3.9453,-3.8242,0.0,0.0,0.0,0.0,0.0,0.0,0.0,0.0,0.0,0.0,0.0,0.0,0.0,0.0,0.0,0.0,0.0,0.0,0.0,0.0,0.0,0.0,-3.9746,-3.9316,-3.9785,-3.998,-3.8652,-3.4355,-3.0586,-3.0137,-2.8301,-2.6445,0.0,0.0,0.0,0.0,0.0,0.0,-3.5234,-3.8047,-4.0117,-4.1094,-4.1191,-4.1152,-4.1035,-3.9531,-3.8125,-3.7031,-3.4512,-3.2207,-3.0293,-2.7207,0.0,0.0,0.0,0.0,0.0,0.0,0.0,0.0,0.0,0.0,0.0,0.0,0.0,0.0,0.0,0.0,0.0,0.0,0.0,0.0,0.0,0.0,0.0,0.0,0.0,0.0,0.0,0.0,0.0,-2.5779,-2.8418,-2.8319,-2.9609,-2.9902,0.0,0.0,0.0,0.0,0.0,0.0,0.0,0.0,0.0,-3.9512,-4.0449,-4.1797,-4.3633,-4.5625,-4.6426,-4.6074,-4.7988,-4.8691,-4.834,-4.873,-4.8906,-4.8906,-4.8906,-4.7402,-4.4785,-4.2422,-4.0469,-3.8691,0.0,0.0,0.0,0.0,-3.6875,-3.7832,-3.9258,-3.9766,-3.9609,-3.8652,0.0,0.0,0.0,0.0,0.0,0.0,0.0,-3.6465,-3.7832,-3.9687,-4.1465,-4.2519,-4.2676,-4.2637,-4.2734,-3.9922,-3.6641,-3.4238,-3.3242,-3.1582,-2.7812,-2.8066,0.0,0.0,0.0,-3.3926,-3.6406,-3.8594,-4.0234,-4.1113,-4.1191,-4.1191,-4.1191,-3.9609,-3.8437,-3.8047,-3.5586,-3.3379,-3.1699,-2.9687,-2.7519,0.0,0.0,0.0,0.0,0.0,0.0,0.0,0.0,0.0,0.0,0.0,0.0,0.0,0.0,0.0,0.0,0.0,0.0,0.0,0.0,0.0,0.0,0.0,0.0,0.0,0.0,0.0,0.0,-2.8378,-3.041,-2.9999,-3.2246,-3.2891,0.0,0.0,0.0,0.0,0.0,0.0,-3.8516,-3.9238,-4.0879,-4.3633,-4.457,-4.5957,-4.791,-4.8808,-4.9238,-4.9238,-4.9433,-4.9668,-4.9863,-4.9648,-4.9668,-4.9863,-4.9648,-4.9414,-4.9004,-4.5957,-4.3965,-4.2617,-4.0449,-4.0,-4.0566,-4.0566,-4.1113,-4.2109,-4.3789,-4.4375,-4.416,-4.291,-4.2051,-4.0898,-3.7656,0.0,0.0,0.0,0.0,-3.9004,-4.0742,-4.1699,-4.2715,-4.4824,-4.4844,-4.4531,-4.5195,-4.4141,-4.1992,-3.834,-3.7812,-3.6406,-3.1445,-3.2031,0.0,-3.0859,0.0,-3.6406,-3.8359,-3.9922,-4.1035,-4.1465,-4.1504,-4.1426,-4.1211,-3.9609,-3.8594,-3.8594,-3.6367,-3.4375,-3.2891,-3.1816,-2.9902,-2.709,0.0,0.0,0.0,0.0,0.0,0.0,0.0,0.0,0.0,0.0,0.0,0.0,0.0,0.0,0.0,0.0,0.0,0.0,0.0,0.0,0.0,0.0,0.0,0.0,0.0,0.0,0.0,0.0,0.0,-3.4276,-3.6699,0.0,0.0,0.0,0.0,-3.6973,-3.8652,-4.0371,-4.2051,-4.4492,-4.6308,-4.7305,-4.8183,-4.8691,-4.8828,-4.9707,-5.0137,-5.0137,-5.0918,-5.1719,-5.248,-5.1641,-5.1738,-5.2461,-5.1621,-5.084,-4.998,-4.8164,-4.7344,-4.7187,-4.6211,-4.5879,-4.5918,-4.5918,-4.6465,-4.7109,-4.6406,-4.6172,-4.6152,-4.6074,-4.4355,-4.2305,-4.207,-4.0898,0.0,0.0,-4.1484,-4.2539,-4.4297,-4.4785,-4.5058,-4.6016,-4.6191,-4.6172,-4.623,-4.5527,-4.4316,-4.2441,-4.082,-3.9141,-3.7187,0.0,-3.6055,-3.6738,-3.7734,-3.9316,-4.1816,-4.2949,-4.3203,-4.2422,-4.2344,-4.2031,-4.1269,-3.9609,-3.8594,-3.8594,-3.6914,-3.5527,-3.4609,-3.3008,-3.166,-3.0664,-2.6484,0.0,0.0,0.0,0.0,0.0,0.0,0.0,0.0,0.0,0.0,0.0,0.0,0.0,0.0,0.0,0.0,0.0,0.0,0.0,0.0,0.0,0.0,0.0,0.0,0.0,0.0,0.0,0.0,-3.6347,-3.9141,0.0,-3.7891,-3.9668,-4.1074,-4.1406,-4.3555,-4.5351,-4.6523,-4.7461,-4.8613,-5.0,-5.0351,-5.1055,-5.2168,-5.248,-5.2656,-5.2656,-5.2949,-5.3242,-5.3535,-5.3203,-5.3242,-5.3516,-5.3203,-5.291,-5.2598,-5.1973,-5.043,-4.8418,-4.8086,-4.7969,-4.7969,-4.7969,-4.8164,-4.8398,-4.8086,-4.7969,-4.7871,-4.7324,-4.6133,-4.4805,-4.4238,-4.3652,-4.3242,-4.3555,-4.4258,-4.5058,-4.5683,-4.584,-4.5918,-4.623,-4.6308,-4.6308,-4.6308,-4.6055,-4.5644,-4.5039,-4.3516,-4.1621,-3.9355,-3.9609,-3.9863,-3.9082,-4.0156,-4.1582,-4.3047,-4.3516,-4.3379,-4.248,-4.2402,-4.207,-4.1269,-3.9609,-3.8594,-3.8594,-3.6445,-3.4766,-3.3906,-3.2793,-3.1523,-3.0098,-2.7988,-2.5664,0.0,0.0,0.0,0.0,0.0,0.0,0.0,0.0,0.0,0.0,0.0,0.0,0.0,0.0,0.0,0.0,0.0,0.0,0.0,0.0,0.0,0.0,0.0,0.0,0.0,0.0,-3.8711,-3.8984,-4.2051,-4.3379,-4.1387,-4.3789,-4.5449,-4.5449,-4.7324,-4.8848,-4.9707,-5.0019,-5.082,-5.2226,-5.2285,-5.2832,-5.3984,-5.4004,-5.4004,-5.4004,-5.4004,-5.4141,-5.4433,-5.4121,-5.416,-5.4414,-5.4121,-5.4004,-5.4004,-5.4004,-5.2656,-5.0586,-5.0293,-5.0176,-5.0156,-4.9844,-4.9746,-4.9707,-4.9433,-4.9141,-4.8808,-4.8223,-4.7656,-4.707,-4.6484,-4.6328,-4.625,-4.5957,-4.6289,-4.668,-4.6387,-4.6308,-4.6308,-4.6308,-4.6308,-4.6308,-4.6308,-4.6308,-4.6308,-4.6308,-4.5371,-4.3945,-4.1953,-4.2539,-4.2891,-4.1797,-4.2578,-4.3594,-4.4473,-4.457,-4.4238,-4.3379,-4.3008,-4.25,-4.168,-3.9766,-3.8594,-3.8594,-3.6152,-3.4434,-3.3867,-3.25,-3.1211,-3.0059,-2.8613,-2.6602,-2.4023,0.0,0.0,0.0,0.0,0.0,0.0,0.0,0.0,0.0,0.0,0.0,0.0,0.0,0.0,0.0,0.0,0.0,0.0,0.0,0.0,0.0,0.0,0.0,-3.6132,-3.9121,-4.1621,-4.2422,-4.5547,-4.7305,-4.6465,-4.7969,-4.8984,-4.8984,-4.9805,-5.0664,-5.1445,-5.2285,-5.3144,-5.4004,-5.4043,-5.4043,-5.4082,-5.4082,-5.4082,-5.4082,-5.4082,-5.4512,-5.5312,-5.4473,-5.4531,-5.5293,-5.4453,-5.4082,-5.4082,-5.4082,-5.4082,-5.3984,-5.3086,-5.2734,-5.2637,-5.1797,-5.1465,-5.1328,-5.0527,-4.9687,-4.8965,-4.8945,-4.8945,-4.8945,-4.8906,-4.8906,-4.8711,-4.7871,-4.7637,-4.7441,-4.6562,-4.6348,-4.6328,-4.6308,-4.6308,-4.6308,-4.6308,-4.6308,-4.6308,-4.6308,-4.6308,-4.6035,-4.5195,-4.5039,-4.5039,-4.5039,-4.5039,0.0,-4.6191,-4.6308,-4.5976,-4.5098,-4.4238,-4.3379,-4.248,-4.0098,-3.8633,-3.8594,-3.6113,-3.4668,-3.4707,-3.2285,-3.0937,-3.0937,-2.8398,-2.6641,-2.5781,0.0,0.0,0.0,0.0,0.0,0.0,0.0,0.0,0.0,0.0,0.0,0.0,0.0,0.0,0.0,0.0,0.0,0.0,0.0,0.0,0.0,-3.6909,-3.949,-3.8905,-4.1797,-4.4277,-4.5137,-4.7187,-4.8457,-4.8203,-4.9726,-5.0703,-5.0703,-5.2109,-5.3047,-5.3262,-5.3516,-5.4043,-5.4922,-5.4941,-5.5254,-5.5879,-5.5898,-5.5898,-5.5898,-5.5898,-5.6015,-5.623,-5.5996,-5.6015,-5.623,-5.5996,-5.5898,-5.5898,-5.5898,-5.5898,-5.5742,-5.4238,-5.3633,-5.3613,-5.3379,-5.2891,-5.2226,-5.1367,-5.0918,-5.0625,-5.0039,-4.9844,-4.9726,-4.9082,-4.8906,-4.8848,-4.8613,-4.8535,-4.834,-4.7461,-4.7246,-4.707,-4.6445,-4.6308,-4.6308,-4.6308,-4.6308,-4.6308,-4.6308,-4.6308,-4.6211,-4.5976,-4.5937,-4.5937,-4.5937,-4.5937,-4.6035,-4.6269,-4.6308,-4.5976,-4.5098,-4.4785,-4.4023,-4.2539,-4.0644,-3.9277,-3.8633,-3.5547,-3.4043,-3.4668,-3.2851,-3.1836,-3.1836,-2.9902,-2.8457,0.0,0.0,0.0,0.0,0.0,0.0,0.0,0.0,0.0,0.0,0.0,0.0,0.0,0.0,0.0,0.0,0.0,0.0,0.0,0.0,0.0,0.0,-4.0381,-4.2826,-4.3082,-4.4843,-4.6543,-4.7793,-4.9121,-5.0098,-5.0469,-5.1699,-5.248,-5.248,-5.3437,-5.416,-5.4531,-5.4531,-5.4941,-5.582,-5.584,-5.6094,-5.6601,-5.6601,-5.6601,-5.6601,-5.6601,-5.6601,-5.6601,-5.6601,-5.6601,-5.6601,-5.6601,-5.6601,-5.6601,-5.6601,-5.6601,-5.6465,0.0,0.0,0.0,0.0,-5.3672,-5.3125,-5.2246,-5.1933,-5.1816,-5.0976,-5.0703,-5.0605,-5.0098,-4.9941,-4.9883,-4.9531,-4.9433,-4.9238,-4.8379,-4.7871,-4.7461,-4.6973,-4.6562,-4.6308,-4.6308,-4.6308,-4.6308,-4.6308,-4.6308,0.0,-4.6308,-4.6308,-4.6308,-4.6308,-4.6308,-4.6308,-4.6308,-4.6308,-4.6113,-4.5605,-4.5215,-4.4433,-4.3066,-4.1406,0.0,0.0,0.0,-3.4238,-3.3672,-3.2715,0.0,0.0,0.0,0.0,0.0,-2.9922,0.0,0.0,-2.7773,-2.7441,0.0,0.0,0.0,0.0,0.0,0.0,0.0,0.0,0.0,0.0,0.0,0.0,0.0,0.0,0.0,0.0,-4.3594,-4.5905,-4.7649,-4.7889,-4.8476,-5.0019,-5.0996,-5.1855,-5.2617,-5.3574,-5.4141,-5.4141,-5.4238,-5.4629,-5.541,-5.5547,0.0,0.0,0.0,-5.6894,-5.6894,-5.6894,-5.6894,-5.6894,-5.6894,-5.6894,-5.6894,-5.6894,-5.6836,-5.6758,-5.6758,-5.6699,-5.6601,-5.6601,-5.6601,-5.6523,-5.5742,-5.5449,-5.5332,-5.4473,-5.4141,-5.4023,-5.3144,0.0,0.0,-5.1836,-5.1543,-5.1523,-5.1426,-5.1406,-5.125,-5.0547,-5.0332,-5.0137,-4.9277,-4.8476,-4.7832,-4.7656,-4.7012,-4.6426,-4.6328,-4.6308,-4.6308,-4.6308,-4.6308,-4.6308,-4.6308,-4.6308,-4.6308,-4.6308,-4.6308,-4.6308,-4.6308,-4.6308,-4.6308,-4.6308,-4.5605,0.0,-4.3926,-4.2305,-4.0976,-4.0098,-3.7695,-3.5234,-3.2871,-3.2871,-3.2871,-3.2773,-3.2773,-3.3086,-3.3691,-3.3789,-3.4238,-3.4922,-3.168,-3.1055,0.0,0.0,0.0,0.0,0.0,0.0,0.0,0.0,0.0,0.0,0.0,0.0,0.0,0.0,0.0,-4.2866,-4.5389,-4.768,-4.9386,-4.9665,-4.9824,-5.0156,-5.1523,-5.2519,-5.2676,-5.4121,-5.5058,-5.5058,-5.5703,-5.6172,-5.6348,-5.7012,-5.7461,-5.7637,-5.832,-5.8691,-5.8691,-5.8691,-5.8691,-5.8691,-5.8691,0.0,-5.8691,-5.8691,-5.8301,-5.7656,-5.7656,-5.7246,-5.6601,-5.6601,-5.6601,-5.6582,-5.6406,-5.6348,-5.623,-5.5371,-5.5058,-5.4922,-5.4043,-5.375,-5.3594,-5.2734,-5.2441,-5.2324,-5.1601,-5.1406,0.0,-5.1211,-5.1172,-5.0976,-5.0156,-4.9824,-4.9336,-4.793,-4.7461,-4.7168,-4.6445,-4.6308,-4.6308,-4.6308,-4.6308,-4.6308,-4.6308,-4.6308,-4.6308,-4.6308,-4.6308,-4.6308,-4.6308,-4.6308,-4.6308,-4.6308,-4.6152,-4.5703,-4.4824,-4.3164,-4.1816,-4.0996,-3.9141,-3.7559,-3.6367,-3.6992,-3.7031,-3.6328,-3.6309,-3.6035,-3.5508,-3.6191,-3.6621,-3.6758,-3.4687,-3.4277,0.0,0.0,0.0,0.0,0.0,0.0,0.0,0.0,0.0,0.0,0.0,-3.7303,-3.9468,0.0,-4.3743,-4.589,-4.7709,-4.914,-4.9971,-5.0873,-5.1443,-5.1445,-5.2578,-5.3516,-5.3965,-5.5176,-5.5957,-5.5957,-5.6758,-5.7246,-5.7246,-5.8086,-5.8555,-5.8555,-5.8965,-5.9199,-5.9199,-5.9199,-5.9199,-5.9199,-5.9199,-5.9199,-5.9199,-5.9199,-5.8965,-5.8555,-5.8555,-5.8301,-5.7871,-5.7422,-5.6992,-5.6601,-5.6601,-5.6601,-5.6543,-5.6113,-5.5957,-5.582,-5.4941,-5.4648,-5.4512,-5.3633,-5.3066,-5.2617,-5.2187,-5.1758,-5.1406,-5.1406,-5.1406,-5.1308,-5.0898,-5.0508,-4.9863,-4.8555,-4.793,-4.7363,-4.6484,-4.6308,-4.6308,-4.6308,-4.6308,-4.6308,-4.6308,-4.6308,-4.6308,-4.6308,-4.6308,-4.6308,-4.6308,-4.6308,-4.6308,-4.6308,-4.6308,-4.5957,-4.5078,-4.3808,-4.2519,-4.1289,-4.0371,-3.9316,-3.8008,-3.8379,-3.8398,-3.7969,-3.7949,-3.7734,-3.7305,-3.7734,-3.8164,-3.8574,-3.7715,-3.7305,0.0,0.0,0.0,0.0,0.0,0.0,0.0,0.0,-3.5362,-3.8214,-3.9488,-4.0992,-4.3918,-4.5168,-4.6475,-4.8681,-4.9776,-5.0406,-5.0576,-5.1966,-5.3024,-5.3183,-5.3828,-5.4531,-5.5234,-5.6094,-5.668,-5.6836,-5.75,-5.7969,-5.8144,-5.8965,-5.9433,-5.9433,-5.9609,-5.9687,-5.9687,-5.9687,-5.9687,-5.9687,-5.9687,-5.9687,-5.9687,-5.9687,-5.959,-5.9414,-5.9277,-5.9199,-5.914,-5.8437,-5.7637,-5.6855,-5.6855,-5.6758,-5.6601,-5.6601,-5.6601,-5.6504,-5.5801,-5.5547,-5.541,-5.4531,-5.3789,-5.3144,-5.2793,-5.2207,-5.1621,-5.1445,-5.1406,-5.1406,-5.1406,-5.0918,-5.0215,-4.9355,-4.8496,-4.7617,-4.6738,-4.6426,-4.6308,-4.6308,-4.6308,-4.6308,-4.6308,-4.6308,-4.6308,-4.6308,-4.6308,-4.6308,-4.6308,-4.6308,-4.6308,-4.6308,-4.6308,-4.5957,-4.5078,-4.4355,-4.3301,-4.1777,-4.1699,-4.1055,-3.9648,-3.9434,-3.9336,-3.9336,-3.918,-3.9101,-3.9101,-3.9101,-3.9473,-4.0156,-4.0156,-3.9785,-3.1031,-3.2063,-3.3425,-3.5054,-3.4915,-3.5812,0.0,0.0,-4.0031,-4.3448,-4.4836,-4.5792,-4.6944,-4.7822,-4.872,-4.9772,-5.0699,-5.1528,-5.2296,-5.3238,-5.4139,-5.4922,-5.5098,-5.5195,-5.5293,-5.6094,-5.6914,-5.7695,-5.7832,-5.8242,-5.9004,-5.9824,-6.0273,-6.0273,-6.1015,-6.1426,-6.1426,-6.1426,-6.1426,-6.1426,-6.1426,-6.1426,-6.1426,-6.1426,-6.0996,-6.0234,-5.9512,-5.9199,-5.9199,-5.9082,-5.8535,-5.7754,-5.7754,-5.7285,-5.6601,-5.6601,-5.6601,-5.6582,-5.6484,-5.6445,-5.6308,-5.5449,-5.5098,-5.4726,-5.3164,-5.2637,-5.2383,-5.1621,-5.1406,-5.1406,-5.1406,-5.1328,-5.1055,-5.0254,-4.9394,-4.8516,-4.7637,-4.6855,-4.6308,-4.6308,-4.6308,-4.6308,-4.6308,-4.6308,-4.6308,-4.6308,-4.6308,-4.6308,-4.6308,-4.6308,-4.6308,-4.6308,-4.6308,-4.5957,-4.5078,-4.4902,-4.4433,-4.3476,-4.3418,-4.332,-4.3144,-4.2383,-4.1973,-4.1973,-4.1269,-4.0918,-4.0918,-4.0918,-4.0957,-4.1055,-4.1055,-4.0996,-3.578,-3.6226,0.0,0.0,-3.9052,-4.0112,-4.3645,-4.3606,-4.3665,-4.6612,-4.749,-4.8017,-4.8894,-4.9323,-5.0008,0.0,-5.1925,-5.2461,-5.3331,-5.3764,-5.4138,-5.4492,-5.498,-5.5508,-5.6015,-5.6387,-5.6953,-5.7832,-5.8379,-5.9023,-5.9844,-6.0703,-6.1152,-6.1152,-6.1504,-6.1699,-6.1699,-6.1699,-6.1699,-6.1699,-6.1699,-6.1699,-6.1699,-6.1699,-6.1504,-6.1133,-6.0801,-6.0371,-5.9902,-5.9902,-5.9414,-5.8613,-5.8105,-5.7676,-5.7305,-5.6797,-5.6601,-5.6601,-5.6601,-5.6601,-5.6543,-5.6172,-5.5703,-5.5156,-5.4433,-5.3496,-5.2617,-5.2266,-5.1797,-5.1406,-5.1406,-5.1406,-5.1191,-5.0391,-4.9922,-4.9414,-4.8535,-4.7676,-4.7051,-4.7051,-4.6641,-4.6308,-4.6308,-4.6308,-4.6308,-4.6308,-4.6308,-4.6308,-4.6308,-4.6308,-4.6308,-4.6308,-4.6308,-4.6152,-4.5781,-4.5762,-4.5371,-4.4512,-4.4453,-4.4238,-4.3711,-4.3359,-4.3164,-4.3164,-4.2832,-4.2656,-4.2656,-4.2656,-4.2656,-4.2656,-4.2656,-4.2656,-3.8103,0.0,0.0,-4.1347,-4.265,-4.3938,-4.5656,-4.6046,-4.6632,-4.874,-4.9169,-4.9423,-5.0299,-5.0455,-5.0945,-5.247,-5.2901,-5.3357,-5.4246,-5.4368,-5.4351,-5.4355,-5.4707,-5.5273,-5.6152,-5.6465,-5.7051,-5.8164,-5.8848,-5.9668,-6.0703,-6.1367,-6.1699,-6.1699,-6.1699,-6.1699,-6.1699,-6.1699,-6.1699,-6.1699,-6.1699,-6.1699,-6.1699,-6.1699,-6.1699,-6.1699,-6.1699,-6.1348,-6.0762,-6.0762,-6.0273,-5.9473,-5.8848,-5.8301,-5.7812,-5.7187,-5.6816,-5.6601,-5.6601,-5.6601,-5.6601,-5.6601,-5.6172,-5.5605,-5.5371,-5.4414,-5.332,-5.2832,-5.2246,-5.1699,-5.1465,-5.1406,-5.125,-5.0664,-5.0351,-5.0039,-4.9394,-4.8574,-4.7891,-4.7656,-4.709,-4.6582,-4.6348,-4.6308,-4.6308,-4.6308,-4.6308,-4.6308,-4.6308,-4.6308,-4.6308,-4.6308,-4.6308,-4.6308,-4.6308,-4.6308,-4.6035,-4.5391,-4.5351,-4.5078,-4.4433,-4.4199,-4.4062,-4.4062,-4.3828,-4.3691,-4.3691,-4.3691,-4.3691,-4.3691,-4.3691,-4.3828,0.0,0.0,-4.1264,-4.314,-4.4914,-4.6612,-4.8291,-4.8681,-4.8954,-4.987,-5.0065,-5.0338,-5.1199,-5.1355,-5.1648,-5.2548,-5.3414,-5.4259,-5.5139,-5.5266,-5.5252,-5.5252,-5.4531,-5.4375,0.0,-5.6094,-5.7305,-5.9023,-5.9199,-5.9922,-6.1562,-6.1699,-6.1699,-6.1699,-6.1699,-6.1699,-6.1699,-6.1699,-6.1699,-6.1699,-6.1699,-6.1699,-6.1699,-6.1699,-6.1699,-6.1699,-6.1699,-6.168,-6.166,-6.166,-6.1152,-6.0351,-6.0332,-5.9336,-5.789,-5.7871,-5.7324,-5.6601,-5.6601,-5.6601,-5.6601,-5.6601,-5.6582,-5.6406,-5.5566,-5.5254,-5.4863,-5.3183,-5.2676,-5.2461,-5.1621,-5.1406,-5.1387,-5.1367,-5.0762,-5.0195,-5.0176,-4.9473,-4.8613,-4.7754,-4.7578,-4.7285,-4.6445,-4.6308,-4.6308,-4.6308,-4.6308,-4.6308,-4.6308,-4.6308,-4.6308,-4.6308,-4.6308,-4.6308,-4.6308,-4.6308,-4.6289,-4.6269,-4.6269,-4.625,-4.6211,-4.541,-4.4961,-4.4961,-4.4121,-4.3691,-4.3691,-4.3691,-4.3691,-4.3691,-4.3691,-4.4141,0.0,0.0,-4.3981,-4.5839,-4.7139,-4.8252,-4.9403,-4.9655,-4.9753,-5.0046,-5.0104,-5.0007,-4.9735,-5.0145,-5.1004,-5.247,-5.3428,-5.4506,-5.5957,-5.5669,-5.5302,-5.5306,-5.5036,0.0,0.0,0.0,0.0,-5.9023,-5.9199,-5.9922,-6.1601,-6.1699,-6.1699,-6.1699,-6.1699,-6.1699,-6.1699,-6.1699,-6.1699,-6.1699,-6.1699,-6.1699,-6.1699,-6.1699,-6.1699,-6.1699,-6.1699,-6.1699,-6.1699,-6.1699,-6.1523,-6.1211,-6.0625,-6.0058,-5.9492,-5.8965,-5.8203,-5.7383,-5.6797,-5.6601,-5.6601,-5.6601,-5.6601,-5.6543,-5.625,-5.5762,-5.5176,-5.459,-5.3594,-5.2637,-5.2344,-5.1836,-5.1406,-5.1406,-5.1191,-5.0996,-5.0996,-5.0351,-4.9492,-4.8633,-4.8008,-4.7324,-4.6445,-4.6308,-4.6308,-4.6308,-4.6308,-4.6308,-4.6308,-4.6308,-4.6308,-4.6308,-4.6308,-4.6308,-4.6308,-4.6308,-4.6308,-4.6308,-4.6308,-4.6308,-4.6308,-4.6016,-4.5859,-4.5859,-4.5566,-4.543,-4.543,-4.543,-4.543,-4.543,-4.543,-4.5586,-4.3145,-4.4619,-4.5841,-4.7969,-4.8874,-4.9481,-5.0377,-5.0319,-5.0104,-5.0104,-4.9616,-4.9128,-4.8857,-4.9013,-4.9969,-5.2314,-5.3171,-5.4344,-5.6694,-5.6032,-5.5528,-5.6119,-5.5656,-5.5543,0.0,0.0,0.0,-5.9043,-5.9473,-6.0234,-6.1621,-6.1699,-6.1699,-6.1699,-6.1699,-6.1699,-6.1699,-6.1699,-6.1699,-6.1699,-6.1699,-6.1699,-6.1699,-6.1699,-6.1699,-6.1699,-6.1699,-6.1699,-6.1699,-6.1699,-6.1699,-6.164,-6.1074,-6.0664,-6.0332,-5.9824,-5.8906,-5.7812,-5.7265,-5.6855,-5.6601,-5.6601,-5.6601,-5.6601,-5.6601,-5.6211,-5.5703,-5.539,-5.4277,-5.3086,-5.2773,-5.2051,-5.1406,-5.1406,-5.1406,-5.1406,-5.1406,-5.0996,-5.0371,-4.9531,-4.8652,-4.7793,-4.6914,-4.6504,-4.6308,-4.6308,-4.6308,-4.6308,-4.6308,-4.6308,-4.6308,-4.6308,-4.6308,-4.6308,-4.6308,-4.6308,-4.6308,-4.6308,-4.6308,-4.6308,-4.6308,-4.6308,-4.6308,-4.6308,-4.6308,-4.6308,-4.6308,-4.6308,-4.6308,-4.6308,-4.6308,-4.6308,-4.4506,-4.5654,-4.6936,-4.951,-5.0163,-5.0377,-5.116,-5.069,-5.0065,-4.9928,-4.864,-4.7723,0.0,0.0,-4.8623,-5.1962,-5.2607,-5.3895,-5.7328,-5.6438,-5.6034,0.0,0.0,0.0,0.0,0.0,0.0,-5.9199,0.0,-6.0781,-6.164,-6.1699,-6.1699,-6.1699,-6.1699,-6.1699,-6.1699,-6.1699,-6.1699,-6.1699,-6.1699,-6.1699,-6.1699,-6.1699,-6.1699,-6.1699,-6.1699,-6.1699,-6.1699,-6.1699,-6.1699,-6.1699,-6.1699,-6.1191,-6.0469,-6.0469,-5.9433,-5.8027,-5.7988,-5.7363,-5.6601,-5.6601,-5.6601,-5.6601,-5.6601,-5.6601,-5.6426,-5.5605,-5.4746,-5.3867,-5.2988,-5.2129,-5.1465,-5.1406,-5.1406,-5.1406,-5.1406,-5.1406,-5.1152,-5.0351,-4.9453,-4.8574,-4.7734,-4.6875,-4.6308,-4.6308,-4.6308,-4.6308,-4.6308,-4.6308,-4.6308,-4.6308,-4.6308,-4.6308,-4.6308,-4.6308,-4.6308,-4.6308,-4.6308,-4.6308,-4.6308,-4.6308,-4.6308,-4.6308,-4.6308,-4.6308,-4.6308,-4.6308,-4.6308,-4.6308,-4.6308,-4.6308,-4.6266,-4.79,-4.9391,-5.0748,-5.1063,-5.0965,-5.0534,-5.026,-4.9558,-4.7666,-4.6924,-4.6105,0.0,0.0,0.0,-4.9442,-5.1435,0.0,-5.7328,-5.7428,0.0,-5.8638,0.0,-5.8303,-5.8754,-5.9384,0.0,0.0,-6.0273,-6.0781,-6.164,-6.1699,-6.1699,-6.1699,-6.1699,-6.1699,-6.1699,-6.1699,-6.1699,-6.1699,-6.1699,-6.1699,-6.1699,-6.1699,-6.1699,-6.1699,-6.1699,-6.1699,-6.1699,-6.1699,-6.1699,-6.1699,-6.1699,-6.1562,-6.1367,-6.1367,-6.0683,-5.9687,-5.9082,-5.7871,-5.6601,-5.6601,-5.6601,-5.6601,-5.6601,-5.6601,-5.6543,-5.6328,-5.5644,-5.4765,-5.3887,-5.3027,-5.2207,-5.1543,-5.1406,-5.1406,-5.1406,-5.1406,-5.1152,-5.0351,-4.8965,-4.7851,-4.7637,-4.6875,-4.6308,-4.6308,-4.6308,-4.6308,-4.6308,-4.6308,-4.6308,-4.6308,-4.6308,-4.6308,-4.6308,-4.6308,-4.6308,-4.6308,-4.6308,-4.6308,-4.6308,-4.6308,-4.6308,-4.6308,-4.6308,-4.6308,-4.6308,-4.6308,-4.6308,-4.6308,-4.6308,-4.6308,-4.8068,-4.9564,-5.0703,-5.1252,-5.1102,-5.0594,-4.9735,-4.8903,-4.7738,-4.5555,-4.4519,0.0,0.0,0.0,0.0,0.0,0.0,0.0,-5.727,-5.7797,-5.8402,0.0,-5.9909,0.0,-6.0192,-6.0686,-6.0965,0.0,-6.0975,-6.1172,-6.168,-6.1699,-6.1699,-6.1699,-6.1699,-6.1699,-6.1699,-6.1699,-6.1699,-6.1699,-6.1699,-6.1699,-6.1699,-6.1699,-6.1699,-6.1699,-6.1699,-6.1699,-6.1699,-6.1699,-6.1699,-6.1699,-6.1699,-6.1699,-6.1699,-6.1699,-6.1152,-6.0332,-5.9883,-5.8594,-5.7109,-5.6719,-5.6601,-5.6601,-5.6601,-5.6601,-5.6601,-5.6601,-5.5976,-5.5195,-5.4707,-5.3633,-5.2578,-5.209,-5.168,-5.1406,-5.1406,-5.1406,-5.1152,-5.0351,-4.9414,-4.8496,-4.7734,-4.7187,-4.6738,-4.6367,-4.6308,-4.6308,-4.6308,-4.6308,-4.6308,-4.6308,-4.6308,-4.6308,-4.6308,-4.6308,-4.6308,-4.6308,-4.6308,-4.6308,-4.6308,-4.6308,-4.6308,-4.6308,-4.6308,-4.6308,-4.6308,-4.6308,-4.6308,-4.6308,-4.6308,-4.6308,-4.9712,-5.0768,-5.1378,-5.1497,-5.0872,-4.9957,-4.884,-4.7215,-4.5391,-4.3475,0.0,-4.0714,-4.0379,-4.1352,-4.3328,-4.6708,0.0,-5.2624,-5.7153,-5.7797,-5.8773,-6.1386,-6.1037,-6.0866,-6.1637,-6.1696,-6.1699,-6.1707,-6.1693,-6.1697,-6.1699,-6.1699,-6.1699,-6.1699,-6.1699,-6.1699,-6.1699,-6.1699,-6.1699,-6.1699,-6.1699,-6.1699,-6.1699,-6.1699,-6.1699,-6.1699,-6.1699,-6.1699,-6.1699,-6.1699,-6.1699,-6.1699,-6.1699,-6.1699,-6.1699,-6.1699,-6.1211,-6.0566,-6.0449,-5.9375,-5.793,-5.7051,-5.6699,-5.6601,-5.6601,-5.6601,-5.6601,-5.6601,-5.6055,-5.5449,-5.5332,-5.418,-5.2988,-5.2754,-5.2129,-5.1543,-5.1426,-5.1406,-5.1191,-5.0488,-5.0273,-4.9726,-4.8203,-4.7754,-4.7344,-4.6582,-4.6367,-4.6308,-4.6308,-4.6308,-4.6308,-4.6308,-4.6308,-4.6308,-4.6308,-4.6308,-4.6308,-4.6308,-4.6308,-4.6308,-4.6308,-4.6308,-4.6308,-4.6308,-4.6308,-4.6308,-4.6308,-4.6308,-4.6308,-4.6308,-4.6308,-4.6308,-5.0534,-5.145,-5.2105,-5.2142,-5.157,-5.0396,-4.802,-4.6251,0.0,0.0,0.0,-3.9225,-3.7161,-3.9221,0.0,-4.4987,0.0,0.0,0.0,0.0,-5.8773,0.0,0.0,0.0,0.0,0.0,0.0,0.0,-6.1701,-6.1708,-6.1697,-6.1698,-6.1698,-6.1699,-6.1699,-6.1699,-6.1699,-6.1699,-6.1699,-6.1699,-6.1699,-6.1699,-6.1699,-6.1699,-6.1699,-6.1699,-6.1699,-6.1699,-6.1699,-6.1699,-6.1699,-6.1699,-6.1699,-6.1699,-6.1699,-6.1699,-6.1601,-6.1367,-6.0644,-5.9765,-5.8828,-5.7969,-5.7187,-5.6601,-5.6601,-5.6601,-5.6601,-5.6601,-5.6484,-5.6211,-5.5488,-5.5078,-5.4492,-5.3047,-5.2578,-5.2285,-5.1562,-5.1406,-5.1367,-5.1211,-5.0644,-5.0098,-4.9805,-4.8555,-4.7558,-4.7402,-4.6758,-4.6308,-4.6308,-4.6308,-4.6308,-4.6308,-4.6308,-4.6308,-4.6308,-4.6308,-4.6308,-4.6308,-4.6308,-4.6308,-4.6308,-4.6308,-4.6308,-4.6308,-4.6308,-4.6308,-4.6308,-4.6308,-4.6308,-4.6308,-4.6308,-4.6308,-5.116,-5.1936,-5.2205,-5.2279,-5.1392,-4.9668,-4.6595,0.0,0.0,0.0,0.0,-3.7017,-3.5371,0.0,0.0,0.0,0.0,0.0,0.0,0.0,0.0,0.0,0.0,0.0,0.0,0.0,0.0,-6.1707,-6.1709,-6.1697,-6.1693,-6.1696,-6.1698,-6.1699,-6.1699,-6.1699,-6.1699,-6.1699,-6.1699,-6.1699,-6.1699,-6.1699,-6.1699,-6.1699,-6.1699,-6.1699,-6.1699,-6.1699,-6.1699,-6.1699,-6.1699,-6.1699,-6.1699,-6.1699,-6.1699,-6.1699,-6.1699,-6.164,-6.1211,-6.0254,-5.9121,-5.8711,-5.7676,-5.6601,-5.6601,-5.6601,-5.6601,-5.6601,-5.6601,-5.6504,-5.6094,-5.5644,-5.4961,-5.3672,-5.2676,-5.1914,-5.1484,-5.1406,-5.1406,-5.1406,-5.1094,-5.0683,-5.0273,-4.9512,-4.8808,-4.834,-4.7539,-4.6973,-4.6973,-4.6582,-4.6308,-4.6308,-4.6308,-4.6308,-4.6308,-4.6308,-4.6308,-4.6308,-4.6308,-4.6308,-4.6308,-4.6308,-4.6308,-4.6308,-4.6308,-4.6308,-4.6308,-4.6308,-4.6308,-4.6308,-4.6308,-4.6308,-5.1509,-5.228,-5.2362,-5.2468,-5.1244,-4.9071,-4.545,-4.2437,0.0,0.0,-3.5289,-3.5038,-3.4195,0.0,0.0,0.0,0.0,0.0,0.0,0.0,0.0,0.0,0.0,0.0,0.0,0.0,0.0,-6.1698,-6.1698,-6.1709,-6.1707,-6.1695,-6.1698,-6.1699,-6.1699,-6.1699,-6.1699,-6.1699,-6.1699,-6.1699,-6.1699,-6.1699,-6.1699,-6.1699,-6.1699,-6.1699,-6.1699,-6.1699,-6.1699,-6.1699,-6.1699,-6.1699,-6.1699,-6.1699,-6.1699,-6.1699,-6.1699,-6.1699,-6.1699,-6.0605,-5.9199,-5.9199,-5.8027,-5.6601,-5.6601,-5.6601,-5.6601,-5.6601,-5.6601,-5.6601,-5.6601,-5.6094,-5.5312,-5.4258,-5.2812,-5.1621,-5.1445,-5.1406,-5.1406,-5.1406,-5.1406,-5.1191,-5.0566,-5.0312,-4.9961,-4.9277,-4.8437,-4.7871,-4.7871,-4.7129,-4.6582,-4.6582,-4.6406,-4.6308,-4.6308,-4.6308,-4.6308,-4.6308,-4.6308,-4.6308,-4.6308,-4.6308,-4.6308,-4.6308,-4.6308,-4.6308,-4.6308,-4.6308,-4.6308,-4.6308,-4.6308,-4.6308,-5.1453,-5.2512,-5.3098,-5.3118,-5.1891,-4.9598,-4.5313,0.0,0.0,-3.5046,-3.4321,-3.4108,-3.3353,-3.5305,0.0,0.0,0.0,0.0,0.0,0.0,0.0,0.0,0.0,0.0,0.0,0.0,0.0,-6.1698,-6.1698,-6.1705,-6.1699,-6.1693,-6.1697,-6.1697,-6.1697,-6.1698,-6.1699,-6.1698,-6.1698,-6.1699,-6.1699,-6.1699,-6.1699,-6.1699,-6.1699,-6.1699,-6.1699,-6.1699,-6.1699,-6.1699,-6.1699,-6.1699,-6.1699,-6.1699,-6.1699,-6.1699,-6.1699,-6.1699,-6.1699,-6.0605,-5.9199,-5.9198,-5.8027,-5.6601,-5.6601,-5.6601,-5.6601,-5.6601,-5.6601,-5.6601,-5.6601,-5.6543,-5.6055,-5.4394,-5.3262,-5.2363,-5.1562,-5.1406,-5.1406,-5.1406,-5.1406,-5.1387,-5.1308,-5.0683,-5.0176,-5.0098,-4.9336,-4.8789,-4.8789,-4.8027,-4.748,-4.748,-4.6777,-4.6308,-4.6308,-4.6308,-4.6308,-4.6308,-4.6308,-4.6308,-4.6308,-4.6308,-4.6308,-4.6308,-4.6308,-4.6308,-4.6308,-4.6308,-4.6308,-4.6308,-4.6308,-4.6308,-5.0587,-5.1779,-5.2423,-5.2423,-5.1183,-4.8831,-4.4545,0.0,-3.8368,-3.4911,-3.4205,-3.4103,-3.3812,-3.502,-3.6908,0.0,0.0,0.0,0.0,0.0,0.0,0.0,0.0,0.0,0.0,0.0,-6.1698,-6.1698,-6.1698,-6.1701,-6.1707,-6.1701,-6.1709,-6.1693,-6.1693,-6.1694,-6.1695,-6.1694,-6.1694,-6.1695,-6.1695,-6.1695,-6.1695,-6.1695,-6.1697,-6.1698,-6.1697,-6.1697,-6.1698,-6.1697,-6.1695,-6.1695,-6.1695,-6.1695,-6.1695,-6.1695,-6.1695,-6.1695,-6.1695,-6.0914,-5.984,-5.9311,-5.8336,-5.7282,-5.6756,-5.6601,-5.6601,-5.6601,-5.6601,-5.6601,-5.6601,-5.6211,-5.5508,-5.4297,-5.332,-5.2461,-5.1581,-5.1406,-5.1406,-5.1406,-5.1406,-5.1406,-5.1406,-5.1132,-5.0915,-5.0917,-5.0174,-4.9626,-4.9626,-4.8903,-4.8376,-4.8376,-4.7128,-4.6308,-4.6308,-4.6308,-4.6308,-4.6308,-4.6308,-4.6308,-4.6308,-4.6308,-4.6308,-4.6308,-4.6308,-4.6308,-4.6308,-4.6308,-4.6308,-4.6308,-4.6308,-4.6307,-4.924,-5.0721,-5.1491,-5.1212,-5.0279,-4.8221,0.0,0.0,-3.8342,-3.4898,-3.4205,-3.4205,-3.4205,-3.4911,-3.6279,0.0,0.0,0.0,0.0,0.0,0.0,0.0,0.0,0.0,0.0,-6.1249,-6.1698,-6.1698,-6.1698,-6.1698,-6.1698,-6.1707,-6.1697,-6.1705,-6.1705,-6.1707,-6.1709,-6.1707,-6.1707,-6.1709,-6.1709,-6.1709,-6.1709,-6.1709,-6.1692,-6.1695,-6.1691,-6.1692,-6.1695,-6.1691,-6.1709,-6.1709,-6.1709,-6.1709,-6.1709,-6.1709,-6.1709,-6.1709,-6.1709,-6.0967,-5.9911,-5.9306,-5.8388,-5.7393,-5.679,-5.6599,-5.6601,-5.6601,-5.6601,-5.6601,-5.6601,-5.6132,-5.5468,-5.4589,-5.373,-5.285,-5.197,-5.158,-5.1405,-5.1404,-5.1403,-5.1404,-5.1405,-5.1402,-5.1399,-5.1403,-5.0874,-5.048,-5.048,-4.9757,-4.9249,-4.9249,-4.7946,-4.6952,-4.6718,-4.6679,-4.6562,-4.6327,-4.6308,-4.6308,-4.6308,-4.6308,-4.6308,-4.6308,-4.6308,-4.6308,-4.6308,-4.6308,-4.6307,-4.6306,-4.6306,-4.6304,-4.7432,-4.9394,-5.0519,-4.9644,-4.9413,-4.8067,0.0,-4.0508,-3.8342,-3.4898,-3.4205,-3.4205,-3.4205,-3.4911,-3.6038,-3.7738,0.0,0.0,0.0,0.0,0.0,0.0,0.0,0.0,0.0,-6.0178,-6.1698,-6.1698,-6.1698,0.0,-6.1698,-6.1698,-6.1705,-6.1697,-6.1697,-6.1702,-6.1709,-6.1702,-6.1702,-6.1709,-6.1709,-6.1709,-6.1709,-6.1709,-6.1709,-6.1709,-6.1709,-6.1709,-6.1709,-6.1709,-6.1709,-6.1709,-6.1709,-6.1709,-6.1709,-6.1709,-6.1709,-6.1709,-6.1709,-6.0557,-5.9112,-5.9104,-5.7974,-5.6611,-5.6603,-5.6607,-5.6593,-5.6593,-5.6593,-5.6593,-5.6593,-5.6593,-5.6378,-5.5499,-5.462,-5.3743,-5.2863,-5.2004,-5.1398,-5.1398,-5.1398,-5.1398,-5.1398,-5.1398,-5.1398,-5.1398,-5.1398,-5.1398,-5.1398,-5.0637,-5.009,-5.009,-4.9366,-4.8527,-4.7667,-4.7589,-4.7218,-4.634,-4.6301,-4.6304,-4.6307,-4.6307,-4.6307,-4.6307,-4.6307,-4.6306,-4.6301,-4.6301,-4.6301,-4.6301,-4.6301,-4.6299,-4.3412,-4.5028,-4.6124,-4.5297,-4.5086,-4.422,-4.0854,-3.9681,-3.8488,-3.568,-3.5084,-3.5084,-3.5084,-3.5308,-3.6423,-3.9238,-3.9964,0.0,0.0,0.0,0.0,0.0,0.0,0.0,0.0,0.0,-6.1698,-6.1698,-6.1698,-6.1698,-6.1698,-6.1698,-6.1701,-6.1705,-6.1705,-6.1707,-6.169,-6.1707,-6.1707,-6.169,-6.169,-6.169,-6.169,-6.169,-6.1696,-6.1701,-6.1694,-6.1696,-6.1701,-6.1694,-6.169,-6.169,-6.169,-6.169,-6.169,-6.169,-6.169,-6.169,-6.169,-6.095,-5.9896,-5.9287,-5.8332,-5.7319,-5.6768,-5.6603,-5.6593,-5.6593,-5.6593,-5.6593,-5.6593,-5.6593,-5.6378,-5.5518,-5.462,-5.3761,-5.2896,-5.202,-5.1397,-5.1394,-5.1393,-5.1394,-5.1397,-5.1391,-5.1405,-5.1391,-5.1408,-5.1403,-5.1403,-5.1169,-5.0993,-5.0993,-5.0759,-5.002,-4.8604,-4.8488,-4.837,-4.8097,-4.8078,-4.8078,-4.808,-4.7494,-4.7182,-4.7182,-4.6596,-4.6303,-4.6301,-4.6301,-4.63,-4.6296,-4.6291,-4.6306,0.0,-4.2085,-4.3162,-4.2335,-4.2374,-4.195,-3.9392,-3.8815,-3.818,-3.5962,-3.55,-3.55,-3.55,-3.55,-3.6385,-3.9104,-3.9823,0.0,0.0,0.0,0.0,0.0,0.0,0.0,0.0,-6.1308,-6.1698,-6.1698,-6.1698,-6.1698,-6.1698,-6.1698,-6.1698,-6.1698,-6.1698,-6.1698,-6.1698,-6.1698,-6.1698,-6.1698,-6.1698,-6.1698,-6.1698,-6.1698,-6.1703,-6.1692,-6.1703,-6.1703,0.0,-6.1703,-6.1698,-6.1698,-6.1698,-6.1698,-6.1698,-6.1698,-6.1698,-6.164,-6.133,-6.0646,-5.9768,-5.889,-5.8031,-5.725,-5.6743,-5.6595,-5.6605,-5.6605,-5.6605,-5.6605,-5.6605,-5.6605,-5.6468,-5.592,-5.5121,-5.4241,-5.3375,-5.25,-5.178,-5.1464,-5.1403,-5.1405,-5.139,-5.1402,-5.1396,-5.1403,-5.1398,-5.1394,-5.1394,-5.1394,-5.1394,-5.1394,-5.1394,-5.0988,-4.9926,-4.9535,-4.9203,-4.8871,-4.8852,-4.8853,-4.8855,-4.8348,-4.8055,-4.8055,-4.7529,-4.7235,-4.7232,-4.6939,-4.6956,-4.7245,-4.6928,-4.6944,0.0,-3.9988,-4.1046,-4.0189,-4.0604,-4.0623,-3.82,-3.768,0.0,-3.5654,-3.5365,-3.5442,-3.5558,-3.5596,-3.6192,-3.8065,-3.9046,0.0,0.0,0.0,0.0,0.0,0.0,0.0,-5.92,-6.0742,-6.1698,-6.1698,-6.1698,-6.1698,-6.1698,-6.1698,-6.1698,-6.1698,-6.1698,-6.1698,-6.1698,-6.1698,-6.1698,-6.1698,-6.1698,-6.1698,-6.1698,-6.1698,-6.1698,-6.1698,-6.1698,-6.1698,-6.1698,-6.1698,-6.1698,-6.1698,-6.1698,-6.1698,-6.1698,-6.1698,-6.1659,-6.1483,-6.0686,-5.9788,-5.887,-5.7992,-5.7211,-5.6606,-5.6606,-5.6606,-5.6606,-5.6606,-5.6606,-5.6606,-5.6606,-5.6606,-5.6606,-5.6606,-5.5923,-5.5083,-5.4264,-5.3366,-5.247,-5.1648,-5.1433,-5.1394,-5.1394,-5.1394,-5.1394,-5.1394,-5.1394,-5.1394,-5.1394,-5.1394,-5.1394,-5.1394,-5.1394,-5.1394,-5.1394,-5.0651,-4.985,-4.9032,-4.8974,-4.8978,-4.8986,-4.8927,-4.8888,-4.8888,-4.8829,-4.8807,-4.8798,-4.8057,-4.8076,-4.8779,-4.8037,-4.8096,-3.3218,0.0,-3.5776,-3.4891,-3.5334,-3.5641,0.0,-3.4603,-3.4795,0.0,0.0,0.0,-3.6173,-3.6423,-3.7615,-4.1296,0.0,0.0,0.0,0.0,0.0,0.0,0.0,-6.0859,-6.1074,-6.1464,-6.1698,-6.1698,-6.1698,-6.1698,-6.1698,-6.1698,-6.1698,-6.1698,-6.1698,-6.1698,-6.1698,-6.1698,-6.1698,-6.1698,-6.1698,-6.1698,-6.1698,-6.1698,-6.1698,-6.1698,-6.1698,-6.1698,-6.1698,-6.1698,-6.1698,-6.1698,-6.1698,-6.1698,-6.1698,-6.1698,-6.1271,-6.0686,-6.0471,-5.9397,-5.7972,-5.7153,-5.6743,-5.6606,-5.6606,-5.6606,-5.6606,-5.6606,-5.6606,-5.6606,-5.6606,-5.6606,-5.6606,-5.6606,-5.5923,-5.524,-5.5044,-5.3797,-5.2646,-5.2431,-5.1863,-5.1394,-5.1394,-5.1394,-5.1394,-5.1394,-5.1394,-5.1394,-5.1394,-5.1394,-5.1394,-5.1394,-5.1394,-5.1394,-5.1394,-5.1219,-5.1004,-5.0809,-5.0789,-5.0789,-5.0793,-5.0147,-4.9796,-4.9796,-4.9134,-4.88,-4.8798,-4.8603,-4.8623,-4.8798,-4.8603,-4.8623,-3.1096,-3.3179,-3.5238,-3.4757,-3.5295,-3.5815,-3.5353,0.0,0.0,0.0,0.0,0.0,0.0,0.0,0.0,0.0,0.0,0.0,0.0,0.0,0.0,0.0,0.0,-6.1618,0.0,-6.1666,-6.1698,-6.1698,-6.1698,-6.1698,-6.1698,-6.1698,-6.1698,-6.1698,-6.1698,-6.1698,-6.1698,-6.1698,-6.1698,-6.1698,-6.1698,-6.1698,-6.1698,-6.1698,-6.1698,-6.1698,-6.1698,-6.1698,-6.1698,-6.1698,-6.1698,-6.1698,-6.1698,-6.1698,-6.1698,-6.1698,-6.1154,-6.0334,-5.9944,-5.8675,-5.7172,-5.6743,-5.6606,-5.6606,-5.6606,-5.6606,-5.6606,-5.6606,-5.6606,-5.6606,-5.6606,-5.6606,-5.6606,-5.6606,-5.6235,-5.5786,-5.5396,-5.4559,-5.3661,-5.286,-5.2312,-5.1863,-5.1472,-5.1394,-5.1394,-5.1394,-5.1394,-5.1394,-5.1394,-5.1394,-5.1394,-5.1394,-5.1394,-5.1394,-5.1394,-5.1394,-5.1394,-5.1394,-5.1394,-5.1394,-5.1394,-5.0945,-5.069,-5.069,-5.0223,-4.9989,-4.9989,-4.9599,-4.9599,-4.9989,-4.9579,-4.9618,-3.0865,-3.3885,-3.6731,-3.6096,-3.668,-3.7411,-3.7411,0.0,0.0,0.0,0.0,0.0,0.0,0.0,0.0,0.0,0.0,0.0,0.0,0.0,0.0,0.0,0.0,0.0,-6.151,-6.1595,-6.1671,-6.1698,-6.1698,-6.1698,-6.1698,-6.1698,-6.1698,-6.1698,-6.1698,-6.1698,-6.1698,-6.1698,-6.1698,-6.1698,-6.1698,-6.1698,-6.1698,-6.1698,-6.1698,-6.1698,-6.1698,-6.1698,-6.1698,-6.1698,-6.1698,-6.1698,-6.1698,-6.1698,-6.1679,-6.1542,-6.0959,-6.0061,-5.9065,-5.7797,-5.6606,-5.6606,-5.6606,-5.6606,-5.6606,-5.6606,-5.6606,-5.6606,-5.6606,-5.6606,-5.6606,-5.6606,-5.6606,-5.6606,-5.6606,-5.6391,-5.5669,-5.5396,-5.4812,-5.3212,-5.2782,-5.2411,-5.155,-5.1394,-5.1394,-5.1394,-5.1394,-5.1394,-5.1394,-5.1394,-5.1394,-5.1394,-5.1394,-5.1394,-5.1394,-5.1394,-5.1394,-5.1394,-5.1394,-5.1394,-5.1394,-5.1394,-5.1394,-5.1394,-5.1394,-5.1394,-5.1394,-5.0651,-5.067,-5.1375,-5.0631,-5.069,-3.3026,-3.5661,-3.6949,-3.3353,-3.3622,-3.4783,-3.4783,0.0,0.0,0.0,0.0,0.0,0.0,0.0,0.0,0.0,0.0,0.0,0.0,0.0,0.0,-5.979,0.0,-6.1304,-6.1481,-6.1524,-6.158,-6.1696,-6.1698,-6.1698,-6.1698,-6.1698,-6.1698,-6.1698,-6.1698,-6.1698,-6.1698,-6.1698,-6.1698,-6.1698,-6.1698,-6.1698,-6.1698,-6.1698,-6.1698,-6.1698,-6.1698,-6.1698,-6.1698,-6.1698,-6.1698,-6.1698,-6.1698,-6.1698,-6.1601,-6.0861,-6.0041,-5.9085,-5.7523,-5.6821,-5.6606,-5.6606,-5.6606,-5.6606,-5.6606,-5.6606,-5.6606,-5.6606,-5.6606,-5.6606,-5.6606,-5.6606,-5.6606,-5.6606,-5.6606,-5.6567,-5.643,-5.5825,-5.5005,-5.399,-5.319,-5.2411,-5.155,-5.1394,-5.1394,-5.1394,-5.1394,-5.1394,-5.1394,-5.1394,-5.1394,-5.1394,-5.1394,-5.1394,-5.1394,-5.1394,-5.1394,-5.1394,-5.1394,-5.1394,-5.1394,-5.1394,-5.1394,-5.1394,-5.1394,-5.1394,-5.1394,-5.1277,-5.1277,-5.1394,-5.1258,-5.1277,-3.1833,-3.4007,-3.5584,-3.4115,-3.6392,-3.8892,-3.8411,0.0,0.0,0.0,0.0,0.0,0.0,0.0,0.0,0.0,0.0,0.0,0.0,-5.6683,-5.8248,0.0,0.0,-6.1128,-6.1216,-6.1379,-6.1528,-6.1588,-6.1663,-6.1698,-6.1698,-6.1698,-6.1698,-6.1698,-6.1698,-6.1698,-6.1698,-6.1698,-6.1698,-6.1698,-6.1698,-6.1698,-6.1698,-6.1698,-6.1698,-6.1698,-6.1698,-6.1698,-6.1659,-6.1193,-6.0998,-6.0959,-6.0488,-6.0293,-6.0195,-5.9319,-5.8734,-5.8226,-5.7016,-5.6606,-5.6606,-5.6606,-5.6606,-5.6606,-5.6606,-5.6606,-5.6606,-5.6606,-5.6606,-5.6606,-5.6606,-5.6606,-5.6606,-5.6606,-5.6606,-5.6606,-5.6606,-5.6294,-5.5747,-5.4869,-5.4381,-5.368,-5.2331,-5.2097,-5.1941,-5.1472,-5.1394,-5.1394,-5.1394,-5.1394,-5.1394,-5.1394,-5.1394,-5.1394,-5.1394,-5.1394,-5.1394,-5.1394,-5.1394,-5.1394,-5.1394,-5.1394,-5.1394,-5.1394,-5.1394,-5.1394,-5.1394,-5.1327,-5.1291,-5.1291,-5.1214,-5.1172,-3.1327,-3.2872,-3.4494,-3.5769,0.0,-4.17,-4.2027,0.0,0.0,0.0,0.0,0.0,0.0,0.0,0.0,0.0,0.0,-5.3857,-5.5742,-5.7146,-5.83,-5.9127,-5.9896,-6.0384,-6.0422,-6.0648,-6.0817,-6.0886,-6.0987,-6.1063,-6.1093,-6.1093,-6.1093,-6.1093,-6.1093,-6.1093,-6.1093,-6.1093,-6.1308,-6.1698,-6.1698,-6.1581,-6.1408,-6.1408,-6.1288,-6.1093,-6.1093,-6.1093,-6.1035,-6.0373,-6.01,-6.0022,-5.9358,-5.8987,-5.8714,-5.805,-5.768,-5.7426,-5.6801,-5.6606,-5.6606,-5.6606,-5.6606,-5.6606,-5.6606,-5.6606,-5.6606,-5.6606,-5.6606,-5.6606,-5.6606,-5.6606,-5.6606,-5.6606,-5.6606,-5.6606,-5.6606,-5.6606,-5.6333,-5.5474,-5.53,-5.4754,-5.2997,-5.2704,-5.2392,-5.1531,-5.1394,-5.1394,-5.1394,-5.1394,-5.1394,-5.1394,-5.1394,-5.1394,-5.1394,-5.1394,-5.1394,-5.1394,-5.1394,-5.1394,-5.1394,-5.1394,-5.1394,-5.1394,-5.1364,-5.1357,-5.1357,-5.1214,-5.115,-5.115,-5.1047,-5.1002,-3.4058,-3.468,-3.4783,-3.7219,-3.7488,0.0,-4.2104,-4.1123,0.0,-4.3393,0.0,0.0,0.0,0.0,0.0,0.0,0.0,-5.4068,-5.656,0.0,-5.7426,-5.828,-5.8446,-5.8543,-5.8681,-5.8706,-5.8811,-5.907,-5.9107,-5.9162,-5.9275,-5.9297,-5.9297,-5.9297,-5.9297,-5.9297,-5.9297,-5.9297,-6.0098,-6.1698,-6.1698,-6.1271,-6.049,-6.049,-6.0041,-5.9297,-5.9297,-5.9297,-5.9278,-5.9219,-5.918,-5.918,-5.9122,-5.8616,-5.7894,-5.7816,-5.7328,-5.6684,-5.6626,-5.6606,-5.6606,-5.6606,-5.6606,-5.6606,-5.6606,-5.6606,-5.6606,-5.6606,-5.6606,-5.6606,-5.6606,-5.6606,-5.6606,-5.6606,-5.6606,-5.6606,-5.6606,-5.6606,-5.6333,-5.5474,-5.53,-5.4754,-5.2997,-5.2704,-5.2392,-5.1531,-5.1394,-5.1394,-5.1394,-5.1394,-5.1394,-5.1394,-5.1394,-5.1394,-5.1394,-5.1394,-5.1394,-5.1394,-5.1394,-5.1394,-5.1394,-5.1394,-5.1394,-5.1394,-5.1284,-5.1211,-5.1211,-5.1074,-5.102,-5.102,-5.1008,-5.1002,-3.1731,-3.3237,-3.4686,-3.6699,0.0,0.0,0.0,0.0,-4.4528,-4.6297,-4.6413,0.0,0.0,0.0,0.0,0.0,0.0,-5.4511,-5.5992,-5.6656,-5.7118,-5.7453,-5.7973,-5.8314,-5.8371,-5.8442,-5.8546,-5.8632,-5.8726,-5.881,-5.8846,-5.8851,-5.8899,-5.8971,-5.8971,-5.9011,-5.9102,-5.9102,-5.9434,-6.0078,-6.0078,-5.9902,-5.9592,-5.9592,-5.9417,-5.9102,-5.9102,-5.9102,-5.9063,-5.8519,-5.8285,-5.8246,-5.7738,-5.7348,-5.7055,-5.7055,-5.686,-5.6606,-5.6606,-5.6606,-5.6606,-5.6606,-5.6606,-5.6606,-5.6606,-5.6606,-5.6606,-5.6606,-5.6606,-5.6606,-5.6606,-5.6606,-5.6606,-5.6606,-5.6606,-5.6606,-5.6606,-5.6606,-5.6508,-5.6177,-5.6118,-5.5728,-5.4519,-5.3873,-5.321,-5.2331,-5.1746,-5.1394,-5.1394,-5.1394,-5.1394,-5.1394,-5.1394,-5.1362,-5.1288,-5.1284,-5.1245,-5.1155,-5.1238,-5.1284,-5.1284,-5.1199,-5.115,-5.115,-5.1094,-5.1074,-5.1069,-5.0992,-5.0937,-5.0937,-5.0859,-5.0803,-3.0577,-3.2275,-3.4257,0.0,0.0,0.0,0.0,0.0,0.0,-4.8586,-4.849,0.0,0.0,0.0,0.0,0.0,-5.3126,-5.4472,-5.5549,-5.6214,-5.6599,-5.6599,-5.7126,-5.7473,-5.7473,-5.7563,-5.7621,-5.7684,-5.7761,-5.7831,-5.7871,-5.7878,-5.7916,-5.8019,-5.8052,-5.8114,-5.822,-5.8275,-5.8304,-5.8304,-5.8304,-5.8441,-5.8695,-5.8695,-5.8558,-5.8304,-5.8304,-5.8304,-5.8265,-5.768,-5.7426,-5.7367,-5.6821,-5.6606,-5.6606,-5.6606,-5.6606,-5.6606,-5.6606,-5.6606,-5.6606,-5.6606,-5.6606,-5.6606,-5.6606,-5.6606,-5.6606,-5.6606,-5.6606,-5.6606,-5.6606,-5.6606,-5.6606,-5.6606,-5.6606,-5.6606,-5.6606,-5.6606,-5.6606,-5.6606,-5.6606,-5.6313,-5.5454,-5.4576,-5.3698,-5.2821,-5.196,-5.1394,-5.1394,-5.1394,-5.1394,-5.1394,-5.1362,-5.1297,-5.1207,-5.1155,-5.1108,-5.1008,-5.1067,-5.1108,-5.1137,-5.1047,-5.1002,-5.1002,-5.0985,-5.0966,-5.0966,-5.0875,-5.0833,-5.0825,-5.074,-5.0712,-3.1448,-3.2295,-3.3526,0.0,0.0,0.0,0.0,0.0,0.0,0.0,0.0,-4.8105,-4.8105,0.0,0.0,-5.1481,-5.2635,-5.3799,-5.5453,-5.5703,-5.5703,-5.5703,-5.5703,-5.5703,-5.5703,-5.5703,-5.5758,-5.5889,-5.5907,-5.5962,-5.6084,-5.6091,-5.6091,-5.6097,-5.6237,-5.6308,-5.6292,-5.65,-5.6604,-5.6606,-5.6606,-5.7016,-5.7797,-5.7797,-5.7348,-5.6606,-5.6606,-5.6606,-5.6606,-5.6606,-5.6606,-5.6606,-5.6606,-5.6606,-5.6606,-5.6606,-5.6606,-5.6606,-5.6606,-5.6606,-5.6606,-5.6606,-5.6606,-5.6606,-5.6606,-5.6606,-5.6606,-5.6606,-5.6606,-5.6606,-5.6606,-5.6606,-5.6606,-5.6606,-5.6606,-5.6606,-5.6606,-5.6606,-5.6606,-5.6606,-5.6606,-5.6333,-5.5454,-5.4596,-5.3717,-5.2841,-5.196,-5.1414,-5.1394,-5.1394,-5.1394,-5.1394,-5.1284,-5.1199,-5.1199,-5.1069,-5.1002,-5.1002,-5.0937,-5.0923,-5.0996,-5.1002,-5.1002,-5.1002,-5.093,-5.0894,-5.0894,-5.0767,-5.0712,-5.0712,-5.0712,-5.0712,-3.0712,-3.2712,0.0,0.0,0.0,0.0,0.0,0.0,0.0,0.0,0.0,-4.9009,-4.9009,0.0,0.0,-5.1596,-5.2635,-5.3799,-5.5453,-5.5703,-5.5703,-5.5703,-5.5703,-5.5703,-5.5703,-5.5703,-5.5716,-5.5758,-5.5768,-5.5769,-5.5817,-5.5817,-5.5863,-5.597,-5.5998,-5.6104,-5.6308,-5.6356,-5.6469,-5.6606,-5.6606,-5.6723,-5.6957,-5.6957,-5.6821,-5.6606,-5.6606,-5.6606,-5.6606,-5.6606,-5.6606,-5.6606,-5.6606,-5.6606,-5.6606,-5.6606,-5.6606,-5.6606,-5.6606,-5.6606,-5.6606,-5.6606,-5.6606,-5.6606,-5.6606,-5.6606,-5.6606,-5.6606,-5.6606,-5.6606,-5.6606,-5.6606,-5.6606,-5.6606,-5.6606,-5.6606,-5.6606,-5.6606,-5.6606,-5.6606,-5.6606,-5.6528,-5.6255,-5.5493,-5.4615,-5.3756,-5.2878,-5.2097,-5.1472,-5.1325,-5.1255,-5.1255,-5.1141,-5.1045,-5.0998,-5.0951,-5.089,-5.0789,-5.0775,-5.0808,-5.0916,-5.0847,-5.078,-5.078,-5.0766,-5.0758,-5.0758,-5.0721,-5.0712,-5.0712,-5.0712,-5.0712,-3.1737,0.0,0.0,0.0,0.0,0.0,0.0,0.0,0.0,0.0,0.0,-4.951,-4.9856,-4.9625,0.0,-5.1635,-5.2327,-5.328,-5.4972,-5.5222,-5.5338,-5.5665,-5.5703,-5.5703,-5.5703,-5.5703,-5.5703,-5.5703,-5.5703,-5.5703,-5.5703,-5.5703,-5.5747,-5.5817,-5.5872,-5.5975,-5.6135,-5.6252,-5.6356,-5.6475,-5.6558,-5.6606,-5.6606,-5.6606,-5.6606,-5.6606,-5.6606,-5.6606,-5.6606,-5.6606,-5.6606,-5.6606,-5.6606,-5.6606,-5.6606,-5.6606,-5.6606,-5.6606,-5.6606,-5.6606,-5.6606,-5.6606,-5.6606,-5.6606,-5.6606,-5.6606,-5.6606,-5.6606,-5.6606,-5.6606,-5.6606,-5.6606,-5.6606,-5.6606,-5.6606,-5.6606,-5.6606,-5.6606,-5.6606,-5.6606,-5.6606,-5.6606,-5.6606,-5.5884,-5.5005,-5.4127,-5.2921,-5.1904,-5.1326,-5.1163,-5.1128,-5.1128,-5.1027,-5.0932,-5.0902,-5.085,-5.0803,-5.0721,-5.0712,-5.075,-5.0827,-5.074,-5.0712,-5.0712,-5.0712,-5.0712,-5.0712,-5.0712,-5.0712,-5.0712,-5.0712,-5.0712,0.0,0.0,0.0,0.0,0.0,0.0,0.0,0.0,0.0,0.0,0.0,-4.976,-5.0558,-5.0048,-5.0048,-5.1635,-5.1904,-5.2481,-5.4145,-5.4376,-5.4645,-5.5395,-5.5472,-5.5472,-5.5472,-5.5472,-5.5472,-5.5472,-5.5472,-5.5472,-5.5472,-5.5472,-5.5472,-5.5472,-5.5586,-5.5696,-5.5791,-5.6024,-5.6193,-5.6279,-5.6469,-5.6555,-5.658,-5.6584,-5.6606,-5.6606,-5.6606,-5.6606,-5.6606,-5.6606,-5.6606,-5.6606,-5.6606,-5.6582,-5.656,-5.6584,-5.6582,-5.658,-5.6584,-5.6606,-5.6606,-5.6606,-5.6606,-5.6606,-5.6606,-5.6606,-5.6606,-5.6606,-5.6606,-5.6606,-5.6606,-5.6606,-5.6604,-5.658,-5.6582,-5.6606,-5.6606,-5.6606,-5.6606,-5.6606,-5.6606,-5.6584,-5.658,-5.5858,-5.494,-5.3999,-5.2331,-5.1141,-5.102,-5.0996,-5.099,-5.099,-5.0923,-5.0871,-5.0871,-5.0776,-5.0712,-5.0712,-5.0712,-5.0712,-5.0712,-5.0712,-5.0712,-5.0712,-5.0712,-5.0712,-5.0712,-5.0712,-5.0712,-5.0712,-5.0712,-5.0712,0.0,0.0,0.0,0.0,0.0,0.0,0.0,0.0,0.0,0.0,0.0,-5.0481,-5.0673,-5.0558,-5.0741,-5.1731,-5.1904,-5.2269,-5.3337,-5.3491,-5.3549,-5.3722,-5.3741,-5.3741,-5.3741,-5.3741,-5.3741,-5.3741,-5.3741,-5.3741,-5.3741,-5.3741,-5.3741,-5.3741,-5.3763,-5.4159,-5.4957,-5.501,-5.5416,-5.6141,-5.6189,-5.6266,-5.6379,-5.6528,-5.6606,-5.6606,-5.6606,-5.6606,-5.6606,-5.6606,-5.6606,-5.6606,-5.6606,-5.6503,-5.6383,-5.6533,-5.65,-5.6386,-5.6553,-5.6606,-5.6606,-5.6606,-5.6606,-5.6606,-5.6606,-5.6606,-5.6606,-5.6606,-5.6606,-5.6606,-5.6606,-5.6606,-5.6558,-5.639,-5.6497,-5.6606,-5.6606,-5.6606,-5.6606,-5.6606,-5.6606,-5.6553,-5.6386,-5.5697,-5.4586,-5.2913,-5.1744,-5.1036,-5.1008,-5.0952,-5.092,-5.092,-5.0808,-5.074,-5.074,-5.0712,-5.0712,-5.0712,-5.0712,-5.0712,-5.0712,-5.0712,-5.0712,-5.0712,-5.0712,-5.0712,-5.0712,-5.0712,-5.0712,-5.0712,-5.0712,-5.0712,0.0,0.0,0.0,0.0,0.0,0.0,0.0,0.0,0.0,0.0,-5.0712,-5.0712,-5.0712,-5.0712,-5.0846,-5.126,-5.1337,-5.1625,-5.2462,-5.2577,-5.2731,-5.3145,-5.3203,-5.3203,-5.3203,-5.3203,-5.3203,-5.3203,-5.3203,-5.3203,-5.3203,-5.3203,-5.3203,-5.3203,-5.3203,-5.3445,-5.3985,-5.4044,-5.4328,-5.4818,-5.4867,-5.4935,-5.504,-5.6101,-5.6553,-5.6469,-5.6555,-5.6553,-5.6469,-5.6469,-5.6429,-5.6351,-5.6351,-5.6305,-5.6222,-5.6314,-5.6281,-5.6227,-5.6314,-5.6351,-5.6351,-5.6351,-5.6351,-5.6351,-5.6351,-5.6351,-5.6351,-5.6351,-5.6351,-5.6351,-5.6351,-5.6351,-5.6318,-5.6232,-5.6402,-5.6553,-5.641,-5.6402,-5.6439,-5.6359,-5.6351,-5.6338,-5.6227,-5.519,-5.4025,-5.2984,-5.2077,-5.1363,-5.0902,-5.1528,-5.1843,-5.1419,-5.1327,-5.1279,-5.1279,-5.0914,-5.0712,-5.0712,-5.0712,-5.0712,-5.0712,-5.0712,-5.0712,-5.0712,-5.0712,-5.0712,-5.0712,-5.0712,-5.0712,-5.0712,-5.0712,-5.0712,0.0,0.0,0.0,0.0,0.0,0.0,0.0,0.0,0.0,0.0,-5.05,-5.0712,-5.0712,-5.0712,-5.0712,-5.0712,-5.0712,-5.0933,-5.1606,-5.1692,-5.1972,-5.2683,-5.2779,-5.2779,-5.2779,-5.2779,-5.2779,-5.2779,-5.2779,-5.2779,-5.2779,-5.2779,-5.2779,-5.2779,-5.2779,-5.2837,-5.2972,-5.3087,-5.3213,-5.3368,-5.3499,-5.356,-5.3579,-5.5307,-5.5984,-5.5846,-5.6166,-5.6214,-5.6071,-5.6207,-5.6191,-5.6097,-5.6097,-5.6084,-5.6064,-5.6091,-5.6084,-5.6064,-5.6091,-5.6097,-5.6097,-5.6097,-5.6097,-5.6097,-5.6097,-5.6097,-5.6097,-5.6097,-5.6097,-5.6097,-5.6097,-5.6097,-5.6091,-5.6064,-5.6291,-5.6448,-5.6166,-5.6181,-5.6222,-5.6116,-5.6078,-5.6019,-5.5889,-5.4685,-5.3672,-5.3404,-5.2752,-5.2015,-5.1231,-5.2337,-5.2933,-5.2192,-5.2115,-5.2058,-5.1904,-5.1298,-5.0846,-5.0712,-5.0712,-5.0712,-5.0712,-5.0712,-5.0712,-5.0712,-5.0712,-5.0712,-5.0712,-5.0712,-5.0712,-5.0712,-5.0712,-5.0712,0.0,0.0,0.0,0.0,0.0,0.0,0.0,0.0,0.0,0.0,-4.9644,-5.0712,-5.0712,-5.0712,-5.0712,-5.0712,-5.0712,-5.075,-5.0846,-5.0856,-5.0894,-5.102,-5.1039,-5.1039,-5.1039,-5.1039,-5.1039,-5.1039,-5.1039,-5.1039,-5.1039,-5.1039,-5.1039,-5.1039,-5.1039,-5.1375,-5.2077,-5.2088,-5.2473,-5.3224,-5.3359,-5.3368,-5.3263,-5.3766,-5.3994,-5.4002,-5.4791,-5.5116,-5.5137,-5.5837,-5.6116,-5.6097,-5.6097,-5.6035,-5.5946,-5.607,-5.6035,-5.5946,-5.605,-5.6097,-5.6097,-5.6097,-5.6097,-5.6097,-5.6097,-5.6097,-5.6097,-5.6097,-5.6097,-5.6097,-5.6097,-5.6097,-5.6064,-5.5943,-5.6056,-5.616,-5.6104,-5.611,-5.6116,-5.6104,-5.6013,-5.5717,-5.5009,-5.4601,-5.413,-5.3349,-5.3128,-5.3021,-5.2876,-5.3068,-5.3164,-5.3049,-5.3029,-5.2712,-5.1962,-5.1788,-5.1433,-5.075,-5.0712,-5.0712,-5.0712,-5.0712,-5.0712,-5.0712,-5.0712,-5.0712,-5.0712,-5.0712,-5.0712,-5.0712,-5.0712,-5.0712,0.0,0.0,0.0,0.0,0.0,0.0,0.0,0.0,0.0,-4.7943,-4.8663,-4.9202,-4.9231,-4.924,-4.9404,-4.9894,-4.9971,-5.0144,-5.0635,-5.0712,-5.0712,-5.0712,-5.0712,-5.0712,-5.0712,-5.0712,-5.0712,-5.0712,-5.0712,-5.0712,-5.0712,-5.0712,-5.0712,-5.0712,-5.0712,-5.0856,-5.1221,-5.1221,-5.1414,-5.1798,-5.1866,-5.1856,-5.1808,-5.1917,-5.2531,-5.3511,-5.398,-5.4123,-5.4125,-5.497,-5.5265,-5.5243,-5.5706,-5.5845,-5.5798,-5.5854,-5.5845,-5.5798,-5.5854,-5.588,-5.588,-5.588,-5.588,-5.588,-5.588,-5.588,-5.588,-5.588,-5.588,-5.588,-5.588,-5.588,-5.5863,-5.5789,-5.5836,-5.588,-5.588,-5.5919,-5.5959,-5.5887,-5.5836,-5.5673,-5.5316,-5.4852,-5.4376,-5.3991,-5.3933,-5.376,-5.326,-5.403,-5.4434,-5.3972,-5.3933,-5.378,-5.3395,-5.2914,-5.2279,-5.1433,-5.1375,-5.1164,-5.0731,-5.0712,-5.0712,-5.0712,-5.0712,-5.0712,-5.0712,-5.0712,-5.0712,-5.0712,-5.0712,-5.0712,0.0,0.0,0.0,0.0,0.0,0.0,0.0,0.0,0.0,0.0,-4.7337,-4.7347,-4.7396,-4.779,-4.8298,-4.8952,-4.9029,-4.9288,-4.9952,-5.0038,-5.0038,-5.0029,-5.0231,-5.0366,-5.0366,-5.0577,-5.0712,-5.0712,-5.0712,-5.0712,-5.0712,-5.0712,-5.0712,-5.0712,-5.0712,-5.0712,-5.0712,-5.0712,-5.0712,-5.0712,-5.0712,-5.0712,-5.0712,-5.0712,-5.1433,-5.2741,-5.3042,-5.3116,-5.3091,-5.396,-5.439,-5.4549,-5.5164,-5.5511,-5.5703,-5.5703,-5.5703,-5.5703,-5.5703,-5.5703,-5.5703,-5.5703,-5.5703,-5.5703,-5.5703,-5.5703,-5.5703,-5.5703,-5.5703,-5.5703,-5.5703,-5.5703,-5.5703,-5.5703,-5.5703,-5.5703,-5.5703,-5.5769,-5.5817,-5.5716,-5.5703,-5.5703,-5.5703,-5.5203,-5.4799,-5.4799,-5.4799,-5.4568,-5.3914,-5.4934,-5.5472,-5.4876,-5.4799,-5.4722,-5.4511,-5.3895,-5.3164,-5.2288,-5.2019,-5.1741,-5.1337,-5.1125,-5.1106,-5.1318,-5.1125,-5.0894,-5.0712,-5.0712,-5.0712,-5.0712,-5.0712,-5.0712,0.0,0.0,0.0,0.0,0.0,0.0,0.0,0.0,0.0,-4.5534,-4.5543,-4.5543,-4.5534,-4.6886,-4.8018,-4.8075,-4.8075,-4.8115,-4.8222,-4.8251,-4.8241,-4.8231,-4.8952,-4.9471,-4.9471,-5.0231,-5.0712,-5.0712,-5.0712,-5.0712,-5.0712,-5.0712,-5.0712,-5.0712,-5.0712,-5.0712,-5.0712,-5.0712,-5.0712,-5.0712,-5.0712,-5.0712,-5.0712,-5.0712,-5.075,-5.0875,-5.1655,-5.1972,-5.2058,-5.2924,-5.3751,-5.4491,-5.4549,-5.503,-5.5703,-5.5703,-5.5703,-5.5703,-5.5703,-5.5703,-5.5703,-5.5703,-5.5703,-5.5703,-5.5703,-5.5703,-5.5703,-5.5703,-5.5703,-5.5703,-5.5703,-5.5703,-5.5703,-5.5703,-5.5703,-5.5703,-5.5703,-5.5714,-5.5705,-5.5714,-5.5703,-5.5703,-5.5703,-5.5665,-5.5645,-5.5645,-5.5645,-5.5607,-5.5568,-5.5645,-5.5684,-5.5645,-5.5645,-5.5318,-5.4549,-5.4453,-5.4068,-5.3203,-5.2365,-5.225,-5.3049,-5.2269,-5.2231,-5.3049,-5.225,-5.1471,-5.0712,-5.0712,-5.0712,-5.0712,-5.0712,-5.0712,0.0,0.0,0.0,0.0,0.0,0.0,0.0,0.0,-4.4488,-4.4488,-4.4937,-4.5338,-4.5339,-4.5887,-4.6521,-4.7058,-4.7164,-4.7366,-4.7942,-4.8038,-4.8039,-4.8087,-4.8385,-4.8568,-4.8567,-4.8856,-4.9029,-4.9029,-4.9029,-4.9029,-4.9029,-4.9029,-4.9298,-4.9856,-4.9875,-5.0125,-5.0693,-5.0712,-5.0712,-5.0712,-5.0712,-5.0712,-5.0712,-5.0712,-5.0712,-5.0731,-5.0991,-5.1125,-5.1183,-5.2029,-5.2538,-5.2953,-5.4068,-5.4684,-5.4991,-5.5511,-5.5703,-5.5703,-5.5703,-5.5703,-5.5703,-5.5703,-5.5703,-5.5703,-5.5703,-5.5703,-5.5703,-5.5703,-5.5703,-5.5703,-5.5703,-5.5703,-5.5703,-5.5703,-5.5703,-5.5703,-5.5703,-5.5703,-5.5703,-5.5703,-5.5703,-5.5703,-5.5703,-5.5703,-5.5703,-5.5703,-5.5703,-5.5703,-5.5703,-5.5703,-5.5703,-5.5703,-5.5703,-5.5568,-5.528,-5.5261,-5.4914,-5.4087,-5.3741,-5.3453,-5.3222,-5.2895,-5.2876,-5.3203,-5.2327,-5.175,-5.1471,-5.0952,-5.0712,-5.0712,-5.0712,-5.0712,-2.7434,0.0,0.0,0.0,0.0,0.0,0.0,0.0,-4.2631,-4.3777,-4.4456,-4.4953,-4.525,-4.5338,-4.556,-4.6146,-4.6232,-4.6443,-4.7048,-4.7125,-4.7145,-4.7194,-4.7453,-4.7636,-4.7664,-4.7924,-4.8106,-4.8105,-4.8105,-4.8105,-4.8105,-4.8105,-4.8375,-4.8952,-4.924,-4.9683,-5.0269,-5.0558,-5.0712,-5.0712,-5.0712,-5.0712,-5.0712,-5.0712,-5.0712,-5.0712,-5.0712,-5.0712,-5.075,-5.1279,-5.1654,-5.2019,-5.3164,-5.3972,-5.4549,-5.5107,-5.5472,-5.5703,-5.5703,-5.5703,-5.5703,-5.5703,-5.5703,-5.5703,-5.5703,-5.5703,-5.5703,-5.5703,-5.5703,-5.5703,-5.5703,-5.5703,-5.5703,-5.5703,-5.5703,-5.5703,-5.5703,-5.5703,-5.5703,-5.5703,-5.5703,-5.5703,-5.5703,-5.5703,-5.5703,-5.5703,-5.5703,-5.5703,-5.5703,-5.5703,-5.5703,-5.5703,-5.5703,-5.5703,-5.5703,-5.5703,-5.5472,-5.4934,-5.4645,-5.4357,-5.4049,-5.378,-5.376,-5.403,-5.3222,-5.2635,-5.2327,-5.1221,-5.0712,-5.0712,-5.0712,-5.0712,0.0,0.0,0.0,0.0,0.0,0.0,0.0,0.0,-3.9785,-4.3137,-4.3854,-4.414,-4.5086,-4.5269,-4.5269,-4.5307,-4.5307,-4.5317,-4.5398,-4.5398,-4.5399,-4.54,-4.6148,-4.6695,-4.6753,-4.753,-4.801,-4.8019,-4.8029,-4.8029,-4.8029,-4.8048,-4.8067,-4.8067,-4.8913,-4.9356,-4.9356,-5.0231,-5.0654,-5.0654,-5.0693,-5.0712,-5.0712,-5.0712,-5.0712,-5.0712,-5.0712,-5.0712,-5.0712,-5.0712,-5.1164,-5.1865,-5.1885,-5.2933,-5.4434,-5.4472,-5.4991,-5.5665,-5.5684,-5.5703,-5.5703,-5.5703,-5.5703,-5.5703,-5.5703,-5.5703,-5.5703,-5.5703,-5.5703,-5.5703,-5.5703,-5.5703,-5.5703,-5.5703,-5.5703,-5.5703,-5.5703,-5.5703,-5.5703,-5.5703,-5.5703,-5.5703,-5.5703,-5.5703,-5.5703,-5.5703,-5.5703,-5.5703,-5.5703,-5.5703,-5.5703,-5.5703,-5.5703,-5.5703,-5.5703,-5.5703,-5.5703,-5.5703,-5.4972,-5.4895,-5.5665,-5.4953,-5.4895,-5.5684,-5.4914,-5.4068,-5.3203,-5.1529,-5.0731,-5.0712,-5.0712,-5.0712,-2.5593,0.0,0.0,0.0,0.0,0.0,0.0,0.0,0.0,-3.9458,-4.0193,-4.1071,-4.3843,-4.435,-4.4571,-4.5201,-4.5307,-4.5307,-4.5328,-4.5328,-4.5348,-4.538,-4.5619,-4.5773,-4.5784,-4.6052,-4.6215,-4.6233,-4.626,-4.6278,-4.6278,-4.6894,-4.7231,-4.7231,-4.8029,-4.8471,-4.8471,-4.9317,-4.976,-4.976,-5.0404,-5.0712,-5.0712,-5.0712,-5.0712,-5.0712,-5.0712,-5.0712,-5.0712,-5.0712,-5.0827,-5.1087,-5.1673,-5.2192,-5.2779,-5.4049,-5.4645,-5.4914,-5.5491,-5.5703,-5.5703,-5.5703,-5.5703,-5.5703,-5.5703,-5.5703,-5.5703,-5.5703,-5.5703,-5.5703,-5.5703,-5.5703,-5.5703,-5.5703,-5.5703,-5.5703,-5.5703,-5.5703,-5.5703,-5.5703,-5.5703,-5.5703,-5.5703,-5.5703,-5.5703,-5.5703,-5.5703,-5.5703,-5.5703,-5.5703,-5.5703,-5.5703,-5.5703,-5.5703,-5.5703,-5.5703,-5.5703,-5.5703,-5.5491,-5.5472,-5.5684,-5.5491,-5.5472,-5.5703,-5.4914,-5.4068,-5.3203,-5.2106,-5.1279,-5.0712,-5.0712,-5.0712,0.0,0.0,0.0,0.0,0.0,0.0,-3.1845,-3.2269,0.0,0.0,-3.8318,-3.9185,-4.1953,-4.2727,-4.3233,-4.4112,-4.4532,-4.4876,-4.525,-4.5307,-4.5317,-4.5348,-4.5348,-4.5369,-4.5409,-4.5438,-4.5467,-4.5467,-4.5495,-4.5513,-4.5513,-4.6031,-4.6328,-4.6328,-4.7154,-4.7605,-4.7605,-4.8432,-4.9048,-4.9413,-4.9913,-5.0346,-5.0712,-5.0712,-5.0712,-5.0712,-5.0712,-5.0712,-5.0712,-5.0712,-5.0712,-5.075,-5.1221,-5.1606,-5.2019,-5.3049,-5.3876,-5.4568,-5.503,-5.5415,-5.5703,-5.5703,-5.5703,-5.5703,-5.5703,-5.5703,-5.5703,-5.5703,-5.5703,-5.5703,-5.5703,-5.5703,-5.5703,-5.5703,-5.5703,-5.5703,-5.5703,-5.5703,-5.5703,-5.5703,-5.5703,-5.5703,-5.5703,-5.5703,-5.5703,-5.5703,-5.5703,-5.5703,-5.5703,-5.5703,-5.5703,-5.5703,-5.5703,-5.5703,-5.5703,-5.5703,-5.5703,-5.5703,-5.5703,-5.5703,-5.5703,-5.5703,-5.5703,-5.5703,-5.5241,-5.4414,-5.3203,-5.2327,-5.1491,-5.0712,-5.0712,-5.0712,0.0,0.0,0.0,0.0,0.0,0.0,-3.3015,-3.1813,-3.1137,0.0,-3.6715,-3.7268,-3.9299,-4.0339,-4.116,-4.2038,-4.3021,-4.4062,-4.5144,-4.5307,-4.5307,-4.5307,-4.5307,-4.5317,-4.5369,-4.5398,-4.5409,-4.539,-4.54,-4.54,-4.54,-4.5467,-4.5495,-4.5504,-4.6309,-4.675,-4.6759,-4.7567,-4.8355,-4.9125,-4.9317,-4.9798,-5.0558,-5.0654,-5.0712,-5.0712,-5.0712,-5.0712,-5.0712,-5.0683,-5.0683,-5.0712,-5.0712,-5.1144,-5.1769,-5.1865,-5.2953,-5.4376,-5.4472,-5.503,-5.5703,-5.5703,-5.5703,-5.5703,-5.5703,-5.5703,-5.5703,-5.5703,-5.5703,-5.5703,-5.5703,-5.5703,-5.5703,-5.5703,-5.5703,-5.5703,-5.5703,-5.5703,-5.5703,-5.5703,-5.5703,-5.5703,-5.5703,-5.5703,-5.5703,-5.5703,-5.5703,-5.5703,-5.5703,-5.5703,-5.5703,-5.5703,-5.5703,-5.5703,-5.5703,-5.5703,-5.5703,-5.5703,-5.5703,-5.5703,-5.5703,-5.5703,-5.5703,-5.5703,-5.5607,-5.478,-5.3203,-5.2327,-5.1491,-5.0712,-5.0712,-5.0712,0.0,0.0,0.0,0.0,0.0,0.0,-2.8733,-2.8714,-2.9538,0.0,-3.0509,-3.1233,-3.5075,-3.6457,-3.7259,-3.8072,-4.0209,-4.2572,-4.4961,-4.5307,-4.5307,-4.5307,-4.5307,-4.5307,-4.5317,-4.5378,-4.5408,-4.5399,-4.54,-4.54,-4.54,-4.541,-4.5438,-4.5504,-4.5686,-4.58,-4.5855,-4.6721,-4.7221,-4.7413,-4.8759,-4.949,-4.9683,-5.0385,-5.0712,-5.0712,-5.0712,-5.0712,-5.0702,-5.0633,-5.0643,-5.0712,-5.0712,-5.0808,-5.101,-5.1654,-5.2558,-5.3549,-5.426,-5.503,-5.5703,-5.5703,-5.5703,-5.5703,-5.5703,-5.5703,-5.5703,-5.5703,-5.5703,-5.5703,-5.5703,-5.5703,-5.5703,-5.5703,-5.5703,-5.5703,-5.5703,-5.5703,-5.5703,-5.5703,-5.5703,-5.5703,-5.5703,-5.5703,-5.5703,-5.5703,-5.5703,-5.5703,-5.5703,-5.5703,-5.5703,-5.5703,-5.5703,-5.5703,-5.5703,-5.5703,-5.5703,-5.5703,-5.5703,-5.5703,-5.5703,-5.5703,-5.5703,-5.5703,-5.5049,-5.4222,-5.3203,-5.2327,-5.1491,-5.0712,-5.0712,-5.0712,0.0,0.0,0.0,-3.3621,0.0,0.0,0.0,-2.9437,-2.9569,-3.1042,-3.0028,-2.9936,-3.3368,-3.4358,-3.4915,-3.5725,-3.8161,-4.0433,-4.1812,-4.3183,-4.4055,-4.4055,-4.4418,-4.4647,-4.4647,-4.5079,-4.5348,-4.5348,-4.535,-4.5351,-4.5351,-4.537,-4.5419,-4.5448,-4.5476,-4.5513,-4.5559,-4.6019,-4.6471,-4.6904,-4.7759,-4.8355,-4.8779,-4.9615,-5.0029,-5.0067,-5.0441,-5.0623,-5.0643,-5.0582,-5.0563,-5.0594,-5.0633,-5.0633,-5.0652,-5.1095,-5.1776,-5.2619,-5.3464,-5.429,-5.5069,-5.5495,-5.564,-5.5671,-5.5692,-5.5703,-5.5703,-5.5703,-5.5703,-5.5703,-5.5703,-5.5703,-5.5703,-5.5703,-5.5703,-5.5703,-5.5703,-5.5703,-5.5703,-5.5703,-5.5703,-5.5703,-5.5703,-5.5703,-5.5703,-5.5703,-5.5703,-5.5703,-5.5703,-5.5703,-5.5703,-5.5703,-5.5703,-5.5703,-5.5703,-5.5703,-5.5703,-5.5703,-5.5703,-5.5703,-5.5703,-5.5703,-5.5703,-5.5703,-5.5299,-5.4684,-5.3857,-5.2972,-5.1914,-5.0712,-5.0712,-5.0712,0.0,0.0,0.0,0.0,0.0,-3.3703,0.0,0.0,0.0,0.0,0.0,0.0,0.0,0.0,0.0,0.0,0.0,0.0,0.0,-3.9526,0.0,-4.2011,-4.2928,-4.351,-4.351,-4.3864,-4.4341,-4.4991,-4.4609,-4.4609,-4.5269,-4.5348,-4.5398,-4.5408,-4.5448,-4.5485,-4.5504,-4.5531,-4.5914,-4.6626,-4.6789,-4.7203,-4.7857,-4.8836,-4.9307,-4.9404,-5.0178,-5.0532,-5.0582,-5.0511,-5.0489,-5.0489,-5.0542,-5.0562,-5.0511,-5.0572,-5.1099,-5.1891,-5.2532,-5.3433,-5.4415,-5.5132,-5.545,-5.5585,-5.566,-5.5651,-5.5651,-5.5651,-5.5662,-5.5673,-5.5673,-5.5703,-5.5703,-5.5703,-5.5703,-5.5703,-5.5703,-5.5703,-5.5703,-5.5703,-5.5703,-5.5703,-5.5703,-5.5703,-5.5703,-5.5703,-5.5703,-5.5703,-5.5703,-5.5703,-5.5703,-5.5703,-5.5703,-5.5703,-5.5703,-5.5703,-5.5703,-5.5703,-5.5703,-5.5703,-5.5703,-5.5703,-5.5703,-5.5703,-5.5703,-5.5299,-5.4491,-5.3799,-5.2587,-5.0933,-5.077,-5.0712,0.0,0.0,0.0,0.0,-3.6841,0.0,0.0,0.0,-3.0435,-2.7882,0.0,0.0,0.0,0.0,0.0,0.0,0.0,0.0,-3.1725,-3.3996,-3.6711,-3.9146,-4.0826,-4.1781,-4.1781,-4.052,-4.096,-4.3911,-4.2115,-4.2163,-4.5154,-4.5307,-4.5338,-4.5408,-4.5418,-4.5448,-4.5504,-4.5438,-4.5505,-4.5657,-4.6378,-4.6771,-4.6906,-4.8488,-4.9217,-4.9266,-5.0127,-5.0511,-5.0511,-5.0446,-5.0412,-5.0424,-5.0489,-5.0511,-5.05,-5.0511,-5.1067,-5.1815,-5.1891,-5.2965,-5.4327,-5.4415,-5.4921,-5.5516,-5.5516,-5.5527,-5.5527,-5.5527,-5.5562,-5.5607,-5.5607,-5.5671,-5.5703,-5.5703,-5.5703,-5.5703,-5.5703,-5.5703,-5.5703,-5.5703,-5.5703,-5.5703,-5.5703,-5.5703,-5.5703,-5.5703,-5.5703,-5.5703,-5.5703,-5.5703,-5.5703,-5.5703,-5.5703,-5.5703,-5.5703,-5.5703,-5.5703,-5.5703,-5.5703,-5.5703,-5.5703,-5.5703,-5.5703,-5.5703,-5.5703,-5.5299,-5.4491,-5.4395,-5.3453,-5.175,-5.1029,-5.0712,0.0,0.0,0.0,0.0,0.0,0.0,-3.1642,0.0,-3.0448,0.0,0.0,0.0,0.0,0.0,0.0,0.0,-2.955,0.0,0.0,0.0,-3.3061,0.0,0.0,-3.8438,-3.9909,-3.9412,-3.9794,-4.1714,-4.0416,-4.0807,-4.3692,-4.4284,-4.4791,-4.5338,-4.5388,-4.5409,-4.5429,-4.54,-4.5419,-4.5457,-4.5774,-4.5956,-4.5994,-4.7689,-4.8475,-4.8564,-4.9841,-5.0412,-5.0446,-5.0359,-5.0337,-5.0337,-5.0371,-5.0382,-5.0382,-5.0435,-5.0653,-5.0994,-5.1511,-5.2449,-5.3609,-5.4621,-5.5181,-5.5504,-5.5504,-5.5504,-5.5504,-5.5504,-5.5516,-5.5539,-5.5539,-5.5562,-5.5596,-5.5629,-5.564,-5.564,-5.5703,-5.5703,-5.5703,-5.5703,-5.5703,-5.5703,-5.5703,-5.5703,-5.5703,-5.5703,-5.5703,-5.5703,-5.5703,-5.5703,-5.5703,-5.5703,-5.5703,-5.5703,-5.5703,-5.5703,-5.5703,-5.5703,-5.5703,-5.5703,-5.5703,-5.5703,-5.5703,-5.5703,-5.5703,-5.553,-5.5203,-5.4722,-5.4126,-5.3395,-5.2549,-5.2145,-4.2495,0.0,0.0,0.0,0.0,0.0,0.0,0.0,0.0,0.0,0.0,0.0,0.0,0.0,0.0,0.0,0.0,-2.9167,0.0,-2.8381,0.0,0.0,0.0,0.0,-3.7769,-3.7139,-3.7426,-3.9451,-3.8151,-3.8897,-4.2603,-4.3348,-4.4169,-4.5269,-4.5338,-4.5369,-4.5408,-4.539,-4.539,-4.54,-4.539,-4.5361,-4.5438,-4.711,-4.7895,-4.8033,-4.961,-5.0325,-5.0379,-5.0314,-5.0302,-5.0302,-5.0302,-5.0302,-5.0302,-5.0348,-5.0337,-5.0397,-5.1028,-5.1926,-5.3084,-5.4823,-5.5427,-5.5463,-5.5463,-5.5463,-5.5463,-5.5463,-5.5456,-5.5468,-5.5468,-5.5492,-5.5516,-5.5562,-5.5573,-5.5585,-5.5629,-5.566,-5.566,-5.566,-5.5651,-5.5662,-5.5662,-5.5692,-5.5703,-5.5703,-5.5703,-5.5703,-5.5703,-5.5703,-5.5703,-5.5703,-5.5703,-5.5703,-5.5703,-5.5703,-5.5703,-5.5703,-5.5703,-5.5703,-5.5703,-5.5703,-5.5703,-5.5703,-5.5703,-5.5703,-5.5662,-5.5096,-5.4808,-5.4778,-5.3692,-5.3203,-4.3458,-4.3457,-4.2301,-3.7581,-3.6354,-3.505,0.0,0.0,-3.2307,0.0,0.0,0.0,0.0,0.0,0.0,0.0,0.0,0.0,0.0,0.0,0.0,0.0,0.0,0.0,0.0,-3.2382,-3.2516,-3.7426,-3.4743,-3.5793,-4.245,-4.2813,-4.3596,-4.525,-4.5307,-4.5328,-4.5408,-4.5338,-4.5338,-4.5408,-4.5338,-4.5307,-4.5364,-4.7035,-4.7799,-4.7895,-4.9576,-5.0302,-5.0302,-5.0302,-5.0302,-5.0302,-5.0302,-5.0302,-5.0302,-5.0302,-5.0302,-5.0302,-5.034,-5.141,-5.3091,-5.483,-5.5403,-5.5403,-5.5403,-5.5403,-5.5403,-5.5403,-5.5396,-5.5408,-5.5408,-5.5456,-5.5504,-5.5504,-5.5504,-5.5504,-5.5504,-5.5504,-5.5504,-5.5504,-5.5562,-5.5596,-5.5596,-5.5671,-5.5703,-5.5703,-5.5703,-5.5703,-5.5703,-5.5703,-5.5703,-5.5703,-5.5703,-5.5703,-5.5703,-5.5703,-5.5703,-5.5703,-5.5703,-5.5703,-5.5703,-5.5703,-5.5703,-5.5703,-5.5703,-5.5682,-5.5596,-5.5643,-5.5643,-5.553,-5.3941,-5.3203,-4.3626,-4.3515,-4.2725,-3.9478,-3.7477,-3.544,-3.2124,-3.2014,0.0,0.0,0.0,0.0,0.0,0.0,0.0,0.0,0.0,0.0,0.0,0.0,0.0,0.0,0.0,0.0,0.0,0.0,-3.1943,-3.4208,-3.3891,-3.5534,-4.0043,-4.1877,-4.331,-4.4399,-4.4991,-4.5307,-4.5328,-4.5307,-4.5307,-4.5328,-4.5307,-4.5307,-4.5364,-4.7035,-4.7788,-4.7884,-4.9576,-5.0302,-5.0302,-5.0302,-5.0302,-5.0302,-5.0302,-5.0302,-5.0302,-5.0302,-5.0302,-5.0455,-5.1563,-5.269,-5.3855,-5.5021,-5.5403,-5.5403,-5.5403,-5.5403,-5.5403,-5.5403,-5.5396,-5.539,-5.539,-5.5415,-5.544,-5.5432,-5.5432,-5.5444,-5.5492,-5.5504,-5.5504,-5.5504,-5.5516,-5.5539,-5.5539,-5.5551,-5.5596,-5.5692,-5.5703,-5.5703,-5.5703,-5.5703,-5.5703,-5.5703,-5.5703,-5.5703,-5.5703,-5.5703,-5.5703,-5.5703,-5.5671,-5.5629,-5.5629,-5.5585,-5.5562,-5.5562,-5.5562,-5.5551,-5.5539,-5.5551,-5.5551,-5.552,-5.4975,-5.4759,-4.4488,-4.4342,-4.3699,-4.1001,-3.9166,-3.7221,-3.4142,-3.4142,-3.4541,-3.3747,0.0,0.0,0.0,0.0,0.0,0.0,0.0,0.0,0.0,-2.5615,0.0,0.0,0.0,0.0,0.0,0.0,-3.0307,-3.2145,-3.2516,-3.4369,-3.8323,-4.0673,-4.2536,-4.3968,-4.4857,-4.5307,-4.5307,-4.5307,-4.5307,-4.5307,-4.5307,-4.5307,-4.5364,-4.7035,-4.7788,-4.7884,-4.9576,-5.0302,-5.0302,-5.0302,-5.0302,-5.0302,-5.0302,-5.0302,-5.0302,-5.0302,-5.0512,-5.0971,-5.2327,-5.3359,-5.4237,-5.5116,-5.5403,-5.5403,-5.5403,-5.5403,-5.5403,-5.5403,-5.5403,-5.5403,-5.5403,-5.5403,-5.5403,-5.5396,-5.5409,-5.5421,-5.5458,-5.5451,-5.5451,-5.5451,-5.5456,-5.5468,-5.5468,-5.548,-5.5527,-5.5607,-5.5618,-5.5629,-5.5651,-5.5651,-5.5651,-5.5651,-5.5651,-5.5651,-5.5629,-5.564,-5.5651,-5.5629,-5.5607,-5.5585,-5.5562,-5.5527,-5.5504,-5.5504,-5.5504,-5.5492,-5.5468,-5.5492,-5.5492,-5.5468,-5.5492,-5.5516]},{"header":{"parameterUnit":"m.s-1","parameterCategory":1,"la1":30.6,"la2":29.2853,"lo1":-89.7004,"lo2":-87.6739,"dy":0.0162,"dx":0.0183,"nx":112,"ny":82,"refTime":"2025-05-24T06:00:00:Z","depth":0,"parameterNumber":3,"parameterNumberName":"V-component_of_WINDS"},"data":[0.0,0.0,0.0,0.0,0.0,0.0,0.0,0.0,0.0,0.0,0.0,0.0,0.0,0.0,0.0,0.0,0.0,0.0,0.0,0.0,0.0,0.0,0.0,0.0,0.0,0.0,0.0,0.0,0.0,0.0,0.0,0.0,0.0,0.0,0.0,0.0,0.0,0.0,0.0,0.0,0.0,0.0,0.0,0.0,0.0,0.0,0.0,0.0,0.0,0.0,0.0,0.0,0.0,0.0,0.0,0.0,0.0,0.0,0.0,0.0,0.0,0.0,0.0,0.0,0.0,0.0,0.0,0.0,0.0,0.0,0.0,0.0,0.0,0.0,0.0,0.0,0.0,0.0,0.0,0.0,0.0,0.0,0.0,0.0,0.0,0.0,0.0,0.0,0.0,0.0,0.158,0.132,0.2841,0.4247,0.5274,0.5383,0.5274,0.4933,0.0,0.0,0.0,0.0,0.0,0.0,0.0,0.0,0.0,0.0,0.0,0.0,0.0,0.0,0.0,0.0,0.0,0.0,0.0,0.0,0.0,0.0,0.0,0.0,0.0,0.0,0.0,0.0,0.0,0.0,0.0,0.0,0.0,0.0,0.0,0.0,0.0,0.0,0.0,0.0,0.0,0.0,0.0,0.0,0.0,0.0,0.0,0.0,0.0,0.0,0.0,0.0,0.0,0.0,0.0,0.0,0.0,0.0,0.0,0.0,0.0,0.0,0.0,0.0,0.0,0.0,0.0,0.0,0.0,0.0,0.0,0.0,0.0,0.0,0.0,0.0,0.0,0.0,0.0,0.0,0.0,0.0,0.0,0.0,0.0,0.0,0.0,0.0,0.0,0.0,0.0,0.0,0.0,0.0,0.0,0.0,0.0,0.0,0.0,0.0,0.0,0.0,0.0,0.0,0.057,0.1237,0.2169,0.3184,0.4232,0.4251,0.4401,0.4946,0.0,0.0,0.0,0.0,0.0,0.0,0.0,0.0,0.0,0.0,0.0,0.0,0.0,0.0,0.0,0.0,0.0,0.0,0.0,0.0,0.0,0.0,0.0,0.0,0.0,0.0,0.0,0.0,0.0,0.0,0.0,0.0,0.0,0.0,0.0,0.0,0.0,0.0,0.0,0.0,0.0,0.0,0.0,0.0,0.0,0.0,0.0,0.0,0.0,0.0,0.0,0.0,0.0,0.0,0.0,0.0,0.0,0.0,0.0,0.0,0.0,0.0,0.0,0.0,0.0,0.0,0.0,0.0,0.0,0.0,0.0,0.0,0.0,0.0,0.0,0.0,0.0,0.0,0.0,0.0,0.0,0.0,0.0,0.0,0.0,0.0,0.0,0.0,0.0,0.0,0.0,0.0,0.0,0.0,0.0,0.0,0.0,0.0,0.0,0.0,0.0,0.0,0.0,0.0409,0.0346,0.1244,0.1643,0.2313,0.3424,0.3673,0.396,0.4334,0.4205,0.0,0.0,0.0,0.0,0.0,0.0,0.0,0.0,0.0,0.0,0.0,0.0,0.0,0.0,0.0,0.0,0.0,0.0,0.0,0.0,0.0,0.0,0.0,0.0,0.0,0.0,0.0,0.0,0.0,0.0,0.0,0.0,0.0,0.0,0.0,0.0,0.0,0.0,0.0,0.0,0.0,0.0,0.0,0.0,0.0,0.0,0.0,0.0,0.0,0.0,0.0,0.0,0.0,0.0,0.0,0.0,0.0,0.0,0.0,0.0,0.0,0.0,0.0,0.0,0.0,0.0,0.0,0.0,0.0,0.0,0.0,0.0,0.0,0.0,0.0,0.0,0.0,0.0,0.0,0.0,0.0,0.0,0.0,0.0,0.0,0.0,0.0,0.0,0.0,0.0,0.0,0.0,0.0,0.0,0.0,0.0,0.0,0.0,0.0,0.0,0.0,0.0,0.0354,0.0263,0.0999,0.1014,0.1436,0.2515,0.2932,0.3298,0.3665,0.3583,0.0,0.0,0.0,0.0,0.0,0.0,0.0,0.0,0.0,0.0,0.0,0.0,0.0,0.0,0.0,0.0,0.0,0.0,0.0,0.0,0.0,0.0,0.0,0.0,0.0,0.0,0.0,0.0,0.0,0.0,0.0,0.0,0.0,0.0,0.0,0.0,0.0,0.0,0.0,0.0,0.0,0.0,0.0,0.0,0.0,0.0,0.0,0.0,0.0,0.0,0.0,0.0,0.0,0.0,0.0,0.0,0.0,0.0,0.0,0.0,0.0,0.0,0.0,0.0,0.0,0.0,0.0,0.0,0.0,0.0,0.0,0.0,0.0,0.0,0.0,0.0,0.0,0.0,0.0,0.0,0.0,0.0,0.0,0.0,0.0,0.0,0.0,0.0,0.0,0.0,0.0,0.0,0.0,0.0,0.0,0.0,0.0,0.0,0.0,0.0,0.0,0.0,0.0036,0.004,0.0084,0.0086,0.0473,0.1346,0.1466,0.1992,0.3261,0.2986,0.0,0.0,0.0,0.0,0.0,0.0,0.0,0.0,0.0,0.0,0.0,0.0,0.0,0.0,0.0,0.0,0.0,0.0,0.0,0.0,0.0,0.0,0.0,0.0,0.0,0.0,0.0,0.0,0.0,0.0,0.0,0.0,0.0,0.0,0.0,0.0,0.0,0.0,0.0,0.0,0.0,0.0,0.0,0.0,0.0,0.0,0.0,0.0,0.0,0.0,0.0,0.0,0.0,0.0,0.0,0.0,0.0,0.0,0.0,0.0,0.0,0.0,0.0,0.0,0.0,0.0,0.0,0.0,0.0,0.0,0.0,0.0,0.0,0.0,0.0,0.0,0.0,0.0,0.0,0.0,0.0,0.0,0.0,0.0,0.0,0.0,0.0,0.0,0.0,0.0,0.0,0.0,0.0,0.0,0.0,0.0,0.0,0.0,0.0,0.0,0.0,0.0,0.0,0.0,0.0,0.0,0.0131,0.0464,0.0911,0.1545,0.2427,0.0,0.0,0.0,0.0,0.0,0.0,0.0,0.0,0.0,0.0,0.0,0.0,0.0,0.0,0.0,0.0,0.0,0.0,0.0,0.0,0.0,0.0,0.0,0.0,0.0,0.0,0.0,0.0,0.0,0.0,0.0,0.0,0.0,0.0,0.0,0.0,0.0,0.0,0.0,0.0,0.0,0.0,0.0,0.0,0.0,0.0,0.0,0.0,0.0,0.0,0.0,0.0,0.0,0.0,0.0,0.0,0.0,0.0,0.0,0.0,0.0,0.0,0.0,0.0,0.0,0.0,0.0,0.0,0.0,0.0,0.0,0.0,0.0,0.0,0.0,0.0,0.0,0.0,0.0,0.0,0.0,0.0,0.0,0.0,0.0,0.0,0.0,0.0,0.0,0.0,0.0,0.0,0.0,0.0,0.0,0.0,0.0,0.0,0.0,0.0,0.0,0.0,0.0,0.0,0.0,0.0,0.0,0.0,0.0,0.0481,0.1003,0.1601,0.0,0.0,0.0,0.0,0.0,0.0,0.0,0.0,0.0,0.0,0.0,0.0,0.0,0.0,0.0,0.0,0.0,0.0,0.0,0.0,0.0,0.0,0.0,0.0,0.0,0.0,0.0,0.0,0.0,0.0,0.0,0.0,0.0,0.0,0.0,0.0,0.0,0.0,0.0,0.0,0.0,0.0,0.0,0.0,0.0,0.0,0.0,0.0,0.0,0.0,0.0,0.0,0.0,0.0,0.0,0.0,0.0,0.0,0.0,0.0,0.0,0.0,0.0,0.0,0.0,0.0,0.0,0.0,0.0,0.0,0.0,0.0,0.0,0.0,0.0,0.0,0.0,0.0,0.0,0.0,0.0,0.0,0.0,0.0,0.0,0.0,0.0,0.0,0.0,0.0,0.0,0.0,0.0,0.0,0.0,0.0,0.0,0.0,0.0,0.0,0.0,0.0,0.0,0.0,0.0,0.0,0.0,0.0,0.0,0.0,0.0254,0.0,0.0,0.0,0.0,0.0,0.0,0.0,0.0,0.0,0.0,0.0,0.0,0.0,0.0,0.0,0.0,0.0,0.0,0.0,0.0,0.0,0.0,0.0,0.0,0.0,0.0,0.0,0.0,0.0,0.0,0.0,0.0,0.0,0.0,0.0,0.0,0.0,0.0,0.0,0.0,0.0,0.0,0.0,0.0,0.0,0.0,0.0,0.0,0.0,0.0,0.0,0.0,0.0,0.0,0.0,0.0,0.0,0.0,0.0,0.0,0.0,0.0,0.0,0.0,0.0,0.0,0.0,0.0,0.0,0.0,0.0,0.0,0.0,0.0,0.0,0.0,0.0,0.0,0.0,0.0,0.0,0.0,0.0,0.0,0.0,0.0,0.0,0.0,0.0,0.0,0.0,0.0,0.0,0.0,0.0,0.0,0.0,0.0,0.0,0.0,0.0,0.0,0.0,0.0,0.0,0.0,0.0,0.0,0.0,0.0,0.0,0.0261,0.0869,0.0,0.0,0.0,0.0,0.0,0.0,0.0,0.0,0.0,0.0,0.0,0.0,0.0,0.0,0.0,0.0,0.0,0.0,0.0,0.0,0.0,0.0,0.0,0.0,0.0,0.0,0.0,0.0,0.0,0.0,0.0,0.0,0.0,0.0,0.0,0.0,0.0,0.0,0.0,0.0,0.0,0.0,0.0,0.0,0.0,0.0,0.0,0.0,0.0,0.0,0.0,0.0,0.0,0.0,0.0,0.0,0.0,0.0,0.0,0.0,0.0,0.0,0.0,0.0,0.0,0.0,0.0,0.0,0.0,0.0,0.0,0.0,0.0,0.0,0.0,0.0,0.0,0.0,0.0,0.0,0.0,0.0,0.0,0.0,0.0,0.0,0.0,0.0,0.0,0.0,0.0,0.0,0.0,0.0,0.0,0.0,0.0,0.0,0.0,0.0,0.0,0.0,0.0,0.0,0.0,0.0,0.0,0.0,0.0,0.0,0.0152,0.0534,0.0,0.0,0.0,0.0,0.0,0.0,0.0,0.0,0.0,0.0,0.0,0.0,0.0,0.0,0.0,0.0,0.0,0.0,0.0,0.0,0.0,0.0,0.0,0.0,0.0,0.0,0.0,0.0,0.0,0.0,0.0,0.0,0.0,0.0,0.0,0.0,0.0,0.0,0.0,0.0,0.0,0.0,0.0,0.0,0.0,0.0,0.0,0.0,0.0,0.0,0.0,0.0,0.0,0.0,0.0,0.0,0.0,0.0,0.0,0.0,0.0,0.0,0.0,0.0,0.0,0.0,0.0,0.0,0.0,0.0,0.0,0.0,0.0,0.0,0.0,0.0,0.0,0.0,0.0,0.0,0.0,0.0,0.0,0.0,0.0,0.0,0.0,0.0,0.0,0.0,0.0,0.0,0.0,0.0,0.0,0.0,0.0,0.0,0.0,0.0,0.0,0.0,0.0,0.0,0.0,0.0,0.0,0.0,0.0,0.0,0.0,0.0,0.0,0.0,0.0,0.0,0.0,0.0,0.0,0.0,0.0,0.0,0.0,0.0,0.0,0.0,0.0,0.0,0.0,0.0,0.0,0.0,0.0,0.0,0.0,0.0,0.0,0.0,0.0,0.0,0.0,0.0,0.0,0.0,0.0,0.0,0.0,0.0,0.0,0.0,0.0,0.0,0.0,0.0,0.0,0.0,0.0,0.0,0.0,0.0,0.0,0.0,0.0,0.0,0.0,0.0,0.0,0.0,0.0,0.0,0.0,0.0,0.0,0.0,0.0,0.0,0.0,0.0,0.0,0.0,0.0,0.0,0.0,0.0,0.0,0.0,0.0,0.0,0.0,0.0,0.0,0.0,0.0,0.0,0.0,0.0,0.0,0.0,0.0,0.0,0.0,0.0,0.0,0.0,0.0,0.0,0.0,0.0,0.0,0.0,0.0,0.0,0.0,0.0,0.0,0.0,0.0,0.0,0.0,0.0,0.0,0.0,0.0,0.0,0.0315,0.0,0.0,0.0,0.0,0.0,0.0,0.0,0.0,0.0,0.0,0.0,0.0,0.0,0.0,0.0,0.0,0.0,0.0,0.0,0.0,0.0,0.0,0.0,0.0,0.0,0.0,0.0,0.0,0.0,0.0,0.0,0.0,0.0,0.0,0.0,0.0,0.0,0.0,0.0,0.0,0.0,0.0,0.0,0.0,0.0,0.0,0.0,0.0,0.0,0.0,0.0,0.0,0.0,0.0,0.0,0.0,0.0,0.0,0.0,0.0,0.0,0.0,0.0,0.0,0.0,0.0,0.0,0.0,0.0,0.0,0.0,0.0,0.0,0.0,0.0,0.0,0.0,0.0,0.0,0.0,0.0,0.0,0.0,0.0,0.0,0.0,0.0,0.0,0.0,0.0,0.0,0.0,0.0,0.0,0.0,0.0,0.0,0.0,0.0,0.0,0.0,0.0,0.0,0.0,0.0,0.0,0.0,0.0,0.0,0.0,0.0,0.0168,0.0,0.0,0.0,0.0,0.0,0.0,0.0,0.0,0.0,0.0,0.0,0.0,0.0,0.0,0.0,0.0,0.0,0.0,0.0,0.0,0.0,0.0,0.0,0.0,0.0,0.0,0.0,0.0,0.0,0.0,0.0,0.0,0.0,0.0,0.0,0.0,0.0,0.0,0.0,0.0,0.0,0.0,0.0,0.0,0.0,0.0,0.0,0.0,0.0,0.0,0.0,0.0,0.0,0.0,0.0,0.0,0.0,0.0,0.0,0.0,0.0,0.0,0.0,0.0,0.0,0.0,0.0,0.0,0.0,0.0,0.0,0.0,0.0,0.0,0.0,0.0,0.0,0.0,0.0,0.0,0.0,0.0,0.0,0.0,0.0,0.0,0.0,0.0,0.0,0.0,0.0,0.0,0.0,0.0,0.0,0.0,0.0,0.0,0.0,0.0,0.0,0.0,0.0,0.0,0.0,0.0,0.0,0.0,0.0,0.0,0.0,0.0,0.0,0.0,0.0,0.0,0.0,0.0,0.0,0.0,0.0,0.0,0.0,0.0,0.0,0.0,0.0,0.0,0.0,0.0,0.0,0.0,0.0,0.0,0.0,0.0,0.0,0.0,0.0,0.0,0.0,0.0,0.0,0.0,0.0,0.0261,0.0272,0.0,0.0,0.0,0.0,0.0,0.0,0.0,0.0,0.0,0.0,0.0,0.0,0.0,0.0,0.0,0.0,0.0,0.0,0.0,0.0,0.0,0.0,0.0,0.0,0.0,0.0,0.0,0.0,0.0,0.0,0.0,0.0,0.0,0.0,0.0,0.0,0.0,0.0,0.0,0.0,0.0,0.0,0.0,0.0,0.0,0.0,0.0,0.0,0.0,0.0,0.0,0.0,0.0,0.0,0.0,0.0,0.0,0.0,0.0,0.0,0.0,0.0,0.0,0.0,0.0,0.0,0.0,0.0,0.0,0.0,0.0,0.0,0.0,0.0,0.0,0.0,0.0,0.0,0.0,0.0,0.0,0.0,0.0,0.0,0.0,0.0,0.0,0.0,0.0,0.0,0.0,0.0,0.0,0.0,0.0,0.0,0.0,0.0,0.0,0.0,0.0,0.0,0.0,0.0,0.0,0.0,0.0,0.0,0.0,0.0337,0.0124,0.0216,0.0097,0.0,0.0,0.0,0.0,0.0,0.0,0.0,0.0,0.0,0.0,0.0,0.0,0.0,0.0,0.0,0.0,0.0,0.0,0.0,0.0,0.0,0.0,0.0,0.0,0.0,0.0,0.0,0.0,0.0,0.0,0.0,0.0,0.0,0.0,0.0,0.0,0.0,0.0,0.0,0.0,0.0,0.0,0.0,0.0,0.0,0.0,0.0,0.0,0.0,0.0,0.0,0.0,0.0,0.0,0.0,0.0,0.0,0.0,0.0,0.0,0.0,0.0,0.0,0.0,0.0,0.0,0.0,0.0,0.0,0.0,0.0,0.0,0.0,0.0,0.0,0.0,0.0,0.0,0.0,0.0,0.0,0.0,0.0,0.0,0.0,0.0,0.0,0.0,0.0,0.0,0.0,0.0,0.0,0.0,0.0,0.0,0.0,0.0,0.0,0.0,0.0,0.0,0.0,0.0,0.0,0.0,0.0,0.0,0.0217,0.01,0.0196,0.0106,0.0,0.0,0.0,0.0,0.0,0.0,0.0,0.0,0.0,0.0,0.0,0.0,0.0,0.0,0.0,0.0,0.0,0.0,0.0,0.0,0.0,0.0,0.0,0.0,0.0,0.0,0.0,0.0,0.0,0.0,0.0,0.0,0.0,0.0,0.0,0.0,0.0,0.0,0.0,0.0,0.0,0.0,0.0,0.0,0.0,0.0,0.0,0.0,0.0,0.0,0.0,0.0,0.0,0.0,0.0,0.0,0.0,0.0,0.0,0.0,0.0,0.0,0.0,0.0,0.0,0.0,0.0,0.0,0.0,0.0,0.0,0.0,0.0,0.0,0.0,0.0,0.0,0.0,0.0,0.0,0.0,0.0,0.0,0.0,0.0,0.0,0.0,0.0,0.0,0.0,0.0,0.0,0.0,0.0,0.0,0.0,0.0,0.0,0.0,0.0,0.0,0.0,0.0,0.0,0.0,0.0,0.0,0.0,0.0,0.0,0.0299,0.012,0.0,0.0,0.0,0.0,0.0,0.0,0.0,0.0,0.0,0.0,0.0,0.0,0.0,0.0,0.0,0.0,0.0,0.0,0.0,0.0,0.0,0.0,0.0,0.0,0.0,0.0,0.0,0.0,0.0,0.0,0.0,0.0,0.0,0.0,0.0,0.0,0.0,0.0,0.0,0.0,0.0,0.0,0.0,0.0,0.0,0.0,0.0,0.0,0.0,0.0,0.0,0.0,0.0,0.0,0.0,0.0,0.0,0.0,0.0,0.0,0.0,0.0,0.0,0.0,0.0,0.0,0.0,0.0,0.0,0.0,0.0,0.0,0.0,0.0,0.0,0.0,0.0,0.0,0.0,0.0,0.0,0.0,0.0,0.0,0.0,0.0,0.0,0.0,0.0,0.0,0.0,0.0,0.0,0.0,0.0,0.0,0.0,0.0,0.0,0.0,0.0,0.0,0.0,0.0,0.0,0.0,0.0,0.0,0.0,0.0,0.0119,0.0043,0.0,0.0,0.0,0.0,0.0,0.0,0.0,0.0,0.0,0.0,0.0,0.0,0.0,0.0,0.0,0.0,0.0,0.0,0.0,0.0,0.0,0.0,0.0,0.0,0.0,0.0,0.0,0.0,0.0,0.0,0.0,0.0,0.0,0.0,0.0,0.0,0.0,0.0,0.0,0.0,0.0,0.0,0.0,0.0,0.0,0.0,0.0,0.0,0.0,0.0,0.0,0.0,0.0,0.0,0.0,0.0,0.0,0.0,0.0,0.0,0.0,0.0,0.0,0.0,0.0,0.0,0.0,0.0,0.0,0.0,0.0,0.0,0.0,0.0,0.0,0.0,0.0,0.0,0.0,0.0,0.0,0.0,0.0,0.0,0.0,0.0,0.0,0.0,0.0,0.0,0.0,0.0,0.0,0.0,0.0,0.0,0.0,0.0,0.0,0.0,0.0,0.0,0.0,0.0,0.0,0.0,0.0,0.0,0.0,0.0,0.0,0.0,0.0,0.0,0.0,0.0,0.0,0.0,0.0,0.0,0.0,0.0,0.0,0.0,0.0,0.0,0.0,0.0,0.0,0.0,0.0,0.0,0.0,0.0,0.0,0.0,0.0,0.0,0.0,0.0,0.0,0.0,0.0,0.0,0.0,0.0,0.0,0.0,0.0,0.0,0.0,0.0,0.0,0.0,0.0,0.0,0.0,0.0,0.0,0.0,0.0,0.0,0.0,0.0,0.0,0.0,0.0,0.0,0.0,0.0,0.0,0.0,0.0,0.0,0.0,0.0,0.0,0.0,0.0,0.0,0.0,0.0,0.0,0.0,0.0,0.0,0.0,0.0,0.0,0.0,0.0,0.0,0.0,0.0,0.0,0.0,0.0,0.0,0.0,0.0,0.0,0.0,0.0,0.0,0.0,0.0,0.0,0.0,0.0,0.0,0.0,0.0,0.0,0.0,0.0,0.0,0.0,0.0,0.0,0.0236,0.0085,0.0,0.0,0.0,0.0,0.0,0.0,0.0,0.0,0.0,0.0,0.0,0.0,0.0,0.0,0.0,0.0,0.0,0.0,0.0,0.0,0.0,0.0,0.0,0.0,0.0,0.0,0.0,0.0,0.0,0.0,0.0,0.0,0.0,0.0,0.0,0.0,0.0,0.0,0.0,0.0,0.0,0.0,0.0,0.0,0.0,0.0,0.0,0.0,0.0,0.0,0.0,0.0,0.0,0.0,0.0,0.0,0.0,0.0,0.0,0.0,0.0,0.0,0.0,0.0,0.0,0.0,0.0,0.0,0.0,0.0,0.0,0.0,0.0,0.0,0.0,0.0,0.0,0.0,0.0,0.0,0.0,0.0,0.0,0.0,0.0,0.0,0.0,0.0,0.0,0.0,0.0,0.0,0.0,0.0,0.0,0.0,0.0,0.0,0.0,0.0,0.0,0.0,0.0,0.0,0.0,0.0,0.0,0.0,0.0604,0.0388,0.034,0.0137,0.0,0.0,0.0,0.0,0.0,0.0,0.0,0.0,0.0,0.0,0.0,0.0,0.0,0.0,0.0,0.0,0.0,0.0,0.0,0.0,0.0,0.0,0.0,0.0,0.0,0.0,0.0,0.0,0.0,0.0,0.0,0.0,0.0,0.0,0.0,0.0,0.0,0.0,0.0,0.0,0.0,0.0,0.0,0.0,0.0,0.0,0.0,0.0,0.0,0.0,0.0,0.0,0.0,0.0,0.0,0.0,0.0,0.0,0.0,0.0,0.0,0.0,0.0,0.0,0.0,0.0,0.0,0.0,0.0,0.0,0.0,0.0,0.0,0.0,0.0,0.0,0.0,0.0,0.0,0.0,0.0,0.0,0.0,0.0,0.0,0.0,0.0,0.0,0.0,0.0,0.0,0.0,0.0,0.0,0.0,0.0,0.0,0.0,0.0,0.0,0.0,0.0,0.0,0.0,0.0,0.0,0.0,0.0,0.0881,0.0701,0.0564,0.0245,0.0,0.0,0.0,0.0,0.0,0.0,0.0,0.0,0.0,0.0,0.0,0.0,0.0,0.0,0.0,0.0,0.0,0.0,0.0,0.0,0.0,0.0,0.0,0.0,0.0,0.0,0.0,0.0,0.0,0.0,0.0,0.0,0.0,0.0,0.0,0.0,0.0,0.0,0.0,0.0,0.0,0.0,0.0,0.0,0.0,0.0,0.0,0.0,0.0,0.0,0.0,0.0,0.0,0.0,0.0,0.0,0.0,0.0,0.0,0.0,0.0,0.0,0.0,0.0,0.0,0.0,0.0,0.0,0.0,0.0,0.0,0.0,0.0,0.0,0.0,0.0,0.0,0.0,0.0,0.0,0.0,0.0,0.0,0.0,0.0,0.0,0.0,0.0,0.0,0.0,0.0,0.0,0.0,0.0,0.0,0.0,0.0,0.0,0.0,0.0,0.0,0.0,0.0,0.0,0.0,0.0,0.0,0.0,0.1284,0.1102,0.0832,0.0366,0.0053,0.0,0.0,0.0,0.0,0.0,0.0,0.0,0.0,0.0,0.0,0.0,0.0,0.0,0.0,0.0,0.0,0.0,0.0,0.0,0.0,0.0,0.0,0.0,0.0,0.0,0.0,0.0,0.0,0.0,0.0,0.0,0.0,0.0,0.0,0.0,0.0,0.0,0.0,0.0,0.0,0.0,0.0,0.0,0.0,0.0,0.0,0.0,0.0,0.0,0.0,0.0,0.0,0.0,0.0,0.0,0.0,0.0,0.0,0.0,0.0,0.0,0.0,0.0,0.0,0.0,0.0,0.0,0.0,0.0,0.0,0.0,0.0,0.0,0.0,0.0,0.0,0.0,0.0,0.0,0.0,0.0,0.0,0.0,0.0,0.0,0.0,0.0,0.0,0.0,0.0,0.0,0.0,0.0,0.0,0.0,0.0,0.0,0.0,0.0,0.0,0.0,0.0,0.0,0.0,0.0,0.0,0.145,0.1387,0.1197,0.0916,0.0542,0.0217,0.0,0.0,0.0,0.0,0.0,0.0,0.0,0.0,0.0,0.0,0.0,0.0,0.0,0.0,0.0,0.0,0.0,0.0,0.0,0.0,0.0,0.0,0.0,0.0,0.0,0.0,0.0,0.0,0.0,0.0,0.0,0.0,0.0,0.0,0.0,0.0,0.0,0.0,0.0,0.0,0.0,0.0,0.0,0.0,0.0,0.0,0.0,0.0,0.0,0.0,0.0,0.0,0.0,0.0,0.0,0.0,0.0,0.0,0.0,0.0,0.0,0.0,0.0,0.0,0.0,0.0,0.0,0.0,0.0,0.0,0.0,0.0,0.0,0.0,0.0,0.0,0.0,0.0,0.0,0.0,0.0,0.0,0.0,0.0,0.0,0.0,0.0,0.0,0.0,0.0,0.0,0.0,0.0,0.0,0.0,0.0,0.0,0.0,0.0,0.0,0.0,0.0,0.1262,0.1378,0.0,0.1528,0.1603,0.1562,0.1394,0.0981,0.0777,0.0505,0.0056,0.0,0.0,0.0,0.0,0.0,0.0,0.0,0.0,0.0,0.0,0.0,0.0,0.0,0.0,0.0,0.0,0.0,0.0,0.0,0.0,0.0,0.0,0.0,0.0,0.0,0.0,0.0,0.0,0.0,0.0,0.0,0.0,0.0,0.0,0.0,0.0,0.0,0.0,0.0,0.0,0.0,0.0,0.0,0.0,0.0,0.0,0.0,0.0,0.0,0.0,0.0,0.0,0.0,0.0,0.0,0.0,0.0,0.0,0.0,0.0,0.0,0.0,0.0,0.0,0.0,0.0,0.0,0.0,0.0,0.0,0.0,0.0,0.0,0.0,0.0,0.0,0.0,0.0,0.0,0.0,0.0,0.0,0.0,0.0,0.0,0.0,0.0,0.0,0.0,0.0,0.0,0.0,0.0,0.0,0.0,0.0,0.0,0.0,0.1853,0.146,0.1379,0.1387,0.1534,0.1577,0.1623,0.17,0.1684,0.154,0.0993,0.085,0.0578,0.0058,0.0,0.0,0.0,0.0,0.0,0.0,0.0,0.0,0.0,0.0,0.0,0.0,0.0,0.0,0.0,0.0,0.0,0.0,0.0,0.0,0.0,0.0,0.0,0.0,0.0,0.0,0.0,0.0,0.0,0.0,0.0,0.0,0.0,0.0,0.0,0.0,0.0,0.0,0.0,0.0,0.0,0.0,0.0,0.0,0.0,0.0,0.0,0.0,0.0,0.0,0.0,0.0,0.0,0.0,0.0,0.0,0.0,0.0,0.0,0.0,0.0,0.0,0.0,0.0,0.0,0.0,0.0,0.0,0.0,0.0,0.0,0.0,0.0,0.0,0.0,0.0,0.0,0.0,0.0,0.0,0.0,0.0,0.0,0.0,0.0,0.0,0.0,0.0,0.0,0.0,0.5088,0.4542,0.3366,0.2413,0.1792,0.1407,0.0,0.0,0.1485,0.1565,0.1566,0.1599,0.1639,0.167,0.1701,0.1792,0.1549,0.1237,0.097,0.0639,0.0354,0.006,0.0,0.0,0.0,0.0,0.0,0.0,0.0,0.0,0.0,0.0,0.0,0.0,0.0,0.0,0.0,0.0,0.0,0.0,0.0,0.0,0.0,0.0,0.0,0.0,0.0,0.0,0.0,0.0,0.0,0.0,0.0,0.0,0.0,0.0,0.0,0.0,0.0,0.0,0.0,0.0,0.0,0.0,0.0,0.0,0.0,0.0,0.0,0.0,0.0,0.0,0.0,0.0,0.0,0.0,0.0,0.0,0.0,0.0,0.0,0.0,0.0,0.0,0.0,0.0,0.0,0.0,0.0,0.0,0.0,0.0,0.0,0.0,0.0,0.0,0.0,0.0,0.0,0.0,0.0,0.0,0.0,0.0,0.0,0.0,0.0,0.0,0.0,0.0,0.0,0.0,0.475,0.4167,0.0,0.0,0.1534,0.1401,0.1524,0.1523,0.1525,0.1628,0.1658,0.1677,0.1761,0.1776,0.1746,0.0,0.17,0.1431,0.0989,0.0762,0.0532,0.0059,0.0,0.0,0.0,0.0,0.0,0.0,0.0,0.0,0.0,0.0,0.0,0.0,0.0,0.0,0.0,0.0,0.0,0.0,0.0,0.0,0.0,0.0,0.0,0.0,0.0,0.0,0.0,0.0,0.0,0.0,0.0,0.0,0.0,0.0,0.0,0.0,0.0,0.0,0.0,0.0,0.0,0.0,0.0,0.0,0.0,0.0,0.0,0.0,0.0,0.0,0.0,0.0,0.0,0.0,0.0,0.0,0.0,0.0,0.0,0.0,0.0,0.0,0.0,0.0,0.0,0.0,0.0,0.0,0.0,0.0,0.0,0.0,0.0,0.0,0.0,0.0,0.0,0.0,0.0,0.0,0.0,0.0,0.0,0.0,0.0,0.0,0.0,0.0,0.0,0.0,0.4426,0.0,0.0,0.1805,0.1489,0.1534,0.1594,0.1608,0.1628,0.1702,0.1717,0.1726,0.1811,0.1817,0.1779,0.1775,0.1732,0.1514,0.1124,0.089,0.0652,0.0178,0.006,0.0,0.0,0.0,0.0,0.0,0.0,0.0,0.0,0.0,0.0,0.0,0.0,0.0,0.0,0.0,0.0,0.0,0.0,0.0,0.0,0.0,0.0,0.0,0.0,0.0,0.0,0.0,0.0,0.0,0.0,0.0,0.0,0.0,0.0,0.0,0.0,0.0,0.0,0.0,0.0,0.0,0.0,0.0,0.0,0.0,0.0,0.0,0.0,0.0,0.0,0.0,0.0,0.0,0.0,0.0,0.0,0.0,0.0,0.0,0.0,0.0,0.0,0.0,0.0,0.0,0.0,0.0,0.0,0.0,0.0,0.0,0.0,0.0,0.0,0.0,0.0,0.0,0.0,0.0,0.0,0.0,0.0,0.0,0.0,0.0,0.0,0.0,0.0,0.0,0.0,0.0,0.3656,0.1931,0.1568,0.1628,0.1686,0.17,0.171,0.1796,0.1803,0.1813,0.1788,0.1793,0.1804,0.1778,0.1574,0.1421,0.1384,0.0904,0.0482,0.0482,0.0178,0.0,0.0,0.0,0.0,0.0,0.0,0.0,0.0,0.0,0.0,0.0,0.0,0.0,0.0,0.0,0.0,0.0,0.0,0.0,0.0,0.0,0.0,0.0,0.0,0.0,0.0,0.0,0.0,0.0,0.0,0.0,0.0,0.0,0.0,0.0,0.0,0.0,0.0,0.0,0.0,0.0,0.0,0.0,0.0,0.0,0.0,0.0,0.0,0.0,0.0,0.0,0.0,0.0,0.0,0.0,0.0,0.0,0.0,0.0,0.0,0.0,0.0,0.0,0.0,0.0,0.0,0.0,0.0,0.0,0.0,0.0,0.0,0.0,0.0,0.0,0.0,0.0,0.0,0.0,0.0,0.0,0.0,0.0,0.0,0.0,0.0,0.0,0.0,0.0,0.0,0.0,0.2979,0.1901,0.1646,0.1685,0.1725,0.1788,0.1792,0.1802,0.1804,0.1801,0.1737,0.1751,0.1781,0.1775,0.1749,0.1665,0.1465,0.1275,0.1086,0.0845,0.054,0.0,0.0,0.0,0.0,0.0,0.0,0.0,0.0,0.0,0.0,0.0,0.0,0.0,0.0,0.0,0.0,0.0,0.0,0.0,0.0,0.0,0.0,0.0,0.0,0.0,0.0,0.0,0.0,0.0,0.0,0.0,0.0,0.0,0.0,0.0,0.0,0.0,0.0,0.0,0.0,0.0,0.0,0.0,0.0,0.0,0.0,0.0,0.0,0.0,0.0,0.0,0.0,0.0,0.0,0.0,0.0,0.0,0.0,0.0,0.0,0.0,0.0,0.0,0.0,0.0,0.0,0.0,0.0,0.0,0.0,0.0,0.0,0.0,0.0,0.0,0.0,0.0,0.0,0.0,0.0,0.0,0.0,0.0,0.0,0.0,0.0,0.0,0.0,0.0,0.4107,0.3365,0.2653,0.1937,0.176,0.1728,0.1814,0.1812,0.1804,0.1804,0.1787,0.1769,0.1706,0.1712,0.1745,0.177,0.1857,0.1838,0.167,0.159,0.1454,0.1225,0.0911,0.0606,0.0,0.0,0.0,0.0,0.0,0.0,0.0,0.0,0.0,0.0,0.0,0.0,0.0,0.0,0.0,0.0,0.0,0.0,0.0,0.0,0.0,0.0,0.0,0.0,0.0,0.0,0.0,0.0,0.0,0.0,0.0,0.0,0.0,0.0,0.0,0.0,0.0,0.0,0.0,0.0,0.0,0.0,0.0,0.0,0.0,0.0,0.0,0.0,0.0,0.0,0.0,0.0,0.0,0.0,0.0,0.0,0.0,0.0,0.0,0.0,0.0,0.0,0.0,0.0,0.0,0.0,0.0,0.0,0.0,0.0,0.0,0.0,0.0,0.0,0.0,0.0,0.0,0.0,0.0,0.0,0.0,0.0,0.0,0.0,0.0,0.0,0.0,0.0,0.3307,0.2842,0.2665,0.1999,0.1807,0.1814,0.1787,0.1825,0.1803,0.1798,0.1752,0.1719,0.0,0.0,0.1698,0.1758,0.178,0.1823,0.2002,0.1724,0.1528,0.0,0.0,0.0,0.0,0.0,0.0,0.0065,0.0,0.0,0.0,0.0,0.0,0.0,0.0,0.0,0.0,0.0,0.0,0.0,0.0,0.0,0.0,0.0,0.0,0.0,0.0,0.0,0.0,0.0,0.0,0.0,0.0,0.0,0.0,0.0,0.0,0.0,0.0,0.0,0.0,0.0,0.0,0.0,0.0,0.0,0.0,0.0,0.0,0.0,0.0,0.0,0.0,0.0,0.0,0.0,0.0,0.0,0.0,0.0,0.0,0.0,0.0,0.0,0.0,0.0,0.0,0.0,0.0,0.0,0.0,0.0,0.0,0.0,0.0,0.0,0.0,0.0,0.0,0.0,0.0,0.0,0.0,0.0,0.0,0.0,0.0,0.0,0.0,0.0,0.0,0.0,0.3337,0.2563,0.2049,0.1828,0.1783,0.178,0.182,0.181,0.1785,0.1665,0.1639,0.161,0.0,0.0,0.0,0.1727,0.174,0.0,0.2002,0.1943,0.0,0.1984,0.0,0.1399,0.1346,0.1101,0.0,0.0,0.0131,0.0,0.0,0.0,0.0,0.0,0.0,0.0,0.0,0.0,0.0,0.0,0.0,0.0,0.0,0.0,0.0,0.0,0.0,0.0,0.0,0.0,0.0,0.0,0.0,0.0,0.0,0.0,0.0,0.0,0.0,0.0,0.0,0.0,0.0,0.0,0.0,0.0,0.0,0.0,0.0,0.0,0.0,0.0,0.0,0.0,0.0,0.0,0.0,0.0,0.0,0.0,0.0,0.0,0.0,0.0,0.0,0.0,0.0,0.0,0.0,0.0,0.0,0.0,0.0,0.0,0.0,0.0,0.0,0.0,0.0,0.0,0.0,0.0,0.0,0.0,0.0,0.0,0.0,0.0,0.0,0.0,0.0,0.0,0.3045,0.2543,0.2435,0.1958,0.1785,0.1767,0.1737,0.2028,0.2293,0.2138,0.2138,0.0,0.0,0.0,0.0,0.0,0.0,0.0,0.2,0.2018,0.2039,0.0,0.1961,0.0,0.1642,0.1457,0.1197,0.0,0.0399,0.0133,0.0,0.0,0.0,0.0,0.0,0.0,0.0,0.0,0.0,0.0,0.0,0.0,0.0,0.0,0.0,0.0,0.0,0.0,0.0,0.0,0.0,0.0,0.0,0.0,0.0,0.0,0.0,0.0,0.0,0.0,0.0,0.0,0.0,0.0,0.0,0.0,0.0,0.0,0.0,0.0,0.0,0.0,0.0,0.0,0.0,0.0,0.0,0.0,0.0,0.0,0.0,0.0,0.0,0.0,0.0,0.0,0.0,0.0,0.0,0.0,0.0,0.0,0.0,0.0,0.0,0.0,0.0,0.0,0.0,0.0,0.0,0.0,0.0,0.0,0.0,0.0,0.0,0.0,0.0,0.0,0.0,0.0,0.304,0.305,0.3593,0.2586,0.2166,0.2072,0.2132,0.2578,0.2975,0.2945,0.0,0.2936,0.2691,0.2122,0.1655,0.1682,0.0,0.1838,0.1996,0.2018,0.2052,0.2211,0.2131,0.1993,0.1681,0.1683,0.1548,0.1212,0.0875,0.0471,0.0067,0.0067,0.0067,0.0,0.0,0.0,0.0,0.0,0.0,0.0,0.0,0.0,0.0,0.0,0.0,0.0,0.0,0.0,0.0,0.0,0.0,0.0,0.0,0.0,0.0,0.0,0.0,0.0,0.0,0.0,0.0,0.0,0.0,0.0,0.0,0.0,0.0,0.0,0.0,0.0,0.0,0.0,0.0,0.0,0.0,0.0,0.0,0.0,0.0,0.0,0.0,0.0,0.0,0.0,0.0,0.0,0.0,0.0,0.0,0.0,0.0,0.0,0.0,0.0,0.0,0.0,0.0,0.0,0.0,0.0,0.0,0.0,0.0,0.0,0.0,0.0,0.0,0.0,0.0,0.0,0.0,0.0,0.52,0.5067,0.5189,0.5021,0.4172,0.3635,0.4201,0.3539,0.0,0.0,0.0,0.3432,0.2517,0.2442,0.0,0.1718,0.0,0.0,0.0,0.0,0.2052,0.0,0.0,0.0,0.0,0.0,0.0,0.0,0.1481,0.1144,0.0471,0.0404,0.0269,0.0,0.0,0.0,0.0,0.0,0.0,0.0,0.0,0.0,0.0,0.0,0.0,0.0,0.0,0.0,0.0,0.0,0.0,0.0,0.0,0.0,0.0,0.0,0.0,0.0,0.0,0.0,0.0,0.0,0.0,0.0,0.0,0.0,0.0,0.0,0.0,0.0,0.0,0.0,0.0,0.0,0.0,0.0,0.0,0.0,0.0,0.0,0.0,0.0,0.0,0.0,0.0,0.0,0.0,0.0,0.0,0.0,0.0,0.0,0.0,0.0,0.0,0.0,0.0,0.0,0.0,0.0,0.0,0.0,0.0,0.0,0.0,0.0,0.0,0.0,0.0,0.0,0.0,0.0,0.5942,0.6032,0.641,0.5783,0.5062,0.4619,0.4743,0.0,0.0,0.0,0.0,0.4299,0.3718,0.0,0.0,0.0,0.0,0.0,0.0,0.0,0.0,0.0,0.0,0.0,0.0,0.0,0.0,0.1953,0.1885,0.1616,0.0875,0.0606,0.0337,0.0,0.0,0.0,0.0,0.0,0.0,0.0,0.0,0.0,0.0,0.0,0.0,0.0,0.0,0.0,0.0,0.0,0.0,0.0,0.0,0.0,0.0,0.0,0.0,0.0,0.0,0.0,0.0,0.0,0.0,0.0,0.0,0.0,0.0,0.0,0.0,0.0,0.0,0.0,0.0,0.0,0.0,0.0,0.0,0.0,0.0,0.0,0.0,0.0,0.0,0.0,0.0,0.0,0.0,0.0,0.0,0.0,0.0,0.0,0.0,0.0,0.0,0.0,0.0,0.0,0.0,0.0,0.0,0.0,0.0,0.0,0.0,0.0,0.0,0.0,0.0,0.0,0.0,0.0,0.6781,0.7057,0.7592,0.6675,0.6065,0.5645,0.5329,0.5352,0.0,0.0,0.5156,0.5119,0.4806,0.0,0.0,0.0,0.0,0.0,0.0,0.0,0.0,0.0,0.0,0.0,0.0,0.0,0.0,0.2222,0.2222,0.1885,0.1212,0.074,0.0404,0.0135,0.0135,0.0067,0.0,0.0067,0.0067,0.0,0.0,0.0,0.0,0.0,0.0,0.0,0.0,0.0,0.0,0.0,0.0,0.0,0.0,0.0,0.0,0.0,0.0,0.0,0.0,0.0,0.0,0.0065,0.0063,0.0,0.0,0.0,0.0,0.0,0.0,0.0,0.0,0.0,0.0,0.0,0.0,0.0,0.0,0.0,0.0,0.0,0.0,0.0,0.0,0.0,0.0,0.0,0.0,0.0,0.0,0.0,0.0,0.0,0.0,0.0,0.0,0.0,0.0,0.0,0.0,0.0,0.0,0.0,0.0,0.0,0.0,0.0,0.0,0.0,0.0,0.0,0.0,0.0,0.8841,0.9023,0.9184,0.9068,0.8103,0.7191,0.743,0.0,0.0,0.5825,0.5897,0.5631,0.4762,0.4766,0.0,0.0,0.0,0.0,0.0,0.0,0.0,0.0,0.0,0.0,0.0,0.0,0.0,0.2222,0.2222,0.202,0.1548,0.0875,0.0471,0.0471,0.0471,0.0337,0.0,0.0269,0.0269,0.0,0.0,0.0,0.0,0.0,0.0,0.0,0.0,0.0,0.0,0.0,0.0,0.0,0.0,0.0,0.0,0.0,0.0,0.0,0.0,0.0,0.0065,0.0323,0.0253,0.0,0.0,0.0,0.0,0.0,0.0,0.0,0.0,0.0,0.0,0.0,0.0,0.0,0.0,0.0,0.0,0.0,0.0,0.0,0.0,0.0,0.0,0.0,0.0,0.0,0.0,0.0,0.0,0.0,0.0,0.0,0.0,0.0,0.0,0.0,0.0,0.0,0.0,0.0,0.0,0.0,0.0,0.0,0.0,0.0,0.0,0.0,0.0,0.0,0.892,0.913,0.9303,0.9303,0.868,0.8062,0.7754,0.0,0.6206,0.6038,0.5993,0.5898,0.5507,0.5625,0.5557,0.0,0.0,0.0,0.0,0.0,0.0,0.0,0.0,0.0,0.0,0.0,0.2222,0.2222,0.2222,0.2155,0.1953,0.1481,0.1077,0.0875,0.0875,0.0808,0.0673,0.0808,0.0808,0.0673,0.0673,0.0673,0.0673,0.0673,0.0538,0.0337,0.0538,0.0538,0.0337,0.0538,0.0673,0.0673,0.0673,0.0673,0.0673,0.0673,0.0673,0.0673,0.0673,0.0664,0.0653,0.0776,0.07,0.0562,0.0371,0.0185,0.0,0.0,0.0,0.0,0.0,0.0,0.0,0.0,0.0,0.0057,0.0225,0.0112,0.0056,0.0224,0.0224,0.0168,0.0,0.0279,0.05,0.0278,0.0438,0.0541,0.0541,0.0533,0.0528,0.0528,0.0206,0.0,0.0,0.0,0.0,0.0,0.0,0.0,0.0,0.0,0.0,0.0,0.0,0.0,0.0,0.0,0.0101,0.0253,0.0253,0.0303,0.8682,0.8944,0.9079,0.9088,0.8866,0.8503,0.0,0.0,0.6718,0.6114,0.5993,0.5993,0.5993,0.6156,0.6152,0.0,0.0,0.0,0.0,0.0,0.0,0.0,0.0,0.0,0.0,0.2206,0.2222,0.2222,0.2222,0.2222,0.2222,0.1953,0.1616,0.1279,0.1279,0.1212,0.1077,0.1212,0.1212,0.1077,0.1077,0.1077,0.1077,0.1077,0.0942,0.0673,0.101,0.0942,0.0673,0.101,0.1077,0.1077,0.1077,0.1077,0.1077,0.1077,0.1077,0.1077,0.1077,0.1064,0.1111,0.11,0.1083,0.1002,0.0867,0.0556,0.0309,0.0309,0.0309,0.0309,0.0309,0.0306,0.0303,0.0298,0.0293,0.0346,0.051,0.0394,0.0336,0.0505,0.0561,0.0505,0.028,0.0617,0.0841,0.0561,0.0721,0.0881,0.0881,0.0923,0.0913,0.0913,0.0523,0.0256,0.0255,0.0255,0.0254,0.0253,0.0253,0.0202,0.0101,0.0101,0.0101,0.0101,0.0101,0.0152,0.0253,0.0253,0.0354,0.0505,0.0505,0.0657,0.8364,0.871,0.8851,0.8754,0.8713,0.8476,0.0,0.7143,0.6718,0.6114,0.5993,0.5993,0.5993,0.6156,0.6395,0.6654,0.0,0.0,0.0,0.0,0.0,0.0,0.0,0.0,0.0,0.2101,0.2222,0.2222,0.2222,0.0,0.2222,0.2222,0.202,0.1616,0.1616,0.1414,0.1077,0.1414,0.1414,0.1077,0.1077,0.1077,0.1077,0.1077,0.1077,0.1077,0.1077,0.1077,0.1077,0.1077,0.1077,0.1077,0.1077,0.1077,0.1077,0.1077,0.1077,0.1077,0.1077,0.1057,0.1032,0.1419,0.1265,0.105,0.142,0.1235,0.0988,0.0988,0.0988,0.0988,0.0988,0.0988,0.0984,0.0969,0.0953,0.0879,0.0923,0.0908,0.0897,0.0897,0.0897,0.0897,0.0897,0.0897,0.0897,0.0897,0.0897,0.0897,0.0897,0.0884,0.0874,0.0874,0.0916,0.09,0.0884,0.0883,0.0876,0.0809,0.0808,0.0657,0.0404,0.0404,0.0404,0.0404,0.0404,0.0505,0.0808,0.0808,0.0808,0.0808,0.0808,0.096,0.7655,0.794,0.8133,0.7987,0.795,0.7797,0.7204,0.6997,0.6787,0.6291,0.6186,0.6186,0.6186,0.6265,0.6463,0.6919,0.6733,0.0,0.0,0.0,0.0,0.0,0.0,0.0,0.0,0.0,0.2222,0.2222,0.2222,0.2222,0.2222,0.2222,0.2155,0.202,0.202,0.1953,0.1885,0.1953,0.1953,0.1885,0.1885,0.1885,0.1885,0.1885,0.1683,0.1481,0.175,0.1683,0.1481,0.175,0.1885,0.1885,0.1885,0.1885,0.1885,0.1885,0.1885,0.1885,0.1885,0.1796,0.1765,0.1876,0.1782,0.1689,0.1796,0.142,0.0988,0.0988,0.0988,0.0988,0.0988,0.0988,0.0984,0.103,0.0953,0.0938,0.1212,0.1078,0.0953,0.1121,0.1177,0.1121,0.0953,0.1234,0.1458,0.1234,0.1346,0.1514,0.1514,0.1507,0.1502,0.1502,0.1495,0.1364,0.0954,0.0899,0.0897,0.0892,0.0892,0.0839,0.0734,0.0725,0.0721,0.0721,0.0712,0.0707,0.0808,0.0808,0.0909,0.1061,0.1263,0.1415,0.0,0.7421,0.7611,0.7465,0.7472,0.7397,0.6946,0.6844,0.6732,0.6381,0.63,0.63,0.63,0.63,0.6457,0.6895,0.6977,0.0,0.0,0.0,0.0,0.0,0.0,0.0,0.0,0.2208,0.2222,0.2222,0.2222,0.2222,0.2222,0.2222,0.2222,0.2222,0.2222,0.2222,0.2222,0.2222,0.2222,0.2222,0.2222,0.2222,0.2222,0.2222,0.2087,0.1818,0.2087,0.2087,0.0,0.2087,0.2222,0.2222,0.2222,0.2222,0.2222,0.2222,0.2222,0.222,0.2142,0.2118,0.2087,0.2056,0.2026,0.1999,0.1981,0.1729,0.1359,0.1359,0.1359,0.1359,0.1359,0.1359,0.1355,0.1403,0.1323,0.1361,0.1572,0.1432,0.1299,0.146,0.1514,0.1458,0.129,0.157,0.1739,0.1514,0.1683,0.1795,0.1795,0.1795,0.1795,0.1795,0.1795,0.1669,0.1253,0.1243,0.1235,0.1226,0.1226,0.1173,0.1066,0.1055,0.1049,0.1049,0.0985,0.1031,0.1134,0.1127,0.123,0.1392,0.1536,0.1639,0.0,0.7051,0.7238,0.7041,0.716,0.7163,0.6736,0.6644,0.0,0.6327,0.6276,0.6289,0.631,0.6317,0.6422,0.6712,0.6885,0.0,0.0,0.0,0.0,0.0,0.0,0.0,0.2132,0.2187,0.2222,0.2222,0.2222,0.2222,0.2222,0.2222,0.2222,0.2222,0.2222,0.2222,0.2222,0.2222,0.2222,0.2222,0.2222,0.2222,0.2222,0.2222,0.2222,0.2222,0.2222,0.2222,0.2222,0.2222,0.2222,0.2222,0.2222,0.2222,0.2222,0.2222,0.2221,0.2214,0.2119,0.2088,0.2056,0.2025,0.1998,0.1977,0.1977,0.1977,0.1977,0.1977,0.1977,0.1977,0.1977,0.1977,0.1977,0.1977,0.1953,0.1924,0.1895,0.1864,0.1775,0.1804,0.1796,0.1795,0.1795,0.1795,0.1795,0.1795,0.1795,0.1795,0.1795,0.1795,0.1795,0.1795,0.1795,0.1795,0.1795,0.1824,0.1795,0.1712,0.171,0.1603,0.1336,0.1335,0.1334,0.1334,0.1332,0.1438,0.1704,0.1678,0.1679,0.1703,0.1677,0.168,0.5857,0.0,0.6308,0.6152,0.623,0.6285,0.0,0.6101,0.6135,0.0,0.0,0.0,0.6419,0.6463,0.6675,0.7282,0.0,0.0,0.0,0.0,0.0,0.0,0.0,0.2192,0.2199,0.2213,0.2222,0.2222,0.2222,0.2222,0.2222,0.2222,0.2222,0.2222,0.2222,0.2222,0.2222,0.2222,0.2222,0.2222,0.2222,0.2222,0.2222,0.2222,0.2222,0.2222,0.2222,0.2222,0.2222,0.2222,0.2222,0.2222,0.2222,0.2222,0.2222,0.2222,0.214,0.2119,0.2112,0.2074,0.2024,0.1996,0.1981,0.1977,0.1977,0.1977,0.1977,0.1977,0.1977,0.1977,0.1977,0.1977,0.1977,0.1977,0.1953,0.1929,0.1922,0.182,0.1781,0.1774,0.1811,0.1795,0.1795,0.1795,0.1795,0.1795,0.1795,0.1795,0.1795,0.1795,0.1795,0.1795,0.1795,0.1795,0.1795,0.1789,0.1781,0.1774,0.1774,0.1774,0.1663,0.1696,0.1685,0.1685,0.1608,0.1651,0.1704,0.1697,0.1698,0.1704,0.1697,0.1698,0.5518,0.585,0.6213,0.6129,0.6224,0.6315,0.6234,0.0,0.0,0.0,0.0,0.0,0.0,0.0,0.0,0.0,0.0,0.0,0.0,0.0,0.0,0.0,0.0,0.3162,0.0,0.2558,0.2222,0.2222,0.2222,0.2222,0.2222,0.2222,0.2222,0.2222,0.2222,0.2222,0.2222,0.2222,0.2222,0.2222,0.2222,0.2222,0.2222,0.2222,0.2222,0.2222,0.2222,0.2222,0.2222,0.2222,0.2222,0.2222,0.2222,0.2222,0.2222,0.2222,0.2136,0.2107,0.2093,0.2049,0.1996,0.1981,0.1977,0.1977,0.1977,0.1977,0.1977,0.1977,0.1977,0.1977,0.1977,0.1977,0.1977,0.1977,0.1964,0.1948,0.1934,0.1846,0.1815,0.1788,0.1827,0.1811,0.1797,0.1795,0.1795,0.1795,0.1795,0.1795,0.1795,0.1795,0.1795,0.1795,0.1795,0.1795,0.1795,0.1795,0.1795,0.1795,0.1795,0.1795,0.1795,0.1779,0.1825,0.1825,0.1754,0.1746,0.1746,0.1732,0.1732,0.1746,0.1731,0.1733,0.5477,0.6013,0.6518,0.6405,0.6468,0.6597,0.6597,0.0,0.0,0.0,0.0,0.0,0.0,0.0,0.0,0.0,0.0,0.0,0.0,0.0,0.0,0.0,0.0,0.0,0.4301,0.3228,0.2423,0.2222,0.2222,0.2222,0.2222,0.2222,0.2222,0.2222,0.2222,0.2222,0.2222,0.2222,0.2222,0.2222,0.2222,0.2222,0.2222,0.2222,0.2222,0.2222,0.2222,0.2222,0.2222,0.2222,0.2222,0.2222,0.2222,0.2222,0.2221,0.2216,0.2129,0.2097,0.2063,0.2018,0.1977,0.1977,0.1977,0.1977,0.1977,0.1977,0.1977,0.1977,0.1977,0.1977,0.1977,0.1977,0.1977,0.1977,0.1977,0.1969,0.1944,0.1934,0.1854,0.18,0.1786,0.1773,0.18,0.1795,0.1795,0.1795,0.1795,0.1795,0.1795,0.1795,0.1795,0.1795,0.1795,0.1795,0.1795,0.1795,0.1795,0.1795,0.1795,0.1795,0.1795,0.1795,0.1795,0.1795,0.1795,0.1795,0.1795,0.1824,0.1825,0.1794,0.1823,0.1825,0.5823,0.6288,0.6515,0.5881,0.5928,0.6094,0.6094,0.0,0.0,0.0,0.0,0.0,0.0,0.0,0.0,0.0,0.0,0.0,0.0,0.0,0.0,0.8071,0.0,0.5633,0.4434,0.41,0.3497,0.2289,0.2222,0.2222,0.2222,0.2222,0.2222,0.2222,0.2222,0.2222,0.2222,0.2222,0.2222,0.2222,0.2222,0.2222,0.2222,0.2222,0.2222,0.2222,0.2222,0.2222,0.2222,0.2222,0.2222,0.2222,0.2222,0.2222,0.2218,0.2125,0.2097,0.2063,0.2009,0.1984,0.1977,0.1977,0.1977,0.1977,0.1977,0.1977,0.1977,0.1977,0.1977,0.1977,0.1977,0.1977,0.1977,0.1977,0.1977,0.1975,0.1971,0.1949,0.1921,0.1885,0.1857,0.1773,0.18,0.1795,0.1795,0.1795,0.1795,0.1795,0.1795,0.1795,0.1795,0.1795,0.1795,0.1795,0.1795,0.1795,0.1795,0.1795,0.1795,0.1795,0.1795,0.1795,0.1795,0.1795,0.1795,0.1795,0.1795,0.1791,0.1791,0.1795,0.179,0.1791,0.5613,0.5996,0.6274,0.6054,0.6417,0.6858,0.6773,0.0,0.0,0.0,0.0,0.0,0.0,0.0,0.0,0.0,0.0,0.0,0.0,0.9422,0.9291,0.0,0.0,0.7303,0.6704,0.5235,0.4033,0.3362,0.2625,0.2222,0.2222,0.2222,0.2222,0.2222,0.2222,0.2222,0.2222,0.2222,0.2222,0.2222,0.2222,0.2222,0.2222,0.2222,0.2222,0.2222,0.2222,0.2222,0.2221,0.2137,0.213,0.2129,0.2178,0.2171,0.2168,0.2071,0.2051,0.2033,0.1991,0.1977,0.1977,0.1977,0.1977,0.1977,0.1977,0.1977,0.1977,0.1977,0.1977,0.1977,0.1977,0.1977,0.1977,0.1977,0.1977,0.1977,0.1977,0.1966,0.1947,0.1916,0.1899,0.1816,0.1827,0.1819,0.1814,0.1797,0.1795,0.1795,0.1795,0.1795,0.1795,0.1795,0.1795,0.1795,0.1795,0.1795,0.1795,0.1795,0.1795,0.1795,0.1795,0.1795,0.1795,0.1795,0.1795,0.1795,0.1795,0.2465,0.28,0.28,0.3413,0.3747,0.5559,0.5796,0.6043,0.6347,0.0,0.7353,0.7411,0.0,0.0,0.0,0.0,0.0,0.0,0.0,0.0,0.0,0.0,0.9496,0.9829,1.0076,1.028,1.0426,0.9621,0.889,0.8492,0.6508,0.492,0.4258,0.3263,0.2466,0.22,0.22,0.22,0.22,0.22,0.22,0.22,0.22,0.2208,0.2222,0.2222,0.2218,0.2144,0.2144,0.2207,0.22,0.22,0.22,0.2198,0.2108,0.2099,0.2096,0.2073,0.206,0.205,0.2027,0.2014,0.2005,0.1984,0.1977,0.1977,0.1977,0.1977,0.1977,0.1977,0.1977,0.1977,0.1977,0.1977,0.1977,0.1977,0.1977,0.1977,0.1977,0.1977,0.1977,0.1977,0.1977,0.1967,0.1937,0.1871,0.1852,0.1793,0.1783,0.1772,0.18,0.1795,0.1795,0.1795,0.1795,0.1795,0.1795,0.1795,0.1795,0.1795,0.1795,0.1795,0.1795,0.1795,0.1795,0.1795,0.1795,0.1795,0.1795,0.2074,0.2242,0.2242,0.3413,0.4026,0.4026,0.4972,0.5417,0.6044,0.6115,0.6094,0.6563,0.661,0.0,0.7424,0.7251,0.0,0.7651,0.0,0.0,0.0,0.0,0.0,0.0,0.0,0.9534,0.9909,0.0,1.0061,1.0276,1.024,0.9666,0.8247,0.7924,0.6766,0.4195,0.3939,0.3359,0.2199,0.2135,0.2135,0.2135,0.2135,0.2135,0.2135,0.2135,0.2164,0.2222,0.2222,0.214,0.2112,0.2112,0.2097,0.2135,0.2135,0.2135,0.2135,0.2133,0.2131,0.2131,0.2129,0.2047,0.2022,0.2019,0.2002,0.1979,0.1977,0.1977,0.1977,0.1977,0.1977,0.1977,0.1977,0.1977,0.1977,0.1977,0.1977,0.1977,0.1977,0.1977,0.1977,0.1977,0.1977,0.1977,0.1977,0.1977,0.1967,0.1937,0.1871,0.1852,0.1793,0.1783,0.1772,0.18,0.1795,0.1795,0.1795,0.1795,0.1795,0.1795,0.1795,0.1795,0.1795,0.1795,0.1795,0.1795,0.1795,0.1795,0.1795,0.1795,0.1795,0.1795,0.2912,0.3469,0.3469,0.4693,0.525,0.525,0.5361,0.5417,0.5631,0.5861,0.6077,0.6471,0.0,0.0,0.0,0.0,0.7851,0.8163,0.8184,0.0,0.0,0.0,0.0,0.0,0.0,0.9612,0.9873,0.9926,1.0007,1.0131,1.0222,1.0086,0.9506,0.8669,0.7643,0.6615,0.5719,0.5016,0.4567,0.4503,0.4119,0.3284,0.3284,0.2899,0.2128,0.2128,0.214,0.2164,0.2164,0.2157,0.2081,0.2081,0.2075,0.2128,0.2128,0.2128,0.2127,0.2044,0.2035,0.2034,0.2016,0.2003,0.1992,0.1992,0.1986,0.1977,0.1977,0.1977,0.1977,0.1977,0.1977,0.1977,0.1977,0.1977,0.1977,0.1977,0.1977,0.1977,0.1977,0.1977,0.1977,0.1977,0.1977,0.1977,0.1977,0.1977,0.1973,0.1962,0.196,0.1946,0.1844,0.1881,0.1858,0.1827,0.1807,0.1795,0.1795,0.1795,0.1795,0.1795,0.1795,0.213,0.2856,0.2912,0.3246,0.397,0.3358,0.2912,0.2912,0.3636,0.4026,0.4026,0.447,0.4693,0.4749,0.5866,0.648,0.648,0.7204,0.7593,0.5426,0.5691,0.604,0.0,0.0,0.0,0.0,0.0,0.0,0.8567,0.855,0.0,0.0,0.0,0.0,0.0,0.9367,0.9605,0.9795,0.9849,0.9916,0.9916,1.0073,1.0134,1.0134,0.9246,0.8483,0.8043,0.7156,0.6397,0.6019,0.5956,0.5577,0.463,0.4187,0.3554,0.2669,0.229,0.2036,0.2036,0.2036,0.2041,0.205,0.205,0.2045,0.2036,0.2036,0.2036,0.2035,0.2014,0.2005,0.2003,0.1984,0.1977,0.1977,0.1977,0.1977,0.1977,0.1977,0.1977,0.1977,0.1977,0.1977,0.1977,0.1977,0.1977,0.1977,0.1977,0.1977,0.1977,0.1977,0.1977,0.1977,0.1977,0.1977,0.1977,0.1977,0.1977,0.1977,0.1977,0.1977,0.1967,0.1937,0.1906,0.1875,0.1787,0.1814,0.1795,0.1795,0.1795,0.1795,0.1795,0.213,0.2688,0.3525,0.397,0.4528,0.5361,0.4973,0.4528,0.4193,0.4972,0.5417,0.5417,0.5753,0.5919,0.5919,0.7093,0.7654,0.7709,0.8491,0.8885,0.5545,0.5694,0.5911,0.0,0.0,0.0,0.0,0.0,0.0,0.0,0.0,0.8482,0.8482,0.0,0.0,0.9135,0.934,0.9486,0.9778,0.9822,0.9822,0.9822,0.9822,0.9822,0.9822,0.9822,0.9268,0.8041,0.7919,0.7368,0.6018,0.5957,0.5957,0.5896,0.4611,0.3937,0.3875,0.2652,0.2038,0.1977,0.1977,0.1991,0.2018,0.2018,0.2003,0.1977,0.1977,0.1977,0.1977,0.1977,0.1977,0.1977,0.1977,0.1977,0.1977,0.1977,0.1977,0.1977,0.1977,0.1977,0.1977,0.1977,0.1977,0.1977,0.1977,0.1977,0.1977,0.1977,0.1977,0.1977,0.1977,0.1977,0.1977,0.1977,0.1977,0.1977,0.1977,0.1977,0.1977,0.1977,0.1977,0.1967,0.1937,0.1907,0.1876,0.1788,0.1814,0.1795,0.1795,0.1795,0.1795,0.1795,0.2912,0.3636,0.3636,0.4749,0.5417,0.5417,0.648,0.6591,0.5472,0.5417,0.5417,0.5417,0.6536,0.7096,0.7096,0.8325,0.8885,0.8885,0.8885,0.8885,0.545,0.5805,0.0,0.0,0.0,0.0,0.0,0.0,0.0,0.0,0.0,0.8642,0.8642,0.0,0.0,0.9156,0.934,0.9486,0.9778,0.9822,0.9822,0.9822,0.9822,0.9822,0.9822,0.9822,0.9636,0.9268,0.9207,0.9083,0.8653,0.8653,0.8224,0.7307,0.6938,0.5835,0.3937,0.3509,0.2898,0.1977,0.1977,0.1981,0.1989,0.1989,0.1984,0.1977,0.1977,0.1977,0.1977,0.1977,0.1977,0.1977,0.1977,0.1977,0.1977,0.1977,0.1977,0.1977,0.1977,0.1977,0.1977,0.1977,0.1977,0.1977,0.1977,0.1977,0.1977,0.1977,0.1977,0.1977,0.1977,0.1977,0.1977,0.1977,0.1977,0.1977,0.1977,0.1977,0.1977,0.1977,0.1977,0.1974,0.1964,0.1938,0.1907,0.1877,0.1847,0.1819,0.1797,0.2521,0.3079,0.3079,0.4137,0.5196,0.598,0.6369,0.6982,0.7817,0.8156,0.782,0.6647,0.7429,0.7873,0.7873,0.8211,0.838,0.838,0.8716,0.8885,0.8885,0.8885,0.8885,0.5596,0.0,0.0,0.0,0.0,0.0,0.0,0.0,0.0,0.0,0.0,0.873,0.8791,0.875,0.0,0.9163,0.9286,0.9395,0.9693,0.9737,0.9758,0.9815,0.9822,0.9822,0.9822,0.9822,0.9822,0.9822,0.9822,0.9822,0.9822,0.9822,0.9454,0.8653,0.8163,0.7121,0.5529,0.4427,0.3509,0.2774,0.2222,0.1977,0.1977,0.1977,0.1977,0.1977,0.1977,0.1977,0.1977,0.1977,0.1977,0.1977,0.1977,0.1977,0.1977,0.1977,0.1977,0.1977,0.1977,0.1977,0.1977,0.1977,0.1977,0.1977,0.1977,0.1977,0.1977,0.1977,0.1977,0.1977,0.1977,0.1977,0.1977,0.1977,0.1977,0.1977,0.1977,0.1977,0.1977,0.1977,0.1977,0.1977,0.1977,0.1952,0.1921,0.189,0.2253,0.2663,0.3195,0.3858,0.4305,0.4305,0.5363,0.6366,0.7041,0.7543,0.8103,0.883,0.8885,0.8549,0.7823,0.8491,0.8885,0.8885,0.8885,0.8885,0.8885,0.8885,0.8885,0.8885,0.8885,0.8885,0.0,0.0,0.0,0.0,0.0,0.0,0.0,0.0,0.0,0.0,0.0,0.8774,0.8858,0.8825,0.8825,0.9163,0.921,0.9313,0.9547,0.9588,0.9635,0.9768,0.9781,0.9781,0.9781,0.9781,0.9781,0.9781,0.9781,0.9781,0.9781,0.9781,0.9781,0.9781,0.8618,0.8013,0.7903,0.5456,0.4176,0.4059,0.2898,0.2284,0.2161,0.2038,0.1977,0.1977,0.1977,0.1977,0.1977,0.1977,0.1977,0.1977,0.1977,0.2099,0.216,0.2038,0.2099,0.2161,0.2038,0.1977,0.1977,0.1977,0.1977,0.1977,0.1977,0.1977,0.1977,0.1977,0.1977,0.1977,0.1977,0.1977,0.2038,0.2161,0.2099,0.1977,0.1977,0.1977,0.1977,0.1977,0.1977,0.2038,0.2161,0.2134,0.2099,0.2181,0.3086,0.4137,0.525,0.5472,0.5528,0.5528,0.6591,0.7263,0.7263,0.8269,0.8885,0.8885,0.8885,0.8885,0.8885,0.8885,0.8885,0.8885,0.8885,0.8885,0.8885,0.8885,0.8885,0.8885,0.8885,0.8885,0.0,0.0,0.0,0.0,0.0,0.0,0.0,0.0,0.0,0.0,0.0,0.8844,0.8878,0.8858,0.8947,0.918,0.921,0.9275,0.9405,0.9432,0.9442,0.9473,0.9476,0.9476,0.9476,0.9476,0.9476,0.9476,0.9476,0.9476,0.9476,0.9476,0.9476,0.9476,0.9238,0.8639,0.7663,0.712,0.6375,0.5468,0.5163,0.449,0.3448,0.2468,0.1977,0.1977,0.1977,0.1977,0.1977,0.1977,0.1977,0.1977,0.1977,0.259,0.3387,0.2345,0.2652,0.3325,0.2346,0.1977,0.1977,0.1977,0.1977,0.1977,0.1977,0.1977,0.1977,0.1977,0.1977,0.1977,0.1977,0.1977,0.2222,0.3264,0.2714,0.1977,0.1977,0.1977,0.1977,0.1977,0.1977,0.2346,0.3325,0.3407,0.3638,0.4513,0.4868,0.5083,0.5361,0.62,0.676,0.676,0.782,0.8491,0.8491,0.8771,0.8885,0.8885,0.8885,0.8885,0.8885,0.8885,0.8885,0.8885,0.8885,0.8885,0.8885,0.8885,0.8885,0.8885,0.8885,0.8885,0.0,0.0,0.0,0.0,0.0,0.0,0.0,0.0,0.0,0.0,0.8885,0.8885,0.8885,0.8885,0.8908,0.9039,0.9052,0.9103,0.9309,0.933,0.9357,0.9371,0.9381,0.9381,0.9381,0.9381,0.9381,0.9381,0.9381,0.9381,0.9381,0.9381,0.9381,0.9381,0.9381,0.9124,0.849,0.7836,0.7213,0.6609,0.6009,0.535,0.4634,0.2817,0.2346,0.2898,0.2284,0.2346,0.2898,0.2898,0.3266,0.3879,0.3879,0.4246,0.4795,0.4123,0.4306,0.4734,0.4123,0.3879,0.3879,0.3879,0.3879,0.3879,0.3879,0.3879,0.3879,0.3879,0.3879,0.3879,0.3879,0.3879,0.4062,0.4673,0.3388,0.2346,0.3574,0.3388,0.3081,0.3756,0.3879,0.4063,0.4734,0.4707,0.5024,0.6154,0.6337,0.6534,0.7041,0.7758,0.8153,0.8086,0.8647,0.9042,0.9042,0.8977,0.8885,0.8885,0.8885,0.8885,0.8885,0.8885,0.8885,0.8885,0.8885,0.8885,0.8885,0.8885,0.8885,0.8885,0.8885,0.8885,0.0,0.0,0.0,0.0,0.0,0.0,0.0,0.0,0.0,0.0,0.8848,0.8885,0.8885,0.8885,0.8885,0.8885,0.8885,0.8981,0.91,0.9173,0.9164,0.9289,0.9306,0.9306,0.9306,0.9306,0.9306,0.9306,0.9306,0.9306,0.9306,0.9306,0.9306,0.9306,0.9306,0.9317,0.934,0.8289,0.7716,0.7738,0.645,0.5925,0.6105,0.3686,0.3179,0.4089,0.3066,0.3254,0.4228,0.4239,0.4916,0.5896,0.5896,0.6018,0.6202,0.5957,0.6018,0.6202,0.5957,0.5896,0.5896,0.5896,0.5896,0.5896,0.5896,0.5896,0.5896,0.5896,0.5896,0.5896,0.5896,0.5896,0.5957,0.6202,0.443,0.3267,0.5408,0.5039,0.4548,0.5712,0.608,0.6259,0.6183,0.6231,0.6649,0.7624,0.7766,0.8064,0.8861,0.9228,0.9334,0.9262,0.9248,0.9238,0.921,0.9045,0.8908,0.8885,0.8885,0.8885,0.8885,0.8885,0.8885,0.8885,0.8885,0.8885,0.8885,0.8885,0.8885,0.8885,0.8885,0.8885,0.0,0.0,0.0,0.0,0.0,0.0,0.0,0.0,0.0,0.0,0.8754,0.8885,0.8885,0.8885,0.8885,0.8885,0.8885,0.8892,0.8908,0.8967,0.8974,0.8939,0.8942,0.8942,0.8942,0.8942,0.8942,0.8942,0.8942,0.8942,0.8942,0.8942,0.8942,0.8942,0.8942,0.9059,0.9241,0.9067,0.9017,0.9146,0.7796,0.7738,0.8794,0.6185,0.514,0.5259,0.5215,0.5307,0.5491,0.5561,0.5712,0.5896,0.5896,0.6632,0.749,0.6326,0.6632,0.749,0.6324,0.5896,0.5896,0.5896,0.5896,0.5896,0.5896,0.5896,0.5896,0.5896,0.5896,0.5896,0.5896,0.5896,0.6202,0.7365,0.6449,0.5469,0.5835,0.5774,0.5712,0.5835,0.6815,0.7583,0.7425,0.8343,0.9058,0.9107,0.9129,0.917,0.9323,0.9357,0.9374,0.9354,0.9351,0.9354,0.9221,0.919,0.9069,0.8892,0.8885,0.8885,0.8885,0.8885,0.8885,0.8885,0.8885,0.8885,0.8885,0.8885,0.8885,0.8885,0.8885,0.8885,0.0,0.0,0.0,0.0,0.0,0.0,0.0,0.0,0.0,0.894,0.9019,0.9008,0.8736,0.8793,0.8878,0.8798,0.8811,0.8842,0.8871,0.8885,0.8885,0.8885,0.8885,0.8885,0.8885,0.8885,0.8885,0.8885,0.8885,0.8885,0.8885,0.8885,0.8885,0.8885,0.8885,0.8967,0.9032,0.9032,0.9066,0.9133,0.8505,0.8562,0.9077,0.7933,0.7091,0.6511,0.5852,0.5987,0.6646,0.681,0.7276,0.801,0.8077,0.8471,0.89,0.8285,0.8471,0.89,0.8285,0.8102,0.8102,0.8102,0.8102,0.8102,0.8102,0.8102,0.8102,0.8102,0.8102,0.8102,0.8102,0.8102,0.8224,0.8836,0.8532,0.8102,0.8102,0.7548,0.7243,0.7917,0.8532,0.8942,0.8823,0.9241,0.9588,0.952,0.951,0.9479,0.9391,0.9527,0.9598,0.9517,0.951,0.9483,0.9415,0.933,0.9218,0.9069,0.9059,0.9022,0.8888,0.8885,0.8885,0.8885,0.8885,0.8885,0.8885,0.8885,0.8885,0.8885,0.8885,0.8885,0.0,0.0,0.0,0.0,0.0,0.0,0.0,0.0,0.0,0.0,0.9201,0.915,0.8677,0.8803,0.8952,0.8852,0.8866,0.8857,0.892,0.8879,0.8879,0.8821,0.8801,0.8824,0.8824,0.8861,0.8885,0.8885,0.8885,0.8885,0.8885,0.8885,0.8885,0.8885,0.8885,0.8885,0.8885,0.8885,0.8885,0.8885,0.8885,0.8885,0.8885,0.8885,0.8492,0.7706,0.6807,0.6993,0.7875,0.8004,0.8675,0.9618,0.9727,0.9788,0.9822,0.9822,0.9822,0.9822,0.9822,0.9822,0.9822,0.9822,0.9822,0.9822,0.9822,0.9822,0.9822,0.9822,0.9822,0.9822,0.9822,0.9822,0.9822,0.9822,0.9822,0.9822,0.9822,0.9083,0.8653,0.9636,0.9822,0.9822,0.9822,0.9734,0.9663,0.9663,0.9663,0.9622,0.9507,0.9686,0.9781,0.9676,0.9663,0.9649,0.9612,0.9503,0.9374,0.9279,0.9231,0.9123,0.9052,0.9015,0.9011,0.9049,0.9015,0.8974,0.8885,0.8885,0.8885,0.8885,0.8885,0.8885,0.0,0.0,0.0,0.0,0.0,0.0,0.0,0.0,0.0,0.8851,0.9008,0.9111,0.8851,0.9061,0.9279,0.929,0.929,0.9189,0.8937,0.8888,0.8832,0.8559,0.8632,0.8723,0.8723,0.8801,0.8885,0.8885,0.8885,0.8885,0.8885,0.8885,0.8885,0.8885,0.8885,0.8885,0.8885,0.8885,0.8885,0.8885,0.8885,0.8885,0.8885,0.8885,0.8892,0.8856,0.8934,0.9047,0.9121,0.9272,0.9417,0.9608,0.9618,0.9703,0.9822,0.9822,0.9822,0.9822,0.9822,0.9822,0.9822,0.9822,0.9822,0.9822,0.9822,0.9822,0.9822,0.9822,0.9822,0.9822,0.9822,0.9822,0.9822,0.9822,0.9822,0.9822,0.9822,0.9761,0.9697,0.9761,0.9822,0.9822,0.9822,0.9815,0.9812,0.9812,0.9812,0.9805,0.9798,0.9812,0.9819,0.9812,0.9812,0.9754,0.9618,0.9602,0.9534,0.9381,0.9292,0.9272,0.9354,0.9275,0.9268,0.9354,0.9272,0.9076,0.8885,0.8885,0.8885,0.8885,0.8885,0.8885,0.0,0.0,0.0,0.0,0.0,0.0,0.0,0.0,0.9203,0.9203,0.9347,0.943,0.9327,0.9284,0.9201,0.92,0.9168,0.9153,0.9156,0.9175,0.9066,0.8804,0.8804,0.8782,0.8564,0.8615,0.8645,0.8645,0.8645,0.8645,0.8645,0.8645,0.8693,0.8791,0.8794,0.8838,0.8881,0.8885,0.8885,0.8885,0.8885,0.8885,0.8885,0.8885,0.8885,0.8888,0.8991,0.9015,0.9025,0.9174,0.9323,0.9337,0.9534,0.9642,0.9696,0.9788,0.9822,0.9822,0.9822,0.9822,0.9822,0.9822,0.9822,0.9822,0.9822,0.9822,0.9822,0.9822,0.9822,0.9822,0.9822,0.9822,0.9822,0.9822,0.9822,0.9822,0.9822,0.9822,0.9822,0.9822,0.9822,0.9822,0.9822,0.9822,0.9822,0.9822,0.9822,0.9822,0.9822,0.9822,0.9822,0.9822,0.9822,0.9798,0.9747,0.9744,0.9683,0.9537,0.9476,0.9425,0.9384,0.9327,0.9323,0.9381,0.9286,0.9183,0.9076,0.8984,0.8885,0.8885,0.8885,0.8885,0.5831,0.0,0.0,0.0,0.0,0.0,0.0,0.0,0.911,0.9355,0.9449,0.9555,0.9567,0.943,0.9321,0.9284,0.9249,0.9291,0.9252,0.9267,0.9164,0.8907,0.8902,0.8883,0.8619,0.8612,0.8591,0.8482,0.8482,0.8482,0.8482,0.8482,0.853,0.8632,0.8682,0.876,0.8807,0.8858,0.8885,0.8885,0.8885,0.8885,0.8885,0.8885,0.8885,0.8885,0.8885,0.8885,0.8892,0.9042,0.9166,0.9231,0.9374,0.9517,0.9618,0.9717,0.9781,0.9822,0.9822,0.9822,0.9822,0.9822,0.9822,0.9822,0.9822,0.9822,0.9822,0.9822,0.9822,0.9822,0.9822,0.9822,0.9822,0.9822,0.9822,0.9822,0.9822,0.9822,0.9822,0.9822,0.9822,0.9822,0.9822,0.9822,0.9822,0.9822,0.9822,0.9822,0.9822,0.9822,0.9822,0.9822,0.9822,0.9822,0.9822,0.9822,0.9781,0.9686,0.9635,0.9585,0.953,0.9483,0.9479,0.9527,0.9384,0.934,0.9286,0.9032,0.8885,0.8885,0.8885,0.8885,0.0,0.0,0.0,0.0,0.0,0.0,0.0,0.0,0.8502,0.9267,0.9371,0.9433,0.9583,0.9571,0.9571,0.9579,0.9579,0.9529,0.9236,0.9236,0.9133,0.8825,0.897,0.9024,0.8718,0.8809,0.879,0.8521,0.8469,0.8469,0.8469,0.8472,0.8476,0.8476,0.8625,0.8703,0.8703,0.8801,0.8875,0.8875,0.8881,0.8885,0.8885,0.8885,0.8885,0.8885,0.8885,0.8885,0.8885,0.8885,0.9022,0.9204,0.9207,0.9334,0.9598,0.9605,0.9696,0.9815,0.9819,0.9822,0.9822,0.9822,0.9822,0.9822,0.9822,0.9822,0.9822,0.9822,0.9822,0.9822,0.9822,0.9822,0.9822,0.9822,0.9822,0.9822,0.9822,0.9822,0.9822,0.9822,0.9822,0.9822,0.9822,0.9822,0.9822,0.9822,0.9822,0.9822,0.9822,0.9822,0.9822,0.9822,0.9822,0.9822,0.9822,0.9822,0.9822,0.9822,0.9693,0.968,0.9815,0.969,0.968,0.9819,0.9683,0.9534,0.9381,0.9086,0.8888,0.8885,0.8885,0.8885,0.5382,0.0,0.0,0.0,0.0,0.0,0.0,0.0,0.0,0.9246,0.9279,0.9293,0.9419,0.9477,0.9474,0.9608,0.9579,0.9579,0.948,0.948,0.9381,0.913,0.9126,0.9053,0.8796,0.8639,0.8513,0.8412,0.8261,0.816,0.816,0.8269,0.8381,0.8381,0.8469,0.8547,0.8547,0.8696,0.8774,0.8774,0.8831,0.8885,0.8885,0.8885,0.8885,0.8885,0.8885,0.8885,0.8885,0.8885,0.8905,0.9008,0.9169,0.9262,0.9306,0.953,0.9635,0.9683,0.9785,0.9822,0.9822,0.9822,0.9822,0.9822,0.9822,0.9822,0.9822,0.9822,0.9822,0.9822,0.9822,0.9822,0.9822,0.9822,0.9822,0.9822,0.9822,0.9822,0.9822,0.9822,0.9822,0.9822,0.9822,0.9822,0.9822,0.9822,0.9822,0.9822,0.9822,0.9822,0.9822,0.9822,0.9822,0.9822,0.9822,0.9822,0.9822,0.9822,0.9785,0.9781,0.9819,0.9785,0.9781,0.9822,0.9683,0.9534,0.9381,0.9188,0.9042,0.8885,0.8885,0.8885,0.0,0.0,0.0,0.0,0.0,0.0,0.8458,0.8383,0.0,0.0,0.8715,0.8777,0.9013,0.9131,0.919,0.9376,0.9466,0.9539,0.9567,0.9579,0.9529,0.9381,0.9381,0.9282,0.8981,0.8832,0.8684,0.8581,0.8432,0.8333,0.8333,0.8324,0.8325,0.8325,0.8368,0.8394,0.8394,0.854,0.8648,0.8713,0.8801,0.8821,0.8885,0.8885,0.8885,0.8885,0.8885,0.8885,0.8885,0.8885,0.8885,0.8892,0.9032,0.91,0.9231,0.9354,0.95,0.9622,0.9703,0.9771,0.9822,0.9822,0.9822,0.9822,0.9822,0.9822,0.9822,0.9822,0.9822,0.9822,0.9822,0.9822,0.9822,0.9822,0.9822,0.9822,0.9822,0.9822,0.9822,0.9822,0.9822,0.9822,0.9822,0.9822,0.9822,0.9822,0.9822,0.9822,0.9822,0.9822,0.9822,0.9822,0.9822,0.9822,0.9822,0.9822,0.9822,0.9822,0.9822,0.9822,0.9822,0.9822,0.9822,0.9822,0.9741,0.9595,0.9381,0.9286,0.9079,0.8885,0.8885,0.8885,0.0,0.0,0.0,0.0,0.0,0.0,0.8615,0.8116,0.7763,0.0,0.8098,0.822,0.8623,0.8805,0.8984,0.9175,0.9341,0.9516,0.9596,0.9579,0.9579,0.9579,0.9579,0.9529,0.9282,0.9236,0.9084,0.8874,0.8825,0.8825,0.8825,0.8581,0.8432,0.8382,0.8322,0.8296,0.8245,0.8387,0.8526,0.8662,0.8696,0.8781,0.8858,0.8875,0.8885,0.8885,0.8885,0.8885,0.8885,0.8937,0.8937,0.8885,0.8885,0.9018,0.9187,0.9204,0.9337,0.9588,0.9605,0.9703,0.9822,0.9822,0.9822,0.9822,0.9822,0.9822,0.9822,0.9822,0.9822,0.9822,0.9822,0.9822,0.9822,0.9822,0.9822,0.9822,0.9822,0.9822,0.9822,0.9822,0.9822,0.9822,0.9822,0.9822,0.9822,0.9822,0.9822,0.9822,0.9822,0.9822,0.9822,0.9822,0.9822,0.9822,0.9822,0.9822,0.9822,0.9822,0.9822,0.9822,0.9822,0.9822,0.9822,0.9822,0.9805,0.9659,0.9381,0.9286,0.9079,0.8885,0.8885,0.8885,0.0,0.0,0.0,0.0,0.0,0.0,0.9719,0.9712,0.9776,0.0,0.8748,0.8698,0.9153,0.9428,0.9679,0.989,0.9886,0.9828,0.9608,0.9579,0.9579,0.9579,0.9579,0.9579,0.9529,0.9335,0.9187,0.9133,0.8928,0.8825,0.8825,0.8775,0.8627,0.8382,0.8364,0.8282,0.8085,0.8238,0.8326,0.836,0.8598,0.8726,0.876,0.8828,0.8885,0.8885,0.8885,0.8885,0.894,0.9213,0.9158,0.8885,0.8885,0.8902,0.8994,0.9166,0.9326,0.9442,0.9568,0.9703,0.9822,0.9822,0.9822,0.9822,0.9822,0.9822,0.9822,0.9822,0.9822,0.9822,0.9822,0.9822,0.9822,0.9822,0.9822,0.9822,0.9822,0.9822,0.9822,0.9822,0.9822,0.9822,0.9822,0.9822,0.9822,0.9822,0.9822,0.9822,0.9822,0.9822,0.9822,0.9822,0.9822,0.9822,0.9822,0.9822,0.9822,0.9822,0.9822,0.9822,0.9822,0.9822,0.9822,0.9822,0.9707,0.9561,0.9381,0.9286,0.9079,0.8885,0.8885,0.8885,0.0,0.0,0.0,0.9443,0.0,0.0,0.0,1.0136,0.9929,0.9491,0.893,0.869,0.9332,0.9488,0.9601,0.9823,0.978,0.9707,0.9557,0.9425,0.9364,0.9364,0.9441,0.949,0.949,0.9428,0.9381,0.9381,0.9278,0.9175,0.9175,0.9076,0.8931,0.8783,0.8531,0.8333,0.8187,0.8166,0.8194,0.8323,0.8421,0.8526,0.8601,0.8916,0.8934,0.8828,0.9178,0.9268,0.9158,0.9489,0.9485,0.932,0.9213,0.9213,0.9331,0.9297,0.9479,0.9752,0.9909,1.0062,1.0144,1.0098,1.0061,1.0004,0.9883,0.9822,0.9822,0.9822,0.9822,0.9822,0.9822,0.9822,0.9822,0.9822,0.9822,0.9822,0.9822,0.9822,0.9822,0.9822,0.9822,0.9822,0.9822,0.9822,0.9822,0.9822,0.9822,0.9822,0.9822,0.9822,0.9822,0.9822,0.9822,0.9822,0.9822,0.9822,0.9822,0.9822,0.9822,0.9822,0.9822,0.9822,0.9822,0.9822,0.9751,0.9642,0.9496,0.934,0.9154,0.8885,0.8885,0.8885,0.0,0.0,0.0,0.0,0.0,1.1114,0.0,0.0,0.0,0.0,0.0,0.0,0.0,0.0,0.0,0.0,0.0,0.0,0.0,0.9216,0.0,0.893,0.9125,0.9298,0.9298,0.9324,0.9425,0.9563,0.9482,0.9482,0.9571,0.9381,0.9236,0.9187,0.8783,0.8482,0.8382,0.8233,0.8199,0.8326,0.8408,0.8536,0.8654,0.9051,0.9083,0.8878,0.9527,0.9651,0.9489,0.9761,0.9871,0.9871,0.9596,0.9599,0.9761,0.9544,0.9701,1.0028,1.0211,1.0386,1.0454,1.0343,1.034,1.0365,1.0065,1.0001,1.0001,1.0001,0.994,0.9879,0.9879,0.9822,0.9822,0.9822,0.9822,0.9822,0.9822,0.9822,0.9822,0.9822,0.9822,0.9822,0.9822,0.9822,0.9822,0.9822,0.9822,0.9822,0.9822,0.9822,0.9822,0.9822,0.9822,0.9822,0.9822,0.9822,0.9822,0.9822,0.9822,0.9822,0.9822,0.9822,0.9822,0.9822,0.9822,0.9751,0.9608,0.9486,0.9273,0.8981,0.8895,0.8885,0.0,0.0,0.0,0.0,1.2506,0.0,0.0,0.0,1.089,0.9908,0.0,0.0,0.0,0.0,0.0,0.0,0.0,0.0,0.9662,0.9109,0.8644,0.841,0.8678,0.8881,0.8881,0.8613,0.8706,0.9384,0.9,0.8962,0.9546,0.9579,0.943,0.9187,0.9137,0.8886,0.8382,0.8627,0.8588,0.8411,0.8805,0.9038,0.9064,0.9315,0.9455,0.9409,0.9687,0.9761,0.9761,1.0091,1.0257,1.0202,0.9871,0.9761,0.9816,0.9761,0.9869,1.0013,1.0028,1.0235,1.0499,1.0454,1.0613,1.0728,1.0728,1.0668,1.0668,1.0668,1.0486,1.0243,1.0243,1.0004,0.9822,0.9822,0.9822,0.9822,0.9822,0.9822,0.9822,0.9822,0.9822,0.9822,0.9822,0.9822,0.9822,0.9822,0.9822,0.9822,0.9822,0.9822,0.9822,0.9822,0.9822,0.9822,0.9822,0.9822,0.9822,0.9822,0.9822,0.9822,0.9822,0.9822,0.9822,0.9822,0.9822,0.9751,0.9608,0.9591,0.9425,0.9183,0.8998,0.8885,0.0,0.0,0.0,0.0,0.0,0.0,1.14,0.0,1.1082,0.0,0.0,0.0,0.0,0.0,0.0,0.0,0.9923,0.0,0.0,0.0,0.8358,0.0,0.0,0.817,0.8483,0.8377,0.8459,0.8914,0.8637,0.8674,0.9287,0.9413,0.947,0.943,0.9286,0.9084,0.8882,0.8825,0.8726,0.863,0.8846,0.8933,0.894,0.9432,0.9587,0.944,1.0027,1.0257,1.0091,1.0417,1.0527,1.0527,1.0363,1.0308,1.0308,1.0147,1.0248,1.0433,1.0539,1.073,1.0907,1.0927,1.0914,1.0789,1.0789,1.0789,1.0789,1.0789,1.0728,1.0607,1.0607,1.0486,1.0304,1.0122,1.0061,1.0061,0.9822,0.9822,0.9822,0.9822,0.9822,0.9822,0.9822,0.9822,0.9822,0.9822,0.9822,0.9822,0.9822,0.9822,0.9822,0.9822,0.9822,0.9822,0.9822,0.9822,0.9822,0.9822,0.9822,0.9822,0.9822,0.9822,0.9822,0.9822,0.9822,0.9791,0.9734,0.9649,0.9544,0.9415,0.9266,0.9195,1.3246,0.0,0.0,0.0,0.0,0.0,0.0,0.0,0.0,0.0,0.0,0.0,0.0,0.0,0.0,0.0,0.0,0.9653,0.0,0.8711,0.0,0.0,0.0,0.0,0.8028,0.7894,0.7955,0.8385,0.8109,0.8268,0.9056,0.9214,0.9388,0.9571,0.943,0.9282,0.9187,0.908,0.8977,0.8928,0.8977,0.9023,0.9038,0.9638,0.9799,0.9609,1.0375,1.0582,1.0421,1.0637,1.0692,1.0692,1.0692,1.0692,1.0692,1.0472,1.0527,1.0712,1.0846,1.1037,1.1223,1.1403,1.1277,1.1095,1.1095,1.1095,1.1095,1.1095,1.1031,1.097,1.097,1.0849,1.0728,1.0486,1.0425,1.0365,1.0122,1.0065,1.0065,1.0065,1.0001,0.994,0.994,0.9883,0.9822,0.9822,0.9822,0.9822,0.9822,0.9822,0.9822,0.9822,0.9822,0.9822,0.9822,0.9822,0.9822,0.9822,0.9822,0.9822,0.9822,0.9822,0.9822,0.9822,0.9822,0.9822,0.994,0.9777,0.9726,0.9782,0.9528,0.9381,1.571,1.5656,1.5292,1.3585,1.3187,1.2714,0.0,0.0,1.1799,0.0,0.0,0.0,0.0,0.0,0.0,0.0,0.0,0.0,0.0,0.0,0.0,0.0,0.0,0.0,0.0,0.6883,0.6911,0.7955,0.7424,0.7649,0.9023,0.91,0.9267,0.9567,0.9579,0.948,0.9187,0.943,0.943,0.9187,0.943,0.9579,0.9591,0.9998,1.016,1.018,1.0538,1.0692,1.0692,1.0692,1.0692,1.0692,1.0692,1.0692,1.0692,1.0692,1.0692,1.0692,1.07,1.0928,1.1285,1.1654,1.1776,1.1776,1.1776,1.1776,1.1776,1.1776,1.1522,1.1273,1.1273,1.1031,1.0789,1.0789,1.0789,1.0789,1.0789,1.0789,1.0789,1.0789,1.0486,1.0304,1.0304,1.0004,0.9822,0.9822,0.9822,0.9822,0.9822,0.9822,0.9822,0.9822,0.9822,0.9822,0.9822,0.9822,0.9822,0.9822,0.9822,0.9822,0.9822,0.9822,0.9822,0.9822,0.9822,0.9943,1.0304,0.9937,0.9937,1.0229,0.9693,0.9381,1.5879,1.5784,1.5498,1.4369,1.3641,1.2899,1.1732,1.1692,0.0,0.0,0.0,0.0,0.0,0.0,0.0,0.0,0.0,0.0,0.0,0.0,0.0,0.0,0.0,0.0,0.0,0.0,0.679,0.731,0.7204,0.7553,0.8511,0.8901,0.9206,0.9437,0.9563,0.9579,0.948,0.9579,0.9579,0.948,0.9579,0.9579,0.9591,0.9998,1.0212,1.0233,1.0538,1.0692,1.0692,1.0692,1.0692,1.0692,1.0692,1.0692,1.0692,1.0692,1.0692,1.0724,1.096,1.12,1.1447,1.1695,1.1776,1.1776,1.1776,1.1776,1.1776,1.1776,1.1712,1.1647,1.1647,1.1526,1.1405,1.1152,1.1152,1.1091,1.0849,1.0789,1.0789,1.0789,1.0728,1.0607,1.0607,1.0547,1.0304,0.9883,0.9822,0.9822,0.9822,0.9822,0.9822,0.9822,0.9822,0.9822,0.9822,0.9822,0.9822,0.9822,1.0004,1.0122,1.0122,1.0365,1.0486,1.0486,1.0486,1.0547,1.0607,1.0547,1.0547,1.0604,1.0437,1.0211,1.6192,1.6139,1.5905,1.4923,1.4255,1.3547,1.2469,1.2469,1.2572,1.2241,0.0,0.0,0.0,0.0,0.0,0.0,0.0,0.0,0.0,0.8695,0.0,0.0,0.0,0.0,0.0,0.0,0.6684,0.6869,0.6911,0.7305,0.8146,0.8645,0.909,0.9396,0.9535,0.9579,0.9579,0.9579,0.9579,0.9579,0.9579,0.9579,0.9591,0.9998,1.0212,1.0233,1.0538,1.0692,1.0692,1.0692,1.0692,1.0692,1.0692,1.0692,1.0692,1.0692,1.0737,1.0834,1.1122,1.1342,1.1529,1.1715,1.1776,1.1776,1.1776,1.1776,1.1776,1.1776,1.1776,1.1776,1.1776,1.1776,1.1776,1.1522,1.1462,1.1402,1.122,1.1156,1.1156,1.1156,1.1031,1.097,1.097,1.091,1.0668,1.0243,1.0183,1.0122,1.0001,1.0001,1.0001,1.0001,1.0001,1.0001,1.0122,1.0061,1.0001,1.0122,1.0243,1.0365,1.0486,1.0668,1.0789,1.0789,1.0789,1.0849,1.097,1.0849,1.0849,1.097,1.0849,1.0728]}]]